[[{"header":{"parameterUnit":"m.s-1","parameterCategory":1,"la1":30.6,"la2":29.2853,"lo1":-89.7004,"lo2":-87.6739,"dy":0.0162,"dx":0.0183,"nx":112,"ny":82,"refTime":"2024-05-24T06:00:00:Z","depth":0,"parameterNumber":2,"parameterNumberName":"U-component_of_WINDS"},"data":[0.0,0.0,0.0,0.0,0.0,0.0,0.0,0.0,0.0,0.0,0.0,0.0,0.0,0.0,0.0,0.0,0.0,0.0,0.0,0.0,0.0,0.0,0.0,0.0,0.0,0.0,0.0,0.0,0.0,0.0,0.0,0.0,0.0,0.0,0.0,0.0,0.0,0.0,0.0,0.0,0.0,0.0,0.0,0.0,0.0,0.0,0.0,0.0,0.0,0.0,0.0,0.0,0.0,0.0,0.0,0.0,0.0,0.0,0.0,0.0,0.0,0.0,0.0,0.0,0.0,0.0,0.0,0.0,0.0,0.0,0.0,0.0,0.0,0.0,0.0,0.0,0.0,0.0,0.0,0.0,0.0,0.0,0.0,0.0,0.0,0.0,0.0,0.0,0.0,0.0,-3.0156,-3.1361,-3.1511,-3.1231,-3.0556,-2.971,-2.7911,-2.49,0.0,0.0,0.0,0.0,0.0,0.0,0.0,0.0,0.0,0.0,0.0,0.0,0.0,0.0,0.0,0.0,0.0,0.0,0.0,0.0,0.0,0.0,0.0,0.0,0.0,0.0,0.0,0.0,0.0,0.0,0.0,0.0,0.0,0.0,0.0,0.0,0.0,0.0,0.0,0.0,0.0,0.0,0.0,0.0,0.0,0.0,0.0,0.0,0.0,0.0,0.0,0.0,0.0,0.0,0.0,0.0,0.0,0.0,0.0,0.0,0.0,0.0,0.0,0.0,0.0,0.0,0.0,0.0,0.0,0.0,0.0,0.0,0.0,0.0,0.0,0.0,0.0,0.0,0.0,0.0,0.0,0.0,0.0,0.0,0.0,0.0,0.0,0.0,0.0,0.0,0.0,0.0,0.0,0.0,0.0,0.0,0.0,0.0,0.0,0.0,0.0,0.0,0.0,0.0,-3.0532,-3.1419,-3.1511,-3.1231,-3.0556,-2.9207,-2.7325,-2.4857,0.0,0.0,0.0,0.0,0.0,0.0,0.0,0.0,0.0,0.0,0.0,0.0,0.0,0.0,0.0,0.0,0.0,0.0,0.0,0.0,0.0,0.0,0.0,0.0,0.0,0.0,0.0,0.0,0.0,0.0,0.0,0.0,0.0,0.0,0.0,0.0,0.0,0.0,0.0,0.0,0.0,0.0,0.0,0.0,0.0,0.0,0.0,0.0,0.0,0.0,0.0,0.0,0.0,0.0,0.0,0.0,0.0,0.0,0.0,0.0,0.0,0.0,0.0,0.0,0.0,0.0,0.0,0.0,0.0,0.0,0.0,0.0,0.0,0.0,0.0,0.0,0.0,0.0,0.0,0.0,0.0,0.0,0.0,0.0,0.0,0.0,0.0,0.0,0.0,0.0,0.0,0.0,0.0,0.0,0.0,0.0,0.0,0.0,0.0,0.0,0.0,0.0,0.0,-2.9968,-3.0571,-3.1419,-3.1172,-3.0688,-3.0075,-2.8282,-2.6341,-2.4292,-2.3076,0.0,0.0,0.0,0.0,0.0,0.0,0.0,0.0,0.0,0.0,0.0,0.0,0.0,0.0,0.0,0.0,0.0,0.0,0.0,0.0,0.0,0.0,0.0,0.0,0.0,0.0,0.0,0.0,0.0,0.0,0.0,0.0,0.0,0.0,0.0,0.0,0.0,0.0,0.0,0.0,0.0,0.0,0.0,0.0,0.0,0.0,0.0,0.0,0.0,0.0,0.0,0.0,0.0,0.0,0.0,0.0,0.0,0.0,0.0,0.0,0.0,0.0,0.0,0.0,0.0,0.0,0.0,0.0,0.0,0.0,0.0,0.0,0.0,0.0,0.0,0.0,0.0,0.0,0.0,0.0,0.0,0.0,0.0,0.0,0.0,0.0,0.0,0.0,0.0,0.0,0.0,0.0,0.0,0.0,0.0,0.0,0.0,0.0,0.0,0.0,0.0,0.0,-2.9889,-3.0125,-3.0959,-3.0584,-3.0016,-2.9363,-2.74,-2.5456,-2.3769,-2.2182,0.0,0.0,0.0,0.0,0.0,0.0,0.0,0.0,0.0,0.0,0.0,0.0,0.0,0.0,0.0,0.0,0.0,0.0,0.0,0.0,0.0,0.0,0.0,0.0,0.0,0.0,0.0,0.0,0.0,0.0,0.0,0.0,0.0,0.0,0.0,0.0,0.0,0.0,0.0,0.0,0.0,0.0,0.0,0.0,0.0,0.0,0.0,0.0,0.0,0.0,0.0,0.0,0.0,0.0,0.0,0.0,0.0,0.0,0.0,0.0,0.0,0.0,0.0,0.0,0.0,0.0,0.0,0.0,0.0,0.0,0.0,0.0,0.0,0.0,0.0,0.0,0.0,0.0,0.0,0.0,0.0,0.0,0.0,0.0,0.0,0.0,0.0,0.0,0.0,0.0,0.0,0.0,0.0,0.0,0.0,0.0,0.0,0.0,0.0,0.0,0.0,0.0,-2.8869,-2.8964,-2.9661,-2.9693,-2.9349,-2.8541,-2.6687,-2.4992,-2.3582,-2.1796,0.0,0.0,0.0,0.0,0.0,0.0,0.0,0.0,0.0,0.0,0.0,0.0,0.0,0.0,0.0,0.0,0.0,0.0,0.0,0.0,0.0,0.0,0.0,0.0,0.0,0.0,0.0,0.0,0.0,0.0,0.0,0.0,0.0,0.0,0.0,0.0,0.0,0.0,0.0,0.0,0.0,0.0,0.0,0.0,0.0,0.0,0.0,0.0,0.0,0.0,0.0,0.0,0.0,0.0,0.0,0.0,0.0,0.0,0.0,0.0,0.0,0.0,0.0,0.0,0.0,0.0,0.0,0.0,0.0,0.0,0.0,0.0,0.0,0.0,0.0,0.0,0.0,0.0,0.0,0.0,0.0,0.0,0.0,0.0,0.0,0.0,0.0,0.0,0.0,0.0,0.0,0.0,0.0,0.0,0.0,0.0,0.0,0.0,0.0,0.0,0.0,0.0,-2.844,-2.8654,-2.9529,-2.916,-2.8582,-2.7888,-2.6289,-2.464,-2.3054,0.0,0.0,0.0,0.0,0.0,0.0,0.0,0.0,0.0,0.0,0.0,0.0,0.0,0.0,0.0,0.0,0.0,0.0,0.0,0.0,0.0,0.0,0.0,0.0,0.0,0.0,0.0,0.0,0.0,0.0,0.0,0.0,0.0,0.0,0.0,0.0,0.0,0.0,0.0,0.0,0.0,0.0,0.0,0.0,0.0,0.0,0.0,0.0,0.0,0.0,0.0,0.0,0.0,0.0,0.0,0.0,0.0,0.0,0.0,0.0,0.0,0.0,0.0,0.0,0.0,0.0,0.0,0.0,0.0,0.0,0.0,0.0,0.0,0.0,0.0,0.0,0.0,0.0,0.0,0.0,0.0,0.0,0.0,0.0,0.0,0.0,0.0,0.0,0.0,0.0,0.0,0.0,0.0,0.0,0.0,0.0,0.0,0.0,0.0,0.0,0.0,0.0,-2.7526,-2.7817,-2.8188,-2.8824,-2.8188,-2.7565,-2.7078,-2.5402,-2.3837,-2.26,0.0,0.0,0.0,0.0,0.0,0.0,0.0,0.0,0.0,0.0,0.0,0.0,0.0,0.0,0.0,0.0,0.0,0.0,0.0,0.0,0.0,0.0,0.0,0.0,0.0,0.0,0.0,0.0,0.0,0.0,0.0,0.0,0.0,0.0,0.0,0.0,0.0,0.0,0.0,0.0,0.0,0.0,0.0,0.0,0.0,0.0,0.0,0.0,0.0,0.0,0.0,0.0,0.0,0.0,0.0,0.0,0.0,0.0,0.0,0.0,0.0,0.0,0.0,0.0,0.0,0.0,0.0,0.0,0.0,0.0,0.0,0.0,0.0,0.0,0.0,0.0,0.0,0.0,0.0,0.0,0.0,0.0,0.0,0.0,0.0,0.0,0.0,0.0,0.0,0.0,0.0,0.0,0.0,0.0,0.0,0.0,0.0,0.0,0.0,0.0,0.0,0.0,-2.6187,-2.6905,-2.7405,-2.7405,-2.6756,-2.6254,-2.61,-2.3958,-2.254,0.0,0.0,0.0,0.0,0.0,0.0,0.0,0.0,0.0,0.0,0.0,0.0,0.0,0.0,0.0,0.0,0.0,0.0,0.0,0.0,0.0,0.0,0.0,0.0,0.0,0.0,0.0,0.0,0.0,0.0,0.0,0.0,0.0,0.0,0.0,0.0,0.0,0.0,0.0,0.0,0.0,0.0,0.0,0.0,0.0,0.0,0.0,0.0,0.0,0.0,0.0,0.0,0.0,0.0,0.0,0.0,0.0,0.0,0.0,0.0,0.0,0.0,0.0,0.0,0.0,0.0,0.0,0.0,0.0,0.0,0.0,0.0,0.0,0.0,0.0,0.0,0.0,0.0,0.0,0.0,0.0,0.0,0.0,0.0,0.0,0.0,0.0,0.0,0.0,0.0,0.0,0.0,0.0,0.0,0.0,0.0,0.0,0.0,0.0,0.0,0.0,0.0,0.0,-2.5713,-2.6606,-2.7253,-2.7259,-2.6611,-2.598,-2.5507,-2.3961,-2.2677,-2.1828,0.0,0.0,0.0,0.0,0.0,0.0,0.0,0.0,0.0,0.0,0.0,0.0,0.0,0.0,0.0,0.0,0.0,0.0,0.0,0.0,0.0,0.0,0.0,0.0,0.0,0.0,0.0,0.0,0.0,0.0,0.0,0.0,0.0,0.0,0.0,0.0,0.0,0.0,0.0,0.0,0.0,0.0,0.0,0.0,0.0,0.0,0.0,0.0,0.0,0.0,0.0,0.0,0.0,0.0,0.0,0.0,0.0,0.0,0.0,0.0,0.0,0.0,0.0,0.0,0.0,0.0,0.0,0.0,0.0,0.0,0.0,0.0,0.0,0.0,0.0,0.0,0.0,0.0,0.0,0.0,0.0,0.0,0.0,0.0,0.0,0.0,0.0,0.0,0.0,0.0,0.0,0.0,0.0,0.0,0.0,0.0,0.0,0.0,0.0,0.0,0.0,0.0,-2.5364,-2.6137,-2.6817,-2.7094,-2.6239,-2.5507,-2.5153,-2.3525,-2.2238,-2.1537,0.0,0.0,0.0,0.0,0.0,0.0,0.0,0.0,0.0,0.0,0.0,0.0,0.0,0.0,0.0,0.0,0.0,0.0,0.0,0.0,0.0,0.0,0.0,0.0,0.0,0.0,0.0,0.0,0.0,0.0,0.0,0.0,0.0,0.0,0.0,0.0,0.0,0.0,0.0,0.0,0.0,0.0,0.0,0.0,0.0,0.0,0.0,0.0,0.0,0.0,0.0,0.0,0.0,0.0,0.0,0.0,0.0,0.0,0.0,0.0,0.0,0.0,0.0,0.0,0.0,0.0,0.0,0.0,0.0,0.0,0.0,0.0,0.0,0.0,0.0,0.0,0.0,0.0,0.0,0.0,0.0,0.0,0.0,0.0,0.0,0.0,0.0,0.0,0.0,0.0,0.0,0.0,0.0,0.0,0.0,0.0,0.0,0.0,0.0,0.0,0.0,0.0,-2.5111,-2.5637,-2.6203,-2.6817,-2.5771,-2.4984,-2.4928,-2.2857,-2.156,-2.1498,0.0,0.0,0.0,0.0,0.0,0.0,0.0,0.0,0.0,0.0,0.0,0.0,0.0,0.0,0.0,0.0,0.0,0.0,0.0,0.0,0.0,0.0,0.0,0.0,0.0,0.0,0.0,0.0,0.0,0.0,0.0,0.0,0.0,0.0,0.0,0.0,0.0,0.0,0.0,0.0,0.0,0.0,0.0,0.0,0.0,0.0,0.0,0.0,0.0,0.0,0.0,0.0,0.0,0.0,0.0,0.0,0.0,0.0,0.0,0.0,-2.7901,-2.7669,0.0,0.0,0.0,0.0,0.0,0.0,0.0,0.0,0.0,0.0,0.0,0.0,0.0,0.0,0.0,0.0,0.0,0.0,0.0,0.0,0.0,0.0,0.0,0.0,0.0,0.0,0.0,0.0,0.0,0.0,0.0,0.0,0.0,0.0,0.0,0.0,0.0,0.0,0.0,0.0,-2.5035,-2.5516,-2.5916,-2.6115,-2.5457,-2.4819,-2.4339,-2.2955,-2.1952,-2.1537,-2.1004,0.0,0.0,0.0,0.0,0.0,0.0,0.0,0.0,0.0,0.0,0.0,0.0,0.0,0.0,0.0,0.0,0.0,0.0,0.0,0.0,0.0,0.0,0.0,0.0,0.0,0.0,0.0,0.0,0.0,0.0,0.0,0.0,0.0,0.0,0.0,0.0,0.0,0.0,0.0,0.0,0.0,0.0,0.0,0.0,0.0,0.0,0.0,0.0,0.0,0.0,0.0,0.0,0.0,0.0,0.0,0.0,0.0,0.0,0.0,-2.801,-2.753,0.0,0.0,0.0,0.0,0.0,0.0,0.0,0.0,0.0,0.0,0.0,0.0,0.0,0.0,0.0,0.0,0.0,0.0,0.0,0.0,0.0,0.0,0.0,0.0,0.0,0.0,0.0,0.0,0.0,0.0,0.0,0.0,0.0,0.0,0.0,0.0,0.0,0.0,0.0,0.0,-2.4839,-2.5169,-2.5497,-2.5854,-2.5369,-2.4773,-2.4163,-2.2997,-2.207,-2.1534,-2.0999,0.0,0.0,0.0,0.0,0.0,0.0,0.0,0.0,0.0,0.0,0.0,0.0,0.0,0.0,0.0,0.0,0.0,0.0,0.0,0.0,0.0,0.0,0.0,0.0,0.0,0.0,0.0,0.0,0.0,0.0,0.0,0.0,0.0,0.0,0.0,0.0,0.0,0.0,0.0,0.0,0.0,0.0,0.0,0.0,0.0,0.0,0.0,0.0,0.0,0.0,0.0,0.0,0.0,-2.9264,-2.9246,-2.8618,-2.9282,-2.952,-2.9328,-2.8185,-2.7701,-2.7653,-2.6826,0.0,0.0,0.0,0.0,0.0,0.0,0.0,0.0,0.0,0.0,0.0,0.0,0.0,0.0,0.0,0.0,0.0,0.0,0.0,0.0,0.0,0.0,-2.604,-2.6167,-2.6672,-2.6762,-2.5521,0.0,0.0,0.0,0.0,0.0,0.0,0.0,0.0,0.0,0.0,0.0,-2.45,-2.47,-2.4952,-2.5512,-2.5123,-2.4576,-2.3987,-2.301,-2.2164,-2.156,-2.1081,-2.0335,0.0,0.0,0.0,0.0,0.0,0.0,0.0,0.0,0.0,0.0,0.0,0.0,0.0,0.0,0.0,0.0,0.0,0.0,0.0,0.0,0.0,0.0,0.0,0.0,0.0,0.0,0.0,0.0,0.0,0.0,0.0,0.0,-2.994,-3.003,0.0,0.0,0.0,0.0,0.0,0.0,0.0,0.0,0.0,0.0,0.0,0.0,0.0,-2.86,-2.86,-2.86,-2.86,-2.86,-2.8708,-2.8708,-2.86,-2.8708,-2.8403,-2.7818,-2.82,0.0,-2.9275,-2.7784,0.0,0.0,0.0,0.0,0.0,0.0,0.0,0.0,0.0,0.0,0.0,0.0,0.0,0.0,0.0,0.0,0.0,0.0,0.0,0.0,0.0,0.0,-2.6167,-2.6799,-2.7036,-2.695,-2.642,-2.6663,-2.6839,-2.6389,-2.6381,-2.6088,0.0,0.0,0.0,0.0,0.0,0.0,-2.3962,-2.4021,-2.41,-2.4221,-2.4167,-2.3888,-2.3273,-2.3095,-2.2552,-2.156,-2.1424,-2.0875,-1.9747,-1.976,0.0,0.0,0.0,0.0,0.0,0.0,0.0,0.0,0.0,0.0,0.0,0.0,0.0,0.0,0.0,0.0,0.0,0.0,0.0,0.0,0.0,0.0,0.0,0.0,0.0,0.0,0.0,0.0,0.0,-2.9858,-3.0098,-3.0154,-3.0076,-2.9964,0.0,0.0,0.0,0.0,0.0,0.0,0.0,0.0,0.0,-2.86,-2.86,-2.86,-2.86,-2.9047,-2.9047,-2.8618,-2.9518,-2.9468,-2.8605,-2.8878,-2.9058,-2.9183,-2.8931,-2.9524,-3.0504,-2.8684,-2.7912,-2.7895,0.0,0.0,0.0,0.0,-2.7164,-2.6884,-2.728,-2.7429,-2.7375,-2.7068,0.0,0.0,0.0,0.0,0.0,0.0,0.0,-2.5745,-2.6435,-2.6909,-2.7257,-2.7589,-2.7796,-2.7843,-2.7666,-2.7574,-2.7273,-2.6336,-2.665,-2.6535,-2.4897,-2.4928,0.0,0.0,0.0,-2.4238,-2.4447,-2.4452,-2.4365,-2.41,-2.405,-2.379,-2.315,-2.3108,-2.265,-2.156,-2.1504,-2.0978,-1.9849,-1.9798,-1.9798,0.0,0.0,0.0,0.0,0.0,0.0,0.0,0.0,0.0,0.0,0.0,0.0,0.0,0.0,0.0,0.0,0.0,0.0,0.0,0.0,0.0,0.0,0.0,0.0,0.0,0.0,0.0,0.0,-3.0192,-3.0199,-3.0211,-3.015,-3.0057,0.0,0.0,0.0,0.0,0.0,0.0,-2.9004,-2.8904,-2.8767,-2.86,-2.86,-2.8708,-2.8907,-2.9513,-2.9603,-2.9233,-3.0423,-3.0329,-2.9102,-2.945,-2.979,-3.0113,-2.9592,-2.9954,-3.0772,-2.9285,-2.8674,-2.8641,-2.8475,-2.8061,-2.7647,-2.8194,-2.8044,-2.7647,-2.821,-2.8354,-2.821,-2.7633,-2.7704,-2.7834,-2.681,0.0,0.0,0.0,0.0,-2.6267,-2.6901,-2.7411,-2.7856,-2.8013,-2.8202,-2.8319,-2.8238,-2.8052,-2.7585,-2.6497,-2.6925,-2.6915,-2.5075,-2.5179,0.0,-2.4282,-2.4543,-2.4823,-2.4876,-2.4742,-2.4509,-2.4112,-2.3939,-2.3636,-2.315,-2.3108,-2.265,-2.156,-2.1504,-2.1056,-2.0066,-2.0028,-2.0028,-2.0028,0.0,0.0,0.0,0.0,0.0,0.0,0.0,0.0,0.0,0.0,0.0,0.0,0.0,0.0,0.0,0.0,0.0,0.0,0.0,0.0,0.0,0.0,0.0,0.0,0.0,0.0,0.0,0.0,0.0,-3.0192,-3.0034,0.0,0.0,0.0,0.0,-2.9504,-2.9306,-2.9126,-2.9016,-2.8821,-2.8687,-2.86,-2.86,-2.8974,-2.973,-2.9784,-3.0165,-3.0876,-3.0948,-3.0796,-3.041,-3.0428,-2.9982,-2.9211,-2.9857,-2.9897,-2.949,-2.9383,-2.9367,-2.9301,-2.8658,-2.8376,-2.8343,-2.8392,-2.8376,-2.8343,-2.8392,-2.824,-2.8089,-2.848,-2.8383,-2.7965,-2.7278,-2.7051,0.0,0.0,-2.6481,-2.6547,-2.6824,-2.6942,-2.7109,-2.7765,-2.7932,-2.7839,-2.7524,-2.7695,-2.7809,-2.7405,-2.7375,-2.7041,-2.5908,0.0,-2.5578,-2.4932,-2.4878,-2.4878,-2.4824,-2.4288,-2.3957,-2.3999,-2.3496,-2.315,-2.3108,-2.3108,-2.265,-2.156,-2.1504,-2.125,-2.0695,-2.0656,-2.0656,-2.0656,-2.0656,0.0,0.0,0.0,0.0,0.0,0.0,0.0,0.0,0.0,0.0,0.0,0.0,0.0,0.0,0.0,0.0,0.0,0.0,0.0,0.0,0.0,0.0,0.0,0.0,0.0,0.0,0.0,0.0,-3.0211,-3.0026,0.0,-2.9897,-2.9551,-2.9316,-2.9246,-2.9023,-2.9064,-2.949,-2.9444,-2.9616,-3.0133,-3.0133,-3.0278,-3.0581,-3.1089,-3.122,-3.1016,-3.151,-3.1322,-3.0487,-3.019,-3.0001,-2.9928,-2.9846,-2.9961,-3.0231,-3.0149,-3.0108,-3.0075,-2.9827,-2.9466,-2.9102,-2.9582,-2.945,-2.9082,-2.9436,-2.9585,-2.9597,-2.9448,-2.8826,-2.8047,-2.781,-2.7561,-2.7337,-2.717,-2.6957,-2.6878,-2.7397,-2.754,-2.7601,-2.7853,-2.773,-2.7549,-2.7427,-2.7284,-2.7152,-2.7049,-2.7214,-2.7071,-2.5983,-2.6148,-2.6224,-2.5588,-2.5512,-2.5388,-2.4966,-2.4395,-2.3861,-2.3441,-2.3218,-2.3108,-2.3108,-2.279,-2.2261,-2.156,-2.1186,-2.0733,-2.0156,-2.0125,-2.0122,-2.0122,-2.0124,-2.0015,0.0,0.0,0.0,0.0,0.0,0.0,0.0,0.0,0.0,0.0,0.0,0.0,0.0,0.0,0.0,0.0,0.0,0.0,0.0,0.0,0.0,0.0,0.0,0.0,0.0,-3.0206,-3.0199,-3.0211,-2.9953,-2.9805,-2.9805,-2.9367,-2.9068,-2.9,-2.9065,-2.9305,-2.9766,-3.0056,-3.0455,-3.098,-3.0998,-3.1143,-3.1401,-3.1926,-3.2071,-3.1799,-3.2206,-3.1918,-3.1032,-3.0589,-3.0454,-3.047,-3.0135,-3.0218,-3.063,-3.0547,-3.0506,-3.0506,-3.0506,-3.0191,-2.9827,-3.0323,-3.0191,-2.9823,-3.011,-3.0231,-3.0177,-2.9661,-2.891,-2.8222,-2.8069,-2.7845,-2.7618,-2.7507,-2.7267,-2.7129,-2.745,-2.753,-2.753,-2.753,-2.7372,-2.7196,-2.7196,-2.6989,-2.6806,-2.6806,-2.7023,-2.6952,-2.6248,-2.6515,-2.6584,-2.5936,-2.5854,-2.5686,-2.508,-2.4463,-2.393,-2.3484,-2.3218,-2.3108,-2.3108,-2.2607,-2.2135,-2.1786,-2.1268,-2.0875,-2.0656,-2.0462,-2.0368,-2.0368,-2.02,-2.0194,-2.0373,0.0,0.0,0.0,0.0,0.0,0.0,0.0,0.0,0.0,0.0,0.0,0.0,0.0,0.0,0.0,0.0,0.0,0.0,0.0,0.0,0.0,0.0,0.0,-3.0211,-3.0194,-3.02,-3.0192,-2.9845,-2.9608,-2.9608,-2.9177,-2.8881,-2.8834,-2.9501,-2.9891,-2.9875,-3.0618,-3.1053,-3.1071,-3.1071,-3.1437,-3.2234,-3.2234,-3.2632,-3.3378,-3.2988,-3.255,-3.2057,-3.1733,-3.1259,-3.0692,-3.0692,-3.063,-3.0506,-3.0506,-3.0506,-3.0506,-3.0506,-3.0506,-3.0506,-3.0506,-3.0506,-3.0447,-3.0274,-3.0,-2.9661,-2.909,-2.8716,-2.8415,-2.8036,-2.7898,-2.7815,-2.7473,-2.7401,-2.7299,-2.691,-2.6806,-2.6806,-2.6806,-2.6806,-2.6806,-2.6806,-2.6806,-2.6806,-2.6806,-2.6806,-2.6806,-2.6806,-2.6806,-2.6599,-2.6005,-2.5871,0.0,-2.5031,-2.4434,-2.4056,-2.4056,-2.3482,-2.3108,-2.3108,-2.2607,-2.2304,-2.2309,-2.1797,-2.1732,-2.2256,-2.1785,-2.151,-2.1497,-2.0992,-2.0979,-2.1498,0.0,0.0,0.0,0.0,0.0,0.0,0.0,0.0,0.0,0.0,0.0,0.0,0.0,0.0,0.0,0.0,0.0,0.0,0.0,0.0,0.0,-3.0273,-3.0253,-3.02,-3.0206,-3.0199,-3.0211,-2.9961,-2.9751,-2.9617,-2.9264,-2.9223,-2.9643,-2.9766,-3.0323,-3.1473,-3.1745,-3.2144,-3.2723,-3.2741,-3.285,-3.3067,-3.3067,-3.3021,-3.2972,-3.2842,-3.2417,-3.1715,-3.1529,-3.1181,-3.0692,-3.0609,-3.0531,-3.0506,-3.0506,-3.0506,-3.0506,-3.0506,-3.0506,-3.0506,-3.0506,-3.0422,-3.0274,-3.021,-2.9738,-2.9136,-2.8951,-2.8511,-2.8021,-2.7923,-2.773,-2.7524,-2.7427,-2.7196,-2.6937,-2.6832,-2.6806,-2.6806,-2.6806,-2.6806,-2.6806,-2.6806,-2.6806,-2.6806,-2.6806,-2.6806,-2.6806,-2.6806,-2.6806,-2.6599,-2.6005,-2.5536,-2.5042,-2.4442,-2.3777,-2.3371,-2.3371,-2.3206,-2.3108,-2.3108,-2.2607,-2.2304,-2.2309,-2.1809,-2.1555,-2.1704,-2.1597,-2.1509,-2.151,-2.1365,-2.1354,0.0,0.0,0.0,0.0,0.0,0.0,0.0,0.0,0.0,0.0,0.0,0.0,0.0,0.0,0.0,0.0,0.0,0.0,0.0,0.0,0.0,0.0,-3.0299,-3.0279,-3.0214,-3.0194,-3.0199,-3.0211,-3.0026,-2.9954,-3.0086,-2.9828,-2.9874,-3.0458,-3.0724,-3.1243,-3.2144,-3.2524,-3.2922,-3.3393,-3.3393,-3.3393,-3.3393,-3.3393,-3.3193,-3.2795,-3.2599,-3.2161,-3.1509,-3.1223,-3.0942,-3.0609,-3.0531,-3.0506,-3.0506,-3.0506,-3.0506,-3.0506,0.0,0.0,0.0,0.0,-3.038,-3.0167,-3.0022,-2.9483,-2.8858,-2.8496,-2.8076,-2.767,-2.7494,-2.7295,-2.7144,-2.7144,-2.6989,-2.6806,-2.6806,-2.6806,-2.6806,-2.6806,-2.6806,-2.6806,-2.6806,-2.6806,-2.6806,-2.6806,-2.6806,0.0,-2.6474,-2.6419,-2.6129,-2.5279,-2.4862,-2.4378,-2.3777,-2.3359,-2.3108,-2.3108,-2.3108,-2.3108,-2.3108,-2.2607,0.0,0.0,0.0,-2.1849,-2.1849,-2.1849,0.0,0.0,0.0,0.0,0.0,0.0,0.0,0.0,-2.2672,-2.2605,0.0,0.0,0.0,0.0,0.0,0.0,0.0,0.0,0.0,0.0,0.0,0.0,0.0,0.0,0.0,0.0,-3.0299,-3.0286,-3.0221,-3.0214,-3.0207,-3.0192,-3.0042,-3.0168,-3.0734,-3.0578,-3.0669,-3.1284,-3.1933,-3.23,-3.2339,-3.3013,0.0,0.0,0.0,-3.3393,-3.3393,-3.3393,-3.3178,-3.2731,-3.2316,-3.1843,-3.1338,-3.0898,-3.063,-3.0506,-3.0506,-3.0506,-3.0506,-3.0506,-3.0506,-3.0506,-3.0506,-3.0506,-3.0506,-3.0506,-3.038,-3.0146,-2.9711,0.0,0.0,-2.7923,-2.7519,-2.7273,-2.691,-2.6806,-2.6806,-2.6806,-2.6806,-2.6806,-2.6806,-2.6806,-2.6806,-2.6806,-2.6806,-2.6806,-2.6806,-2.6806,-2.6779,-2.6709,-2.6709,-2.6488,-2.58,-2.5808,-2.5483,-2.4283,-2.411,-2.3846,-2.3206,-2.3108,-2.3108,-2.3108,-2.3108,0.0,-2.3108,-2.265,-2.2595,-2.3065,-2.265,-2.24,-2.24,-2.24,-2.24,-2.24,-2.24,-2.2607,-2.3108,-2.3163,-2.347,-2.3987,-2.2955,-2.2786,0.0,0.0,0.0,0.0,0.0,0.0,0.0,0.0,0.0,0.0,0.0,0.0,0.0,0.0,0.0,-3.0373,-3.0336,-3.0305,-3.0286,-3.0279,-3.026,-3.0218,-3.0164,-3.0326,-3.0753,-3.0701,-3.1069,-3.21,-3.2261,-3.2555,-3.314,-3.3321,-3.3393,-3.3393,-3.3393,-3.3393,-3.3393,-3.3393,-3.307,-3.2384,-3.2196,0.0,-3.0995,-3.0794,-3.063,-3.0506,-3.0506,-3.0506,-3.0506,-3.0506,-3.0506,-3.0506,-3.0506,-3.0506,-3.0506,-3.0506,-3.038,-3.0124,-2.9489,-2.8904,-2.8304,-2.766,-2.7207,-2.691,-2.6806,-2.6806,0.0,-2.6806,-2.6806,-2.6806,-2.6806,-2.6806,-2.6806,-2.6806,-2.6806,-2.6806,-2.6806,-2.6806,-2.6654,-2.6184,-2.6074,-2.573,-2.464,-2.5272,-2.5488,-2.4285,-2.4107,-2.3846,-2.3206,-2.3108,-2.3108,-2.3108,-2.3108,-2.3108,-2.3108,-2.2997,-2.2997,-2.3095,-2.2997,-2.2955,-2.2955,-2.2955,-2.2955,-2.2955,-2.2955,-2.2997,-2.3108,-2.358,-2.3888,-2.3987,-2.3777,-2.3948,0.0,0.0,0.0,0.0,0.0,0.0,0.0,0.0,0.0,0.0,0.0,-3.0367,-3.0379,0.0,-3.0367,-3.0379,-3.0373,-3.0349,-3.0299,-3.0292,-3.0286,-3.0218,-3.0211,-3.0529,-3.1316,-3.1359,-3.1805,-3.2917,-3.2962,-3.3088,-3.3375,-3.3393,-3.3393,-3.3393,-3.3393,-3.3393,-3.3393,-3.3393,-3.299,-3.2214,-3.2109,-3.1604,-3.081,-3.0651,-3.0551,-3.0506,-3.0506,-3.0506,-3.0506,-3.0506,-3.0506,-3.0506,-3.0506,-3.0506,-3.0506,-3.0401,-3.007,-2.9617,-2.8973,-2.8352,-2.7785,-2.7258,-2.6963,-2.6806,-2.6806,-2.6806,-2.6806,-2.6806,-2.6806,-2.6806,-2.6806,-2.6806,-2.6806,-2.6806,-2.6806,-2.6806,-2.6806,-2.6544,-2.6254,-2.5964,-2.5659,-2.5172,-2.4261,-2.4582,-2.4688,-2.3734,-2.3611,-2.347,-2.315,-2.3108,-2.3108,-2.3108,-2.3108,-2.3108,-2.3108,-2.3108,-2.3108,-2.3108,-2.3108,-2.3108,-2.3108,-2.3108,-2.3108,-2.3108,-2.3108,-2.2942,-2.2595,-2.3525,-2.3983,-2.3919,-2.4521,-2.4888,0.0,0.0,0.0,0.0,0.0,0.0,0.0,-3.0318,-3.0324,-3.0367,-3.0348,-3.0342,-3.0398,-3.0404,-3.0404,-3.0404,-3.0404,-3.038,-3.0318,-3.0292,-3.0286,-3.0218,-3.0338,-3.0844,-3.1897,-3.2137,-3.2608,-3.3519,-3.3591,-3.352,-3.3411,-3.3393,-3.3393,-3.3393,-3.3393,-3.3393,-3.3393,-3.3393,-3.2975,-3.2144,-3.2039,-3.1547,-3.0733,-3.0568,-3.0506,-3.0506,-3.0506,-3.0506,-3.0506,-3.0506,-3.0506,-3.0506,-3.0506,-3.0447,-3.0342,-3.0151,-2.9705,-2.9088,-2.8432,-2.7845,-2.7325,-2.6937,-2.6806,-2.6806,-2.6806,-2.6806,-2.6806,-2.6806,-2.6806,-2.6806,-2.6806,-2.6806,-2.6806,-2.6806,-2.6709,-2.664,-2.664,-2.6143,-2.5694,-2.557,-2.5175,-2.4632,-2.4,-2.3901,-2.3722,-2.3163,-2.3108,-2.3108,-2.3108,-2.3108,-2.3108,-2.3108,-2.3108,-2.3108,-2.3108,-2.3108,-2.3108,-2.3108,-2.3108,-2.3053,-2.2912,-2.301,-2.2967,-2.2705,-2.2845,-2.2595,-2.1904,-2.307,-2.3634,-2.3582,-2.4836,-2.5446,-3.0356,-3.0436,-3.043,-3.037,-3.0333,-3.0304,0.0,-3.033,-3.0299,-3.0304,-3.0348,-3.0398,-3.0404,-3.0404,-3.0404,-3.0404,-3.0404,-3.038,-3.0318,-3.0292,-3.0286,-3.0218,-3.0835,-3.1472,-3.1953,-3.2641,-3.3211,-3.3574,-3.3534,-3.3481,-3.3393,-3.3393,-3.3393,-3.3393,-3.3393,-3.3393,-3.3393,-3.3393,-3.3021,-3.2283,-3.2092,-3.162,-3.0871,-3.0609,-3.0506,-3.0506,-3.0506,-3.0506,-3.0506,-3.0506,-3.0506,-3.0506,-3.0506,-3.0258,-2.9859,-2.9733,-2.9473,-2.9065,-2.8103,-2.762,-2.7325,-2.6937,-2.6806,-2.6806,-2.6806,-2.6806,-2.6806,-2.6806,-2.6806,-2.6806,-2.6806,-2.6806,-2.6806,-2.6806,-2.6404,-2.6005,-2.6005,-2.5526,-2.494,-2.4402,-2.4253,-2.3987,-2.3316,-2.3206,-2.3206,-2.3108,-2.3108,-2.3108,-2.3108,-2.3108,-2.3108,-2.3108,-2.3108,-2.3108,-2.3108,-2.3108,-2.3108,-2.3108,-2.3108,-2.2845,-2.2249,-2.279,-2.254,-2.1368,-2.1904,-2.1862,-2.1218,-2.2054,-2.2564,-2.2777,-2.4172,-2.5281,-3.033,-3.0506,-3.0472,-3.0413,-3.0375,-3.0378,-3.0439,-3.0371,-3.0323,-3.0394,-3.0379,-3.0515,-3.1052,-3.0731,-3.0581,-3.1135,-3.0758,-3.039,-3.0364,-3.0323,-3.0458,-3.0842,-3.163,-3.2118,-3.2009,-3.2766,-3.3357,-3.3588,-3.3577,-3.3506,-3.3411,-3.3393,-3.3393,-3.3393,-3.3393,-3.3393,-3.3393,-3.3393,-3.2961,-3.2123,-3.205,-3.1539,-3.0671,-3.0568,-3.0506,-3.0506,-3.0506,-3.0506,-3.0506,-3.0506,-3.0506,-3.0485,-3.0371,-3.006,-2.9667,-2.9451,-2.8973,-2.836,-2.773,-2.7321,-2.7015,-2.6858,-2.6806,-2.6806,-2.6806,-2.6806,-2.6806,-2.6806,-2.6806,-2.6806,-2.6806,-2.6806,-2.6709,-2.6364,-2.6074,-2.5799,-2.545,-2.4902,-2.4392,-2.4141,-2.3777,-2.3427,-2.315,-2.3108,-2.3108,-2.3108,-2.3108,-2.3108,-2.3108,-2.3108,-2.3108,-2.3108,-2.3108,-2.3108,-2.3108,-2.3108,-2.3108,-2.3108,-2.2747,-2.24,-2.2109,-2.2008,-2.1675,-2.1104,-2.1389,-2.1273,-2.0751,-2.1781,-2.2227,-2.2104,-2.3419,-2.416,-3.0369,-3.0567,-3.0543,-3.0496,-3.0472,-3.0462,-3.0521,-3.0436,-3.0381,-3.051,-3.0439,-3.0587,-3.1265,-3.089,-3.0751,-3.1652,-3.1025,-3.0502,-3.07,-3.0675,-3.0828,-3.1358,-3.2394,-3.2904,-3.2485,-3.3135,-3.3569,-3.3606,-3.3563,-3.3491,-3.3411,-3.3393,-3.3393,-3.3393,-3.3393,-3.3393,-3.3393,-3.3288,-3.2849,-3.2067,-3.1901,-3.1401,-3.0609,-3.0531,-3.0506,-3.0506,-3.0506,-3.0506,-3.0506,-3.0506,-3.0506,-3.0485,-3.0276,-2.9896,-2.9361,-2.9065,-2.848,-2.779,-2.7372,-2.7041,-2.6806,-2.6806,-2.6806,-2.6806,-2.6806,-2.6806,-2.6806,-2.6806,-2.6806,-2.6806,-2.6806,-2.6695,-2.6433,-2.6005,-2.5637,-2.5273,-2.484,-2.4253,-2.3833,-2.3833,-2.3427,-2.3108,-2.3108,-2.3108,-2.3108,-2.3108,-2.3108,-2.3108,-2.3108,-2.3108,-2.3108,-2.3108,-2.3108,-2.3108,-2.3108,-2.3108,-2.301,-2.2845,-2.2358,-2.1946,-2.1575,-2.1264,-2.0937,-2.0556,-2.0717,-2.0621,-2.0235,-2.1165,-2.1541,-2.1386,-2.2506,-2.2966,-3.0691,-3.0681,-3.068,-3.0683,-3.0645,-3.058,-3.0597,-3.0544,-3.0511,-3.0589,-3.0597,-3.0591,-3.0637,-3.0605,-3.0851,-3.1671,-3.1071,-3.0753,-3.1456,-3.1518,-3.147,-3.1491,-3.2955,-3.3846,-3.359,-3.3984,-3.408,-3.3629,-3.3481,-3.3393,-3.3393,-3.3393,-3.3393,-3.3393,-3.3393,-3.3393,-3.3393,-3.3008,-3.2624,-3.2277,-3.1702,-3.1236,-3.0892,-3.063,-3.0506,-3.0506,-3.0506,-3.0506,-3.0506,-3.0506,-3.0506,-3.0485,-3.0276,-2.9675,-2.8881,-2.8472,-2.8055,-2.7625,-2.7011,-2.6806,-2.6806,-2.6806,-2.6806,-2.6806,-2.6806,-2.6806,-2.6806,-2.6806,-2.6806,-2.6806,-2.6806,-2.6364,-2.5909,-2.5895,-2.5006,-2.4133,-2.4129,-2.3611,-2.312,-2.312,-2.3108,-2.3108,-2.3108,-2.3108,-2.3108,-2.3108,-2.3108,-2.3108,-2.3108,-2.3108,-2.3108,-2.3108,-2.3108,-2.3108,-2.3108,-2.3108,-2.2815,-2.2164,-2.2109,-2.1525,-2.0215,-2.0753,-2.05,-1.9187,-1.9796,-1.9939,-1.9533,-1.9775,-2.0091,-2.0557,-2.1435,-2.1945,-3.0005,-3.0264,-3.0703,-3.069,-3.068,-3.0665,-3.0668,-3.0602,-3.0591,-3.0657,-3.0599,-3.0722,-3.1359,-3.1467,-3.1769,-3.2645,-3.2466,-3.2314,-3.255,-3.2511,-3.2607,-3.3104,-3.367,-3.4113,-3.4434,-3.4402,-3.4237,-3.3895,-3.3619,-3.3452,-3.3393,-3.3393,-3.3393,-3.3393,-3.3393,-3.3393,-3.3393,-3.3008,-3.2563,-3.2089,-3.1213,-3.0741,-3.063,-3.0547,-3.0506,-3.0506,-3.0506,-3.0506,-3.0489,-3.0153,-3.005,-2.9996,-2.9417,-2.8814,-2.821,-2.7936,-2.7519,-2.7074,-2.6884,-2.6806,-2.6806,-2.6806,-2.6806,-2.6806,-2.6806,-2.6806,-2.6806,-2.6806,-2.6806,-2.6806,-2.6806,-2.6349,-2.5799,-2.539,-2.4698,-2.3987,-2.3525,-2.3261,-2.3108,-2.3108,-2.3108,-2.3108,-2.3108,-2.3108,-2.3248,-2.3636,-2.3359,-2.3108,-2.3108,-2.3108,-2.3108,-2.3108,-2.3108,-2.2912,-2.2455,-2.2443,-2.2152,-2.1476,-2.1026,-2.0586,-2.0115,-1.9763,-1.9348,-1.8913,-1.9011,-1.9206,-1.9577,-1.9637,-1.9984,-2.0557,-2.0868,-2.1024,-2.9593,-2.9827,-3.0237,-3.0237,-3.0474,-3.0694,-3.0694,-3.0665,-3.0653,-3.0717,-3.0678,-3.0882,-3.1807,-3.1973,-3.2367,-3.3568,-3.3436,-3.3254,-3.3456,-3.3417,-3.3525,-3.3953,-3.4254,-3.4577,-3.4971,-3.4619,-3.4259,-3.4012,-3.3666,-3.3452,-3.3393,-3.3393,-3.3393,-3.3393,-3.3393,-3.3393,-3.3393,-3.2816,-3.2202,-3.1533,-3.0879,-3.0559,-3.0506,-3.0506,-3.0506,-3.0506,-3.0506,-3.0506,-3.0472,-2.9926,-2.9723,-2.9647,-2.885,-2.8252,-2.7798,-2.7612,-2.7236,-2.6806,-2.6806,-2.6806,-2.6806,-2.6806,-2.6806,-2.6806,-2.6806,-2.6806,-2.6765,-2.6529,-2.6474,-2.6419,-2.6199,-2.5716,-2.5172,-2.478,-2.4197,-2.3623,-2.3206,-2.3108,-2.3108,-2.3108,-2.3108,-2.3108,-2.3108,-2.3273,-2.3568,-2.3944,-2.3828,-2.3717,-2.3725,-2.3525,-2.3414,-2.3414,-2.3218,-2.2845,-2.2152,-2.2108,-2.1721,-2.0802,-2.0346,-1.9993,-1.9752,-1.9152,-1.879,-1.8795,-1.8761,-1.9034,-1.9593,-1.9732,-2.0091,-2.0605,-2.0605,-2.0605,-2.9408,-2.9383,-2.9394,-2.9392,-3.0058,-3.0697,-3.0694,-3.0694,-3.0714,-3.0794,-3.0792,-3.1076,-3.1932,-3.2147,-3.269,-3.433,-3.3943,-3.3621,-3.4202,-3.4268,-3.4218,-3.4091,-3.474,-3.5209,-3.5209,-3.4661,-3.4226,-3.4034,-3.362,-3.3393,-3.3393,-3.3393,-3.3393,-3.3393,-3.3393,-3.3393,-3.3393,-3.2532,-3.1635,-3.0701,-3.0701,-3.063,-3.0506,-3.0506,-3.0506,-3.0506,-3.0506,-3.0506,-3.0435,-2.9839,-2.9566,-2.9485,-2.8596,-2.8,-2.7651,-2.744,-2.7128,-2.6806,-2.6806,-2.6806,-2.6806,-2.6806,-2.6806,-2.6806,-2.6806,-2.6779,-2.664,-2.606,-2.5885,-2.571,-2.5149,-2.455,-2.4096,-2.4109,-2.358,-2.3108,-2.3108,-2.3108,-2.3108,-2.3108,-2.3108,-2.3108,-2.3108,-2.3619,-2.4004,-2.4042,-2.45,-2.4837,-2.4818,-2.4365,-2.4016,-2.3987,-2.3457,-2.2802,-2.2097,-2.2002,-2.1452,-2.0136,-2.0048,-1.9752,-1.9108,-1.888,-1.8774,-1.8795,-1.9026,-1.9308,-1.9634,-2.0011,-2.0343,-2.0605,-2.0605,-2.0605,-2.7981,-2.8535,-2.9466,-2.9418,-3.0066,-3.0692,-3.0704,-3.0694,-3.0724,-3.079,-3.0807,-3.1079,-3.1933,-3.2637,-3.3415,-3.4507,-3.4999,-3.5278,-3.5387,-3.5262,-3.514,-3.5056,-3.5136,-3.5209,-3.5209,-3.4802,-3.4448,-3.4244,-3.3715,-3.3393,-3.3393,-3.3393,-3.3393,-3.3393,-3.3393,-3.3393,-3.3393,-3.2476,-3.1585,-3.0701,-3.0593,-3.0543,-3.0506,-3.0506,-3.0506,-3.0506,-3.0506,-3.0506,-3.0418,-2.9575,-2.9173,-2.8992,-2.8007,-2.7432,-2.7176,-2.7111,-2.6974,-2.6806,-2.6806,-2.6806,-2.6806,-2.6806,-2.6806,-2.6806,-2.6806,-2.6488,-2.6115,-2.595,-2.5578,-2.5188,-2.5034,-2.4532,-2.4093,-2.4094,-2.358,-2.3108,-2.3108,-2.3108,-2.3108,-2.3108,-2.3108,-2.3108,-2.3108,-2.3598,-2.4137,-2.4537,-2.5044,-2.5249,-2.4837,-2.4693,-2.4364,-2.3758,-2.3304,-2.251,-2.123,-2.0807,-2.0235,-1.9425,-1.9206,-1.9054,-1.888,-1.8598,-1.8556,-1.8873,-1.8795,-1.9113,-1.9808,-1.9928,-2.0188,-2.0605,-2.0605,-2.0605,-2.7831,-2.8238,-2.891,-2.8881,-2.9797,-3.0694,-3.0703,-3.0703,-3.0716,-3.0781,-3.0795,-3.1074,-3.1943,-3.281,-3.3672,-3.4511,-3.5365,-3.5864,-3.5737,-3.5626,-3.5483,-3.5328,-3.5246,-3.5209,-3.5209,-3.4849,-3.4527,-3.4328,-3.3827,-3.3498,-3.3393,-3.3393,-3.3393,-3.3393,-3.3393,-3.3201,-3.2798,-3.2193,-3.1458,-3.0613,-3.0543,-3.0506,-3.0506,-3.0506,-3.0506,-3.0506,-3.0506,-3.0506,-3.0418,-2.9349,-2.8844,-2.8669,-2.7553,-2.7056,-2.6905,-2.6905,-2.6875,-2.6806,-2.6806,-2.6806,-2.6806,-2.6806,-2.6806,-2.675,-2.6488,-2.6184,-2.5794,-2.5246,-2.4887,-2.4533,-2.4253,-2.3901,-2.3666,-2.3666,-2.3371,-2.3108,-2.3108,-2.3108,-2.3108,-2.3108,-2.3108,-2.3172,-2.3449,-2.3977,-2.453,-2.5076,-2.5623,-2.577,-2.5096,-2.4802,-2.4455,-2.3908,-2.312,-2.2088,-2.0676,-2.0292,-1.9851,-1.9196,-1.9054,-1.9062,-1.9241,-1.9019,-1.8975,-1.9223,-1.9177,-1.9403,-1.9888,-2.0091,-2.0343,-2.0605,-2.0605,-2.0605,-2.8161,-2.8163,-2.8202,-2.8204,-2.9466,-3.0711,-3.0704,-3.0694,-3.0721,-3.0798,-3.0799,-3.1099,-3.2097,-3.2896,-3.3708,-3.4629,-3.5415,-3.5846,-3.5647,-3.559,-3.5507,-3.5254,-3.5211,-3.5209,-3.5209,-3.4868,-3.4549,-3.4319,-3.3951,-3.364,-3.3411,-3.3393,-3.3393,-3.3324,-3.3306,-3.2859,-3.193,-3.1751,-3.1262,-3.0506,-3.0506,-3.0506,-3.0506,-3.0506,-3.0506,-3.0506,-3.0506,-3.0506,-3.0418,-2.9209,-2.8677,-2.8495,-2.728,-2.682,-2.6806,-2.6806,-2.6806,-2.6806,-2.6806,-2.6806,-2.6806,-2.6806,-2.6806,-2.6695,-2.6074,-2.5849,-2.5548,-2.4433,-2.4043,-2.3833,-2.3261,-2.3108,-2.3108,-2.3108,-2.3108,-2.3108,-2.3108,-2.3108,-2.3108,-2.3108,-2.3108,-2.3292,-2.3899,-2.4355,-2.4822,-2.5357,-2.5955,-2.6042,-2.5253,-2.4846,-2.4461,-2.4067,-2.2924,-2.1642,-2.0392,-2.0181,-1.9908,-1.9336,-1.9274,-1.9404,-1.9761,-1.9624,-1.9579,-1.9637,-1.983,-1.9936,-1.9984,-2.0401,-2.0605,-2.0605,-2.0605,-2.0605,-2.742,-2.7732,-2.8261,-2.8207,-2.9504,-3.0767,-3.0713,-3.0694,-3.0726,-3.0781,-3.0795,-3.1291,-3.287,-3.33,-3.3928,-3.5504,-3.5838,-3.5874,-3.5785,-3.5612,-3.5478,-3.5374,-3.5269,-3.5209,-3.5209,-3.4983,-3.4703,-3.4323,-3.4086,-3.3796,-3.3411,-3.3393,-3.3237,-3.2903,-3.2849,-3.2386,-3.1494,-3.1409,-3.1087,-3.0506,-3.0506,-3.0506,-3.0506,-3.0506,-3.0506,-3.0506,-3.0506,-3.0506,-3.0418,-2.9333,-2.8791,-2.8573,-2.7416,-2.689,-2.6806,-2.6806,-2.6806,-2.6806,-2.6806,-2.6806,-2.6806,-2.6806,-2.6806,-2.6695,-2.6074,-2.555,-2.5017,-2.4318,-2.3692,-2.3261,-2.312,-2.3108,-2.3108,-2.3108,-2.3108,-2.3108,-2.3108,-2.3108,-2.3108,-2.3108,-2.3108,-2.3278,-2.3917,-2.3911,-2.4005,-2.4609,-2.5151,-2.5206,-2.4406,-2.4798,-2.4671,-2.3366,-2.2485,-2.1655,-2.0777,-2.0189,-1.9823,-1.9711,-1.9602,-1.9563,-1.9611,-1.9438,-1.9521,-1.9839,-1.9888,-2.0091,-2.0498,-2.0557,-2.0605,-2.0605,-2.0605,-2.0605,-2.8474,-2.8666,-2.8962,-2.8894,-2.9841,-3.0796,-3.0762,0.0,0.0,-3.0791,-3.1163,-3.1734,-3.2564,-3.3454,-3.433,-3.5145,-3.5625,-3.6004,-3.6278,-3.585,-3.5621,-3.5938,-3.551,-3.5209,-3.5209,-3.5029,-3.4734,-3.4341,-3.4121,-3.3814,-3.3411,-3.3393,-3.3306,-3.3114,-3.274,-3.2282,-3.1726,-3.1345,-3.0929,-3.0506,-3.0506,-3.0506,-3.0506,-3.0506,-3.0506,-3.0506,-3.0506,-3.0348,-3.005,-2.9123,-2.855,-2.8203,-2.7252,-2.6875,-2.6806,-2.6806,-2.6806,-2.6806,-2.6806,-2.6584,-2.6349,-2.6349,-2.6349,-2.6225,-2.5621,-2.5021,-2.4408,-2.3777,-2.3359,-2.3108,-2.3108,-2.3108,-2.3108,-2.3108,-2.3108,-2.3108,-2.3108,-2.3108,-2.3108,-2.3108,-2.3346,-2.3766,-2.433,-2.4226,-2.428,-2.482,-2.4779,-2.4348,-2.3489,-2.3722,-2.3616,-2.2778,-2.1935,-2.1151,-2.0401,-2.0032,-1.9847,-1.9847,-1.9774,-1.9878,-2.0091,-2.0033,-2.0081,-2.0246,-2.0246,-2.0391,-2.0605,-2.0605,-2.0605,-2.0605,-2.0605,-2.0605,-2.9606,-2.9603,-2.9586,-2.952,-3.0156,-3.08,-3.08,-3.0751,-3.0742,-3.0792,-3.1488,-3.2155,-3.2348,-3.3645,-3.471,-3.4849,-3.5617,-3.631,-3.6732,-3.6206,-3.5969,-3.6446,-3.5723,-3.5209,-3.5209,-3.5029,-3.4734,-3.4341,-3.4034,-3.3727,-3.3411,-3.3393,-3.336,-3.327,-3.2651,-3.2173,-3.1863,-3.1229,-3.0771,-3.0506,-3.0506,-3.0506,-3.0506,-3.0506,-3.0506,-3.0489,-3.0402,-3.0137,-2.9732,-2.8823,-2.8225,-2.7838,-2.7071,-2.6806,-2.6806,-2.6806,-2.6806,-2.6806,-2.6806,-2.6404,-2.5885,-2.5901,-2.5813,-2.5597,-2.498,-2.4486,-2.3944,-2.3304,-2.3108,-2.3108,-2.3108,-2.3108,-2.3108,-2.3108,-2.3108,-2.3108,-2.3108,-2.3195,-2.3246,-2.3133,-2.3672,-2.4274,-2.468,-2.4439,-2.434,-2.485,-2.4228,-2.3415,-2.251,-2.2472,-2.2435,-2.2107,-2.1377,-2.0712,-2.0168,-2.0081,-2.0042,-2.0042,-2.0042,-2.0236,-2.0595,-2.0605,-2.0605,-2.0605,-2.0605,-2.0605,-2.0605,-2.0605,-2.0605,-2.0605,-2.0605,-2.0605,-2.9606,-2.9605,-2.9589,-2.9519,-3.0156,-3.08,-3.08,0.0,-3.0799,-3.0794,-3.1496,-3.2344,-3.3127,-3.4009,-3.4869,-3.5658,-3.6509,-3.7009,-3.6837,-3.6719,-3.6637,-3.6512,-3.5723,-3.5209,-3.5209,-3.5029,-3.4734,-3.4341,-3.3787,-3.3429,-3.3393,-3.3393,-3.3219,-3.2867,-3.2328,-3.1845,-3.1458,-3.0858,-3.0543,-3.0506,-3.0506,-3.0506,-3.0506,-3.0506,-3.0506,-3.0489,-3.005,-2.9839,-2.9697,-2.8466,-2.7935,-2.7838,-2.7071,-2.6806,-2.6806,-2.6806,-2.6806,-2.6806,-2.6806,-2.6404,-2.5895,-2.5908,-2.5519,-2.4977,-2.4355,-2.4154,-2.3944,-2.3304,-2.3108,-2.3108,-2.3108,-2.3108,-2.3108,-2.3108,-2.3108,-2.3108,-2.3108,-2.3521,-2.3766,-2.3208,-2.3973,-2.4693,-2.4536,-2.3761,-2.3251,-2.3593,-2.301,-2.2258,-2.1425,-2.1766,-2.1794,-2.1128,-2.0945,-2.0867,-2.0809,-2.0634,-2.0547,-2.0547,-2.0547,-2.0557,-2.0605,-2.0605,-2.0605,-2.0605,-2.0605,-2.0605,-2.0605,-2.0605,-2.0605,-2.0605,-2.0605,-2.0605,-3.0388,-3.0386,-3.037,-3.0301,-3.0537,-3.0796,-3.0804,-3.0795,-3.0956,-3.1478,-3.228,-3.3145,-3.3972,-3.4803,-3.5502,-3.5889,-3.6223,-3.6723,-3.7585,-3.7249,-3.7023,-3.7302,-3.6605,-3.5865,-3.5267,-3.4907,-3.451,-3.3978,-3.3609,-3.3393,-3.3393,-3.3393,-3.3324,-3.3183,-3.2415,-3.191,-3.1742,-3.0929,-3.0506,-3.0506,-3.0506,-3.0506,-3.0489,-3.0207,-3.0067,-3.005,-2.9575,-2.915,-2.8724,-2.8155,-2.7686,-2.7308,-2.6945,-2.6806,-2.6806,-2.6806,-2.6806,-2.6806,-2.6806,-2.6184,-2.5359,-2.5365,-2.4672,-2.3898,-2.4064,-2.3833,-2.3427,-2.3163,-2.3108,-2.3108,-2.3108,-2.3108,-2.3108,-2.3108,-2.3108,-2.3195,-2.3547,-2.3841,-2.4029,-2.4098,-2.4738,-2.5231,-2.5033,-2.4153,-2.3483,-2.3492,-2.2472,-2.153,-2.1099,-2.1195,-2.1185,-2.077,-2.0731,-2.0731,-2.0731,-2.0644,-2.0605,-2.0605,-2.0605,-2.0605,-2.0605,-2.0605,-2.0605,-2.0605,-2.0605,-2.0605,-2.0605,-2.0605,-2.0605,-2.0605,-2.0605,-2.0605,-3.0895,-3.0894,-3.0877,-3.0815,-3.0798,-3.08,-3.0793,-3.0994,-3.1365,-3.1969,-3.2991,-3.3957,-3.4503,-3.5312,-3.5926,-3.5965,-3.636,-3.7044,-3.8147,-3.8,-3.7905,-3.8241,-3.7552,-3.6662,-3.5684,-3.4936,-3.4285,-3.3746,-3.3516,-3.3393,-3.3393,-3.3288,-3.3219,-3.3219,-3.231,-3.1823,-3.1813,-3.0946,-3.0506,-3.0506,-3.0506,-3.0506,-3.0489,-2.9996,-2.9793,-2.977,-2.9153,-2.8576,-2.8087,-2.7799,-2.7421,-2.7001,-2.6835,-2.6806,-2.6806,-2.6806,-2.6806,-2.6765,-2.6599,-2.5854,-2.4977,-2.4805,-2.3987,-2.3206,-2.3666,-2.347,-2.3108,-2.3108,-2.3108,-2.3108,-2.3108,-2.3108,-2.3108,-2.3108,-2.3108,-2.3221,-2.3653,-2.3879,-2.4067,-2.423,-2.4923,-2.5382,-2.4966,-2.419,-2.3551,-2.3379,-2.2031,-2.0964,-2.0819,-2.0819,-2.078,-2.0605,-2.0605,-2.0605,-2.0605,-2.0605,-2.0605,-2.0605,-2.0605,-2.0605,-2.0605,-2.0605,-2.0605,-2.0605,-2.0605,-2.0605,-2.0605,-2.0605,-2.0605,-2.0605,-2.0605,-2.0674,-3.0873,-3.0894,-3.0876,-3.082,-3.0801,-3.0801,-3.0801,-3.1464,-3.209,-3.2108,-3.3473,-3.4662,-3.4606,-3.5312,-3.5898,-3.5908,-3.7342,-3.8436,-3.8318,-3.902,-3.949,-3.9214,-3.8426,-3.7518,-3.6586,-3.5168,-3.4146,-3.3727,-3.3516,-3.3393,-3.3393,-3.3008,-3.2816,-3.2816,-3.1909,-3.1405,-3.1408,-3.0804,-3.0506,-3.0506,-3.0506,-3.0506,-3.0489,-2.9996,-2.9804,-2.9734,-2.8743,-2.8238,-2.8037,-2.7458,-2.7126,-2.7001,-2.6835,-2.6806,-2.6806,-2.6806,-2.6806,-2.6709,-2.6129,-2.5512,-2.4908,-2.4318,-2.3636,-2.3108,-2.3108,-2.3108,-2.3108,-2.3108,-2.3108,-2.3108,-2.3108,-2.3108,-2.3108,-2.3108,-2.3108,-2.3108,-2.3108,-2.359,-2.3779,-2.3063,-2.4206,-2.5015,-2.4176,-2.3559,-2.3158,-2.3032,-2.1652,-2.0605,-2.0605,-2.0605,-2.0605,-2.0605,-2.0605,-2.0605,-2.0605,-2.0605,-2.0605,-2.0605,-2.0605,-2.0605,-2.0605,-2.0605,-2.0605,-2.0605,-2.0605,-2.0605,-2.0605,-2.0605,-2.0605,-2.0605,-2.0605,-2.0801,-3.0873,-3.0894,-3.0876,-3.082,-3.0798,-3.0951,-3.1543,-3.1893,-3.2433,-3.3632,-3.4316,-3.4856,-3.5398,-3.5716,-3.6095,-3.6689,-3.7243,-3.8005,-3.9091,-3.9419,-3.9257,-3.853,-3.6986,-3.5727,-3.5059,-3.4537,-3.4025,-3.3535,-3.3429,-3.3393,-3.3393,-3.231,-3.2054,-3.2772,-3.1877,-3.1397,-3.1387,-3.0804,-3.0506,-3.0506,-3.0506,-3.0506,-3.0472,-2.9683,-2.9304,-2.9281,-2.8268,-2.7695,-2.7464,-2.7277,-2.7071,-2.6875,-2.682,-2.6806,-2.675,-2.6349,-2.6184,-2.6115,-2.5497,-2.4888,-2.4342,-2.4158,-2.3636,-2.3108,-2.3108,-2.3108,-2.3108,-2.3108,-2.3108,-2.3108,-2.3108,-2.3108,-2.3108,-2.3108,-2.3108,-2.3208,-2.364,-2.3866,-2.4023,-2.416,-2.4406,-2.4424,-2.4006,-2.3053,-2.2328,-2.2209,-2.128,-2.0605,-2.0605,-2.0605,-2.0605,-2.0605,-2.0605,-2.0605,-2.0605,-2.0605,-2.0605,-2.0605,-2.0605,-2.0605,-2.0605,-2.0605,-2.0605,-2.0605,-2.0605,-2.0605,-2.0605,-2.0605,-2.0605,-2.0615,-2.0879,-2.126,0.0,-3.0894,-3.0875,-3.0817,-3.1046,-3.143,-3.1988,-3.2608,-3.3399,-3.4472,-3.4932,-3.5305,-3.5819,-3.5896,-3.6072,-3.6612,-3.723,-3.8001,-3.8999,-3.9636,-3.9619,-3.8638,-3.6684,-3.5265,-3.4821,-3.434,-3.3869,-3.3429,-3.3393,-3.327,-3.2972,-3.184,-3.1365,-3.1728,-3.0862,-3.0379,-3.0385,-3.0191,-3.0067,-3.0104,-3.0365,-3.0506,-3.0472,-2.9543,-2.9093,-2.9042,-2.8032,-2.746,0.0,-2.7207,-2.7056,-2.6806,-2.6806,-2.6806,-2.6724,-2.6129,-2.5887,-2.5772,-2.4942,-2.4394,-2.4056,-2.379,-2.3427,-2.3108,-2.3108,-2.3108,-2.3108,-2.3108,-2.3108,-2.3108,-2.3108,-2.3108,-2.3108,-2.3108,-2.3108,-2.3195,-2.359,-2.3418,-2.3287,-2.3524,-2.3435,-2.3225,-2.3017,-2.2389,-2.1897,-2.1794,-2.1126,-2.0605,-2.0605,-2.0605,-2.0605,-2.0605,-2.0605,-2.0605,-2.0605,-2.0605,-2.0605,-2.0605,-2.0605,-2.0605,-2.0605,-2.0605,-2.0605,-2.0605,-2.0605,-2.0605,-2.0605,-2.0605,-2.0605,-2.0615,-2.1191,-2.1621,0.0,-3.0933,-3.0971,-3.0901,-3.1504,-3.213,-3.2267,-3.3495,0.0,-3.4766,-3.5373,-3.5899,-3.5899,-3.5898,-3.5901,-3.5978,-3.7301,-3.8281,-3.8214,-3.9538,-4.0137,-3.9125,-3.7168,-3.5816,-3.5539,-3.4479,-3.3709,-3.3411,-3.3393,-3.3027,-3.2205,-3.1502,-3.0729,-2.9917,-2.9018,-2.8583,-2.869,-2.9124,-2.9346,-2.9403,-3.0104,-3.0418,-3.0418,-2.9505,-2.9077,-2.8986,-2.8017,-2.746,-2.7214,-2.7207,-2.7056,-2.6806,-2.675,-2.675,-2.6654,-2.6005,-2.5758,-2.5608,-2.4421,-2.4043,-2.3931,-2.3304,-2.3108,-2.3108,-2.3108,-2.3108,-2.3108,-2.3108,-2.3108,-2.3108,-2.3108,-2.3108,-2.3108,-2.3078,-2.3078,-2.3078,-2.3017,-2.2439,-2.1874,-2.1612,-2.1675,-2.1699,-2.1525,-2.1607,-2.1728,-2.1728,-2.1088,-2.0605,-2.0605,-2.0605,-2.0605,-2.0605,-2.0605,-2.0605,-2.0605,-2.0605,-2.0605,-2.0605,-2.0605,-2.0605,-2.0605,-2.0605,-2.0605,-2.0605,-2.0605,-2.0605,-2.0605,-2.0605,-2.0605,-2.0625,-2.1475,-2.1885,-3.0895,0.0,-3.181,-3.18,-3.1953,-3.2442,0.0,-3.3886,-3.406,-3.5349,0.0,-3.5902,-3.5902,-3.5866,-3.6036,-3.6705,-3.7143,-3.7594,-3.8132,-3.7886,-3.7521,-3.7176,-3.5964,-3.5011,-3.4627,-3.4211,-3.3796,-3.3429,-3.3393,-3.294,-3.1873,-3.0889,-2.9851,-2.8731,-2.7623,-2.7546,-2.8688,-2.8652,-2.889,-2.9403,-2.9575,-2.9769,-2.9926,-2.9349,-2.8882,-2.845,-2.7851,-2.746,-2.7214,-2.7207,-2.7056,-2.675,-2.6294,-2.6115,-2.5964,-2.4912,-2.4514,-2.4421,-2.3623,-2.3359,-2.3316,-2.315,-2.3108,-2.3108,-2.3108,-2.3108,-2.3108,-2.3108,-2.3108,-2.3108,-2.3108,-2.3108,-2.3078,-2.2969,-2.2939,-2.2775,-2.2094,-2.2092,-2.2022,-2.1402,-2.1315,-2.1333,-2.1296,-2.1046,-2.0867,-2.0867,-2.0712,-2.0605,-2.0605,-2.0605,-2.0605,-2.0605,-2.0605,-2.0605,-2.0605,-2.0605,-2.0605,-2.0605,-2.0605,-2.0605,-2.0605,-2.0605,-2.0605,-2.0605,-2.0605,-2.0605,-2.0605,-2.0605,-2.0605,-2.0625,-2.1475,-2.1885,-3.1346,-3.1774,-3.2102,-3.2093,-3.2696,-3.3535,-3.4472,0.0,0.0,0.0,0.0,0.0,-3.5892,-3.5824,-3.5917,-3.6412,-3.676,-3.722,-3.7963,-3.7225,-3.6559,-3.6417,-3.5436,-3.4634,-3.4293,-3.4012,-3.3727,-3.3411,-3.3059,-3.236,-3.1213,-3.0118,-2.9009,-2.7844,-2.6944,-2.6856,-2.7578,-2.78,-2.8246,-2.8935,-2.9022,-2.9333,-2.9781,-2.907,-2.8575,-2.8268,-2.7795,-2.746,-2.7214,-2.7207,-2.7056,-2.6765,-2.6433,-2.6138,-2.5785,-2.487,-2.4347,-2.4,-2.3316,-2.3108,-2.3108,-2.3108,-2.3108,-2.3108,-2.3108,-2.3108,-2.3108,-2.3108,-2.3108,-2.3108,-2.3108,-2.3108,-2.3078,-2.3017,-2.2939,-2.2684,-2.1908,-2.1739,-2.1496,-2.0739,-2.0609,-2.0592,-2.0592,-2.0428,-2.0332,-2.0576,-2.0429,-2.038,-2.0576,-2.0605,-2.0605,-2.0605,-2.0605,-2.0605,-2.0605,-2.0605,-2.0605,-2.0605,-2.0605,-2.0605,-2.0605,-2.0605,-2.0605,-2.0605,-2.0605,-2.0605,-2.0605,-2.0605,-2.0605,-2.0625,-2.1475,-2.1885,-3.1874,-3.2204,-3.2337,-3.2466,-3.3614,-3.4726,-3.4864,0.0,0.0,0.0,0.0,0.0,0.0,-3.5795,-3.5729,-3.5797,-3.6242,-3.6808,-3.7402,-3.6769,-3.6202,-3.6102,-3.5192,-3.447,-3.4226,-3.3787,-3.3444,-3.3227,-3.2418,-3.1464,-3.0332,-2.935,-2.8304,-2.7148,-2.6703,-2.6441,-2.6304,-2.6846,-2.7476,-2.8142,-2.8405,-2.8837,-2.9394,-2.8633,-2.8268,-2.8157,-2.7765,-2.7419,-2.7214,-2.7166,-2.696,-2.6654,-2.6654,-2.6231,-2.5563,-2.505,-2.4477,-2.3876,-2.3304,-2.3108,-2.3108,-2.3108,-2.3108,-2.3108,-2.3108,-2.3108,-2.3108,-2.3108,-2.3108,-2.3108,-2.3108,-2.3108,-2.3078,-2.3078,-2.2969,-2.2684,-2.1982,-2.1409,-2.0836,-2.012,-1.9988,-2.0019,-2.0019,-2.0019,-2.0137,-2.0546,-2.0254,-2.0146,-2.0556,-2.0605,-2.0605,-2.0605,-2.0605,-2.0605,-2.0605,-2.0605,-2.0605,-2.0605,-2.0605,-2.0605,-2.0605,-2.0605,-2.0605,-2.0605,-2.0605,-2.0605,-2.0605,-2.0605,-2.0605,-2.0625,-2.1406,-2.1816,-3.1874,-3.2635,-3.3375,-3.4112,-3.4497,-3.4881,-3.5623,0.0,0.0,0.0,0.0,0.0,0.0,-3.5797,-3.5793,-3.5791,-3.5701,-3.5614,-3.5611,-3.5346,-3.5135,-3.5126,-3.4768,-3.442,-3.422,-3.3277,-3.2605,-3.2409,-3.1374,-3.0302,-2.9201,-2.8717,-2.7929,-2.6725,-2.6571,-2.643,-2.6304,-2.6355,-2.6542,-2.6879,-2.7472,-2.7744,-2.7707,-2.8112,-2.8087,-2.771,-2.7515,-2.7349,-2.7174,-2.7096,-2.664,-2.6033,-2.6033,-2.5355,-2.4381,-2.4259,-2.3833,-2.3248,-2.315,-2.3108,-2.3108,-2.3108,-2.3108,-2.3108,-2.3108,-2.3108,-2.3108,-2.3108,-2.3108,-2.3108,-2.3108,-2.3108,-2.3078,-2.2969,-2.283,-2.2482,-2.1671,-2.1385,-2.114,-2.0392,-2.0386,-2.0507,-2.0507,-2.0507,-2.0527,-2.0595,-2.0546,-2.0527,-2.0595,-2.0605,-2.0605,-2.0605,-2.0605,-2.0605,-2.0605,-2.0605,-2.0605,-2.0605,-2.0605,-2.0605,-2.0605,-2.0605,-2.0605,-2.0605,-2.0605,-2.0605,-2.0605,-2.0605,-2.0605,-2.0615,-2.1094,-2.1533,-3.2461,-3.3085,-3.3728,-3.5076,-3.539,-3.5507,-3.5918,-3.5635,0.0,0.0,0.0,0.0,0.0,-3.5713,-3.5596,-3.5457,-3.535,-3.522,-3.506,-3.4963,-3.486,-3.4691,-3.4583,-3.4183,-3.3363,-3.28,-3.2227,-3.1601,-3.0653,-2.9766,-2.895,-2.8267,-2.7504,-2.6623,-2.6453,-2.6347,-2.6304,-2.5989,-2.6089,-2.6615,-2.7015,-2.7249,-2.7294,-2.7725,-2.7795,-2.76,-2.753,-2.7393,-2.7211,-2.7146,-2.682,-2.6342,-2.6022,-2.5369,-2.4518,-2.3809,-2.3359,-2.3108,-2.3108,-2.3108,-2.3108,-2.3108,-2.3108,-2.3108,-2.3108,-2.3108,-2.3108,-2.3108,-2.3108,-2.3108,-2.3108,-2.3108,-2.3078,-2.3017,-2.2848,-2.2482,-2.1671,-2.1261,-2.0866,-2.0384,-2.0249,-2.0283,-2.0566,-2.041,-2.0293,-2.0566,-2.0361,-2.0303,-2.0576,-2.0605,-2.0605,-2.0605,-2.0605,-2.0605,-2.0605,-2.0605,-2.0605,-2.0605,-2.0605,-2.0605,-2.0605,-2.0605,-2.0605,-2.0605,-2.0605,-2.0527,-2.0459,-2.0459,-2.0498,-2.0611,-2.0993,-2.1425,-3.2715,-3.3125,-3.3476,-3.5019,0.0,-3.5749,-3.5958,-3.5799,0.0,0.0,0.0,0.0,-3.5795,-3.5644,-3.5432,-3.5207,-3.5155,-3.5058,-3.4908,-3.4802,-3.4615,-3.4214,-3.4251,-3.3752,-3.2355,-3.2172,-3.1723,-3.0681,-2.9814,-2.9069,-2.8527,-2.7759,-2.7096,-2.6621,-2.6435,-2.633,-2.6307,-2.5762,-2.5776,-2.6348,-2.661,-2.6835,-2.706,-2.7419,-2.76,-2.76,-2.7585,-2.7431,-2.719,-2.7153,-2.6931,-2.6525,-2.607,-2.5459,-2.4641,-2.3531,-2.3108,-2.3108,-2.3108,-2.3108,-2.3108,-2.3108,-2.3108,-2.3108,-2.3108,-2.3108,-2.3108,-2.3108,-2.3108,-2.3108,-2.3108,-2.3078,-2.3017,-2.2854,-2.2592,-2.2192,-2.1459,-2.0852,-2.0405,-2.0207,-2.0019,-2.0019,-2.0352,-2.0225,-2.0185,-2.0556,-2.0283,-2.0185,-2.0556,-2.0605,-2.0605,-2.0605,-2.0605,-2.0605,-2.0605,-2.0605,-2.0605,-2.0605,-2.0605,-2.0605,-2.0605,-2.0605,-2.0605,-2.0605,-2.0605,-2.0527,-2.0381,-2.0381,-2.0486,-2.0747,-2.1021,-2.1408,-3.2031,-3.2285,-3.25,-3.3379,-3.4199,0.0,-3.5814,-3.5328,0.0,-3.5727,0.0,-3.5795,-3.5795,-3.5635,-3.5469,-3.5391,-3.5114,-3.4889,-3.4829,-3.4539,-3.406,-3.3276,-3.3536,-3.313,-3.1541,-3.1219,-3.0631,-2.9511,-2.846,-2.77,-2.7332,-2.6959,-2.6708,-2.6606,-2.6537,-2.6434,-2.6295,-2.5758,-2.5531,-2.5571,-2.6044,-2.6249,-2.6304,-2.721,-2.76,-2.7585,-2.7475,-2.7338,-2.7196,-2.7076,-2.6599,-2.5954,-2.5936,-2.52,-2.4087,-2.3357,-2.3108,-2.3108,-2.3108,-2.3108,-2.3108,-2.3108,-2.3108,-2.3108,-2.3108,-2.3108,-2.3108,-2.3108,-2.3108,-2.3108,-2.3108,-2.3017,-2.2757,-2.2137,-2.1733,-2.1282,-2.0558,-2.0068,-1.9782,-1.9744,-1.9809,-1.9922,-1.9951,-2.0273,-2.0566,-2.0595,-2.0576,-2.0566,-2.0595,-2.0605,-2.0605,-2.0605,-2.0605,-2.0605,-2.0605,-2.0605,-2.0605,-2.0605,-2.0605,-2.0605,-2.0605,-2.0605,-2.0605,-2.0605,-2.0605,-2.0605,-2.0566,-2.0566,-2.0801,-2.116,-2.0988,-2.1358,-3.1953,-3.2207,-3.2383,-3.3203,-3.3262,0.0,0.0,-3.4852,-3.4837,-3.5677,-3.5819,-3.575,-3.5639,-3.5451,-3.5254,-3.51,-3.4954,-3.4631,-3.4028,-3.3705,-3.322,-3.2293,-3.2188,-3.1715,-3.049,-3.0308,-2.9773,-2.8629,-2.8184,-2.7739,-2.7228,-2.7037,-2.6842,-2.6606,-2.6537,-2.6434,-2.6295,-2.585,-2.5582,-2.5519,-2.5975,-2.6294,-2.6466,-2.724,-2.76,-2.76,-2.7545,-2.7393,-2.7181,-2.6738,-2.6295,-2.582,-2.5062,-2.4247,-2.3463,-2.3173,-2.3108,-2.3108,-2.3108,-2.3108,-2.3108,-2.3108,-2.3108,-2.3108,-2.3108,-2.3108,-2.3108,-2.3108,-2.3108,-2.3108,-2.3108,-2.3047,-2.2823,-2.2075,-2.1721,-2.1302,-2.0494,-1.9756,-1.9434,-1.9968,-1.9795,-1.9697,-2.0225,-2.0498,-2.0605,-2.0605,-2.0605,-2.0605,-2.0605,-2.0605,-2.0605,-2.0605,-2.0605,-2.0605,-2.0605,-2.0605,-2.0605,-2.0605,-2.0605,-2.0605,-2.0605,-2.0605,-2.0605,-2.0605,-2.0605,-2.045,-2.0177,-2.0445,-2.0669,-2.0758,-2.0328,-2.0478,-3.2031,-3.2207,-3.2324,-3.2871,0.0,0.0,-3.3533,-3.3785,-3.4016,-3.4812,-3.5172,-3.5393,-3.5486,-3.5328,-3.5034,-3.4594,-3.4433,-3.4018,-3.3056,-3.2754,-3.2238,-3.1243,-3.1157,-3.0735,-2.9544,-2.9658,-2.9282,-2.8077,-2.7964,-2.7692,-2.7085,-2.6989,-2.6825,-2.6589,-2.652,-2.6434,-2.6295,-2.5903,-2.5686,-2.5651,-2.5825,-2.6092,-2.6503,-2.727,-2.76,-2.76,-2.76,-2.7448,-2.7181,-2.6762,-2.619,-2.5508,-2.4494,-2.3691,-2.3108,-2.3108,-2.3108,-2.3108,-2.3108,-2.3108,-2.3108,-2.3108,-2.3108,-2.3108,-2.3108,-2.3108,-2.3108,-2.3108,-2.2944,-2.2781,-2.2781,-2.2914,-2.2793,-2.1803,-2.1365,-2.091,-1.9879,-1.9248,-1.9039,-1.9646,-1.9614,-1.9668,-2.0302,-2.0517,-2.0605,-2.0605,-2.0605,-2.0605,-2.0605,-2.0605,-2.0605,-2.0605,-2.0605,-2.0605,-2.0605,-2.0605,-2.0605,-2.0605,-2.0605,-2.0566,-2.0489,-2.0489,-2.045,-2.0372,-2.0372,-2.0089,-1.9499,-2.0238,-2.0488,-2.0301,-1.9957,-2.0023,-3.2187,-3.2187,-3.2187,-3.2187,0.0,0.0,-3.1997,-3.2008,-3.2238,-3.3033,-3.3838,-3.4607,-3.5339,-3.5246,-3.4766,-3.384,-3.3525,-3.3037,-3.2027,-3.1714,-3.1212,-3.0204,-3.0623,-3.0351,-2.8744,-2.9318,-2.9215,-2.7813,-2.7701,-2.7413,-2.6741,-2.664,-2.6571,-2.6502,-2.6502,-2.6434,-2.6295,-2.5903,-2.5799,-2.598,-2.5522,-2.5635,-2.6228,-2.7167,-2.7585,-2.76,-2.76,-2.7448,-2.7181,-2.7181,-2.631,-2.4922,-2.4321,-2.3679,-2.3108,-2.3108,-2.3108,-2.3108,-2.3108,-2.3108,-2.3108,-2.3108,-2.3108,-2.3108,-2.3108,-2.3108,-2.3108,-2.3108,-2.2628,-2.2101,-2.2101,-2.2476,-2.2519,-2.1109,-2.0536,-1.9944,-1.8596,-1.8478,-1.8598,-1.8607,-1.9299,-1.9912,-1.9922,-2.0283,-2.0605,-2.0605,-2.0605,-2.0605,-2.0605,-2.0605,-2.0605,-2.0605,-2.0605,-2.0605,-2.0605,-2.0605,-2.0605,-2.0605,-2.0605,-2.0489,-2.0303,-2.0303,-2.0186,-1.9902,-1.9902,-1.946,-1.8598,-1.9916,-2.0324,-1.9894,-1.9948,-2.0191,-3.1445,-3.1289,-3.1289,-3.1289,0.0,0.0,0.0,-3.1999,0.0,0.0,-3.3246,-3.3333,-3.3558,-3.3344,-3.3033,-3.276,-3.3088,-3.2831,-3.1206,-3.1329,-3.1027,-2.9453,-2.93,-2.9125,-2.8654,-2.8817,-2.8613,-2.7745,-2.7701,-2.7413,-2.6741,-2.6691,-2.6657,-2.664,-2.6589,-2.6537,-2.6434,-2.6225,-2.5819,-2.5238,-2.6041,-2.6454,-2.6503,-2.6765,-2.7151,-2.76,-2.76,-2.7203,-2.6484,-2.5453,-2.4467,-2.3649,-2.3484,-2.3275,-2.3108,-2.3108,-2.3108,-2.3108,-2.3108,-2.3108,-2.3108,-2.3108,-2.3108,-2.3108,-2.3108,-2.3108,-2.3108,-2.3108,-2.2628,-2.2101,-2.2101,-2.176,-2.1184,-2.0193,-1.9879,-1.9497,-1.8337,-1.8374,-1.8695,-1.9033,-1.9541,-2.001,-2.0361,-2.0517,-2.0605,-2.0605,-2.0605,-2.0605,-2.0605,-2.0605,-2.0605,-2.0605,-2.0605,-2.0605,-2.0605,-2.0605,-2.0605,-2.0605,-2.001,-1.9932,-2.0489,-2.0489,-2.0411,-2.0186,-1.9569,-1.911,-1.8745,-1.8818,-1.881,-1.8696,-1.8289,-1.8141,-3.2413,-3.2123,0.0,-3.1891,-3.1586,-3.1254,-3.1161,-3.1672,-3.2268,-3.2578,-3.2447,-3.2372,-3.2677,-3.2488,-3.2185,-3.1798,-3.2038,-3.1755,-3.0225,-3.032,-3.008,-2.8919,-2.8675,-2.8549,-2.8388,-2.8357,-2.8097,-2.7426,-2.738,-2.7164,-2.6657,-2.6572,-2.6539,-2.6539,-2.6538,-2.652,-2.6416,-2.6417,-2.603,-2.5253,-2.5857,-2.6125,-2.6137,-2.6738,-2.7225,-2.76,-2.7499,-2.7023,-2.6203,-2.4951,-2.4089,-2.3454,-2.3198,-2.3108,-2.3108,-2.3108,-2.3108,-2.3108,-2.3108,-2.3108,-2.3108,-2.3108,-2.3108,-2.3108,-2.3108,-2.3108,-2.3108,-2.3108,-2.2433,-2.171,-2.171,-2.0867,-1.9944,-1.9726,-1.9562,-1.9285,-1.8522,-1.8629,-1.9023,-1.9453,-1.9883,-2.0254,-2.0556,-2.0605,-2.0605,-2.0605,-2.0605,-2.0605,-2.0605,-2.0605,-2.0605,-2.0605,-2.0605,-2.0605,-2.0605,-2.0527,-2.0333,-2.0001,-1.9362,-1.9085,-1.9274,-1.9274,-1.9155,-1.8886,-1.835,-1.7933,-1.761,-1.7838,-1.7842,-1.7695,-1.7403,-1.7279,-3.4246,-3.3846,-3.3183,-3.3258,-3.2571,-3.1834,-3.1718,-3.1119,-3.0799,-3.1545,-3.1515,-3.1577,-3.2251,-3.2193,-3.177,-3.0931,-3.071,-3.0275,-2.9229,-2.9062,-2.8919,-2.863,-2.8574,-2.8427,-2.8055,-2.8,-2.7692,-2.7002,-2.6904,-2.6774,-2.652,-2.6382,-2.633,-2.633,-2.6451,-2.6451,-2.633,-2.6468,-2.6278,-2.5779,-2.5282,-2.5204,-2.5527,-2.6823,-2.748,-2.7575,-2.7269,-2.6814,-2.6229,-2.5315,-2.4595,-2.4031,-2.3365,-2.3108,-2.3108,-2.3108,-2.3108,-2.3108,-2.3108,-2.3108,-2.3108,-2.3108,-2.3108,-2.3108,-2.3108,-2.3078,-2.3005,-2.3005,-2.2032,-2.0996,-2.0996,-1.9911,-1.8942,-1.9551,-1.9441,-1.9135,-1.8909,-1.9118,-1.9414,-1.9834,-2.0273,-2.0605,-2.0605,-2.0605,-2.0605,-2.0605,-2.0605,-2.0605,-2.0605,-2.0605,-2.0605,-2.0605,-2.0527,-2.0489,-2.044,-2.0254,-1.9743,-1.8931,-1.8598,-1.8091,-1.727,-1.7294,-1.7139,-1.6731,-1.6657,-1.6326,-1.5784,-1.6888,-1.7224,-1.6783,-1.7033,-1.7138,-3.3514,-3.2893,0.0,-3.2345,-3.1624,-3.0884,-3.0857,-3.0718,-3.0646,-3.081,-3.0602,-3.0442,-3.0612,-3.0427,-3.018,-2.9992,-3.0461,-3.0436,-2.9269,-2.9654,-2.9672,-2.857,-2.8432,-2.8367,-2.8174,-2.7961,-2.7683,-2.7239,-2.7018,-2.6774,-2.652,-2.652,-2.6537,-2.6537,-2.6555,-2.6555,-2.6537,-2.6206,-2.5974,-2.5795,-2.546,-2.5625,-2.6176,-2.6082,-2.6587,-2.756,-2.693,-2.651,-2.6203,-2.4951,-2.4321,-2.4031,-2.3365,-2.3108,-2.3108,-2.3108,-2.3108,-2.3108,-2.3108,-2.3108,-2.3108,-2.3108,-2.3108,-2.3108,-2.3108,-2.272,-2.2329,-2.2329,-2.1353,-2.0323,-2.0323,-1.9551,-1.8808,-1.8774,-1.863,-1.8548,-1.864,-1.901,-1.9414,-1.9834,-2.0273,-2.0605,-2.0605,-2.0605,-2.0605,-2.0605,-2.0605,-2.0605,-2.0605,-2.0605,-2.0605,-2.0605,-1.9971,-1.9529,-1.9362,-1.8864,-1.8425,-1.8062,-1.757,-1.7122,-1.6769,-1.7101,-1.7172,-1.6919,-1.6273,-1.5868,-1.5784,-1.5636,-1.5639,-1.5713,-1.602,-1.6109,-3.4271,0.0,0.0,-3.1551,0.0,-3.0565,-3.0588,-3.0598,-3.0598,-3.0598,-3.0321,-3.0109,-3.0109,-2.988,-2.9701,-2.9701,-2.9895,-2.9818,-2.9192,-2.9299,-2.9191,-2.8486,-2.834,-2.8146,-2.776,-2.758,-2.7305,-2.6808,-2.6641,-2.6521,-2.6399,-2.6434,-2.6486,-2.6554,-2.6572,-2.6572,-2.6554,-2.6382,-2.6155,-2.5885,-2.5543,-2.5659,-2.6108,-2.6425,-2.6941,-2.7575,-2.7141,-2.6709,-2.6229,-2.5481,-2.4738,-2.4073,-2.3721,-2.3365,-2.3108,-2.3108,-2.3108,-2.3108,-2.3108,-2.3108,-2.3108,-2.3108,-2.3108,-2.3108,-2.3108,-2.2854,-2.2525,-2.2206,-2.1365,-2.0484,-2.0193,-1.9452,-1.8741,-1.8549,-1.853,-1.8661,-1.8893,-1.9287,-1.9717,-2.0137,-2.0449,-2.0605,-2.0605,-2.0605,-2.0605,-2.0605,-2.0605,-2.0605,-2.0605,-2.0605,-2.0605,-2.0605,-1.9953,-1.9456,-1.9196,-1.8596,-1.793,-1.7282,-1.6855,-1.6389,-1.5866,-1.6066,-1.6065,-1.5817,-1.536,-1.5226,-1.542,-1.5293,-1.5317,-1.5605,-1.5711,-1.5784,-3.5343,0.0,-3.2658,-3.1164,-3.0631,-3.052,-3.0574,-3.0598,-3.0598,-3.0598,-3.0321,-3.0109,-3.0109,-2.988,-2.9701,-2.9701,-2.9404,-2.9214,-2.9267,-2.881,-2.8468,-2.8524,-2.8304,-2.7933,-2.7353,-2.7213,-2.694,-2.6381,-2.6257,-2.6221,-2.6294,-2.6329,-2.6382,-2.6502,-2.6589,-2.6589,-2.6537,-2.6572,-2.6401,-2.601,-2.574,-2.5676,-2.5838,-2.705,-2.76,-2.76,-2.7488,-2.7089,-2.6457,-2.6122,-2.5315,-2.4263,-2.4031,-2.3603,-2.3108,-2.3108,-2.3108,-2.3108,-2.3108,-2.3108,-2.3108,-2.3108,-2.3108,-2.3108,-2.3108,-2.3005,-2.2781,-2.2113,-2.1428,-2.0773,-2.0096,-1.9386,-1.8795,-1.864,-1.8854,-1.9086,-1.9245,-1.9619,-2.0049,-2.0517,-2.0605,-2.0605,-2.0605,-2.0605,-2.0605,-2.0605,-2.0605,-2.0635,-2.0713,-2.0684,-2.0752,-2.082,-2.0301,-1.9834,-1.956,-1.8735,-1.7826,-1.6809,-1.6529,-1.5998,-1.5253,-1.5154,-1.4968,-1.4676,-1.4623,-1.4716,-1.5008,-1.5257,-1.5518,-1.5711,-1.5758,-1.5784,-3.5353,0.0,-3.2847,0.0,-3.1027,-3.052,-3.0574,-3.0598,-3.0598,-3.0598,-3.0321,-3.0109,-3.0109,-2.988,-2.9701,-2.9701,-2.9607,-2.9634,-2.9933,-2.9259,-2.8819,-2.8987,-2.8433,-2.7908,-2.7657,-2.726,-2.6989,-2.6891,-2.6468,-2.6203,-2.6203,-2.638,-2.6485,-2.6502,-2.6623,-2.6691,-2.6674,-2.6349,-2.6157,-2.6085,-2.6341,-2.6216,-2.5838,-2.705,-2.76,-2.76,-2.7575,-2.7448,-2.7155,-2.5987,-2.5315,-2.4922,-2.3708,-2.3198,-2.3108,-2.3108,-2.3108,-2.3108,-2.3108,-2.3108,-2.3108,-2.3108,-2.3108,-2.3108,-2.3108,-2.2677,-2.2082,-2.1428,-2.0741,-2.0063,-1.9429,-1.9142,-1.9078,-1.9101,-1.9384,-1.9617,-1.935,-1.9619,-2.0049,-2.0517,-2.0605,-2.0605,-2.0605,-2.0605,-2.0605,-2.0605,-2.0605,-2.0742,-2.1094,-2.1103,-2.1289,-2.167,-2.0985,-2.036,-2.0123,-1.8767,-1.7798,-1.7476,-1.6895,-1.6416,-1.6054,-1.5809,-1.556,-1.5284,-1.503,-1.4968,-1.5008,-1.5257,-1.5418,-1.5464,-1.5712,-1.5784,-3.4101,-3.3547,-3.2665,0.0,-3.0709,-3.046,-3.053,-3.054,-3.054,-3.054,-3.0286,-3.0059,-3.0082,-2.9855,-2.9636,-2.9636,-2.952,-2.9426,-2.9379,-2.8907,-2.8706,-2.9057,-2.8356,-2.8082,-2.876,-2.7842,-2.7274,-2.7386,-2.679,-2.6364,-2.6259,-2.6415,-2.652,-2.6554,-2.6657,-2.6691,-2.6691,-2.6522,-2.621,-2.5762,-2.5655,-2.5704,-2.5916,-2.6371,-2.696,-2.76,-2.76,-2.7524,-2.731,-2.631,-2.5618,-2.5091,-2.4047,-2.3424,-2.3108,-2.3108,-2.3108,-2.3108,-2.3108,-2.3108,-2.3108,-2.3108,-2.3108,-2.3108,-2.3108,-2.2871,-2.2433,-2.1376,-2.0901,-2.042,-1.9363,-1.9295,-1.9442,-1.9243,-1.9711,-2.0092,-1.9713,-1.998,-2.0332,-2.0566,-2.0605,-2.0605,-2.0605,-2.0605,-2.0605,-2.0605,-2.0781,-2.1016,-2.1171,-2.1445,-2.167,-2.1865,-2.1273,-2.0781,-2.0497,-1.9592,-1.892,-1.8678,-1.7733,-1.7138,-1.7052,-1.6221,-1.5738,-1.5638,-1.5351,-1.5204,-1.5204,-1.5498,-1.5638,-1.5645,-1.5772,-1.5784,0.0,0.0,-3.2878,-3.1432,-3.1053,-3.1077,-3.113,-3.1135,-3.1053,-3.0813,-3.0528,-3.0255,-3.0034,-2.976,-2.956,-2.956,-2.938,-2.9263,-2.9326,-2.8923,-2.8889,-2.9549,-2.8848,-2.8695,-2.9706,-2.8511,-2.7731,-2.7879,-2.7079,-2.6537,-2.6365,-2.6434,-2.6468,-2.652,-2.6607,-2.6674,-2.6674,-2.659,-2.6245,-2.5652,-2.5234,-2.5419,-2.6153,-2.6075,-2.6618,-2.76,-2.76,-2.7524,-2.7386,-2.651,-2.5783,-2.5147,-2.4263,-2.3573,-2.3108,-2.3108,-2.3108,-2.3108,-2.3108,-2.3108,-2.3108,-2.3108,-2.3108,-2.3108,-2.3108,-2.3108,-2.2854,-2.169,-2.1219,-2.0837,-1.9649,-1.9542,-1.9651,-1.9424,-1.9905,-2.0337,-2.0134,-2.0332,-2.0605,-2.0605,-2.0605,-2.0605,-2.0605,-2.0605,-2.0605,-2.0605,-2.0947,-2.1239,-2.1346,-2.1777,-2.209,-2.2197,-2.165,-2.1158,-2.0965,-2.0078,-1.943,-1.9231,-1.8095,-1.7365,-1.7326,-1.6393,-1.5879,-1.5784,-1.5618,-1.5504,-1.5504,-1.5678,-1.5784,-1.5784,-1.5784,-1.5784,0.0,-3.3506,0.0,-3.3069,-3.2869,-3.2875,-3.2873,-3.286,-3.26,-3.1636,-3.1327,-3.092,-2.9916,-2.9608,-2.9502,-2.9502,-2.923,-2.9427,-3.0612,-2.9902,-2.9701,-3.0928,-3.0422,-3.0002,-3.0056,-2.9094,-2.8447,-2.8465,-2.73,-2.6606,-2.6572,-2.6417,-2.6313,-2.6313,-2.6503,-2.6606,-2.6606,-2.6279,-2.6105,-2.6068,-2.5795,-2.5967,-2.6572,-2.6685,-2.7054,-2.76,-2.76,-2.76,-2.7484,-2.6188,-2.5536,-2.5259,-2.3956,-2.33,-2.3108,-2.3108,-2.3108,-2.3108,-2.3108,-2.3108,-2.3108,-2.3108,-2.3108,-2.3108,-2.3108,-2.3108,-2.2944,-2.2237,-2.1585,-2.0933,-2.0226,-1.9777,-1.9559,-1.9736,-2.0015,-2.0276,-2.0526,-2.0586,-2.0605,-2.0605,-2.0605,-2.0605,-2.0605,-2.0605,-2.0605,-2.0605,-2.0947,-2.1346,-2.1797,-2.2217,-2.2627,-2.2984,-2.2233,-2.1658,-2.1667,-1.9687,-1.8481,-1.8473,-1.7326,-1.6541,-1.6272,-1.6224,-1.6076,-1.5784,-1.5764,-1.5758,-1.5758,-1.5771,-1.5784,-1.5784,-1.5784,-1.5784,-3.2173,0.0,0.0,-3.2327,-3.2455,-3.2779,-3.2917,-3.2941,-3.266,-3.1646,-3.1302,-3.0861,-2.983,-2.9541,-2.9443,-2.9443,-2.9588,-2.9801,-3.0087,-3.0094,-3.0346,-3.1056,-3.033,-3.0074,-3.0852,-2.9572,-2.8626,-2.8501,-2.7755,-2.7026,-2.6379,-2.6486,-2.6487,-2.6313,-2.6503,-2.6623,-2.6657,-2.6556,-2.6367,-2.6104,-2.6008,-2.6092,-2.6356,-2.6565,-2.6926,-2.7354,-2.753,-2.76,-2.7524,-2.6575,-2.5864,-2.5315,-2.435,-2.3632,-2.3108,-2.3108,-2.3108,-2.3108,-2.3108,-2.3108,-2.3108,-2.3108,-2.3108,-2.3108,-2.3108,-2.2811,-2.231,-2.1647,-2.0996,-2.0335,-1.9832,-1.9817,-1.9996,-2.0412,-2.0463,-2.0496,-2.0576,-2.0605,-2.0605,-2.0605,-2.0605,-2.0605,-2.0605,-2.0605,-2.0605,-2.0605,-2.0947,-2.1356,-2.1836,-2.2246,-2.2409,-2.2233,-2.1917,-2.1382,-2.061,-1.9795,-1.9293,-1.9139,-1.7956,-1.7279,-1.7185,-1.6393,-1.5879,-1.5784,-1.5784,-1.5784,-1.5784,-1.5784,-1.5784,-1.5784,-1.5784,-1.5784,-3.1458,-3.2,-3.25,-3.2376,-3.2642,-3.3045,-3.3459,-3.3558,-3.3272,-3.2257,-3.1724,-3.1128,-3.0123,-2.9639,-2.9494,-2.9754,-2.9899,-3.0084,-3.0446,-3.0627,-3.0882,-3.1409,-3.0872,-3.075,-3.1554,-3.0232,-2.9161,-2.876,-2.8017,-2.7224,-2.6415,-2.6469,-2.6486,-2.6365,-2.6503,-2.6623,-2.6691,-2.6691,-2.6573,-2.6298,-2.6158,-2.6213,-2.643,-2.6456,-2.6629,-2.6957,-2.7306,-2.7525,-2.7549,-2.6852,-2.6122,-2.5398,-2.4652,-2.3884,-2.3198,-2.3138,-2.3108,-2.3108,-2.3108,-2.3108,-2.3108,-2.3108,-2.3108,-2.3108,-2.3108,-2.2616,-2.2009,-2.1553,-2.0886,-2.0258,-1.9905,-1.9991,-2.0243,-2.0679,-2.0693,-2.0605,-2.0605,-2.0605,-2.0605,-2.0605,-2.0605,-2.0605,-2.0605,-2.0605,-2.0605,-2.0605,-2.07,-2.0874,-2.1202,-2.1424,-2.146,-2.1103,-2.0756,-2.0294,-1.9476,-1.8926,-1.8557,-1.8403,-1.7537,-1.7037,-1.7037,-1.6244,-1.5784,-1.5784,-1.5784,-1.5784,-1.5784,-1.5784,-1.5784,-1.5784,-1.5784,-1.5784,0.0,0.0,0.0,-3.3334,-3.3543,-3.3799,-3.4661,-3.4851,-3.4547,-3.3518,-3.2688,-3.1839,-3.0804,-2.9981,-2.972,-3.0508,-3.0137,-3.0292,-3.1884,-3.1535,-3.1393,-3.2092,-3.2108,-3.2055,-3.2037,-3.0967,-2.996,-2.9193,-2.8015,-2.7132,-2.6708,-2.6399,-2.6292,-2.6502,-2.6502,-2.6572,-2.6691,-2.6691,-2.6691,-2.6691,-2.6298,-2.6396,-2.6885,-2.6434,-2.6267,-2.6415,-2.6926,-2.7324,-2.7519,-2.6956,-2.6283,-2.5536,-2.4823,-2.4073,-2.339,-2.3168,-2.3108,-2.3108,-2.3108,-2.3108,-2.3108,-2.3108,-2.3108,-2.3108,-2.3108,-2.2628,-2.207,-2.207,-2.1424,-2.0716,-2.0534,-2.0344,-2.0295,-2.0546,-2.0605,-2.0605,-2.0605,-2.0605,-2.0605,-2.0605,-2.0605,-2.0605,-2.0605,-2.0605,-2.0605,-2.0605,-2.0233,-1.992,-1.9929,-1.9846,-1.979,-1.9799,-1.8928,-1.8365,-1.8326,-1.6998,-1.6224,-1.6177,-1.5927,-1.5784,-1.5784,-1.5784,-1.5784,-1.5784,-1.5784,-1.5784,-1.5784,-1.5784,-1.5784,-1.5784,-1.5784,-1.5784,-3.0354,0.0,0.0,0.0,0.0,0.0,-3.3733,-3.3951,-3.3819,-3.3387,-3.311,-3.2582,-3.1334,-3.0918,-3.0974,-3.1594,-3.1057,-3.093,-3.1974,-3.198,-3.1829,-3.1641,-3.1432,-3.1083,-3.0485,-3.0007,-2.9216,-2.7992,-2.7718,-2.724,-2.645,-2.6468,-2.6572,-2.6725,-2.6572,-2.6572,-2.6691,-2.6691,-2.6691,-2.6691,-2.659,-2.6588,-2.6665,-2.6648,-2.6431,-2.612,-2.6375,-2.6625,-2.6901,-2.7214,-2.693,-2.6176,-2.5425,-2.4709,-2.3985,-2.3335,-2.3108,-2.3108,-2.3108,-2.3108,-2.3108,-2.3108,-2.3108,-2.3108,-2.3108,-2.2279,-2.1376,-2.1376,-2.0509,-1.9643,-1.9928,-2.0229,-2.0497,-2.0576,-2.0605,-2.0605,-2.0605,-2.0605,-2.0605,-2.0605,-2.0605,-2.0605,-2.0605,-2.0605,-2.0605,-2.0605,-2.0508,-2.0494,-2.0811,-2.0255,-1.9742,-1.9333,-1.8556,-1.7697,-1.6791,-1.6416,-1.6123,-1.5927,-1.5832,-1.5784,-1.5784,-1.5784,-1.5784,-1.5784,-1.5784,-1.5784,-1.5784,-1.5784,-1.5784,-1.5784,-1.5784,-1.5784,-2.9879,-3.033,-3.0973,-3.0913,0.0,0.0,-3.3066,-3.3359,-3.3412,-3.363,-3.3314,-3.2781,-3.1991,-3.1459,-3.1351,-3.2003,-3.1564,-3.1425,-3.2244,-3.2239,-3.1966,-3.1414,-3.1181,-3.0804,-3.0161,-2.981,-2.9182,-2.8072,-2.7727,-2.7199,-2.6361,-2.6691,-2.6941,-2.6923,-2.6875,-2.6825,-2.6842,-2.6874,-2.6841,-2.6691,-2.6691,-2.6691,-2.664,-2.6656,-2.6306,-2.568,-2.5957,-2.5953,-2.5839,-2.6806,-2.6952,-2.651,-2.5701,-2.4979,-2.4292,-2.3424,-2.3108,-2.3108,-2.3108,-2.3108,-2.3108,-2.3108,-2.3108,-2.3047,-2.2781,-2.1939,-2.1074,-2.1,-2.0361,-1.9783,-2.0166,-2.0424,-2.0605,-2.0605,-2.0605,-2.0605,-2.0605,-2.0605,-2.0605,-2.0605,-2.0605,-2.0605,-2.0605,-2.0605,-2.0605,-2.0605,-2.0294,-2.0145,-2.0402,-1.9756,-1.9188,-1.8862,-1.8357,-1.7606,-1.6548,-1.632,-1.6019,-1.5517,-1.5471,-1.5524,-1.5645,-1.5651,-1.5705,-1.5778,-1.5784,-1.5784,-1.5784,-1.5784,-1.5784,-1.5784,-1.5784,-1.5784,-2.975,-2.9527,-2.9675,-3.0307,-3.0508,0.0,-3.2361,-3.2739,-3.2974,-3.3697,-3.3165,-3.253,-3.2522,-3.1751,-3.1311,-3.1863,-3.1711,-3.1792,-3.2597,-3.2301,-3.182,-3.1295,-3.1064,-3.0788,-3.0393,-2.9968,-2.9437,-2.8768,-2.7883,-2.7071,-2.6344,-2.6989,-2.731,-2.7151,-2.7243,-2.7213,-2.7024,-2.7119,-2.7005,-2.6725,-2.6691,-2.6691,-2.6691,-2.6555,-2.6064,-2.5291,-2.5651,-2.536,-2.4762,-2.5997,-2.6559,-2.6593,-2.5809,-2.5175,-2.4595,-2.359,-2.3215,-2.3198,-2.3138,-2.3108,-2.3108,-2.3108,-2.3108,-2.2975,-2.2402,-2.1726,-2.1126,-2.0796,-2.0619,-2.0557,-2.0766,-2.0702,-2.0605,-2.0605,-2.0605,-2.0605,-2.0605,-2.0605,-2.0605,-2.0605,-2.0605,-2.0605,-2.0605,-2.0605,-2.0605,-2.0605,-1.9932,-1.9478,-1.9524,-1.8984,-1.8619,-1.8664,-1.8455,-1.7999,-1.718,-1.6735,-1.613,-1.5181,-1.5136,-1.5212,-1.5337,-1.5378,-1.5518,-1.5724,-1.5764,-1.5784,-1.5784,-1.5784,-1.5784,-1.5784,-1.5784,-1.5784,-3.0586,-3.0363,-3.0251,-2.975,-2.9921,0.0,-3.0654,-3.1034,-3.1372,-3.1576,-3.1978,-3.2204,-3.193,-3.2169,-3.2125,-3.1212,-3.1342,-3.1847,-3.2584,-3.1985,-3.1276,-3.0788,-3.0335,-2.9881,-2.9425,-2.9289,-2.8958,-2.8297,-2.7668,-2.705,-2.6418,-2.6923,-2.7293,-2.7434,-2.7246,-2.7149,-2.7166,-2.6972,-2.6908,-2.6942,-2.6725,-2.6657,-2.6691,-2.6555,-2.6206,-2.5668,-2.5261,-2.5113,-2.5205,-2.5604,-2.6111,-2.6579,-2.6242,-2.6041,-2.5783,-2.4394,-2.3897,-2.3839,-2.3275,-2.3108,-2.3108,-2.3108,-2.3108,-2.3078,-2.2944,-2.2332,-2.1451,-2.0502,-2.0374,-2.0477,-2.0351,-2.0466,-2.0605,-2.0605,-2.0605,-2.0605,-2.0605,-2.0605,-2.0605,-2.0605,-2.0605,-2.0605,-2.0605,-2.0605,-2.0605,-2.0605,-2.045,-2.0458,-2.0776,-1.9857,-1.9336,-1.9799,-1.8982,-1.8251,-1.7921,-1.7833,-1.7302,-1.6109,-1.605,-1.5775,-1.5089,-1.5277,-1.5424,-1.5478,-1.5712,-1.5784,-1.5784,-1.5784,-1.5784,-1.5784,-1.5784,-1.5784,-3.0124,-2.9683,-2.945,-2.9046,-2.9442,0.0,0.0,-3.1043,-3.1622,-3.2063,-3.2043,-3.19,-3.1719,-3.1469,-3.1159,-3.0855,-3.0757,-3.1023,-3.1754,-3.1321,-3.0767,-3.0251,-2.9968,-2.9611,-2.9144,-2.9098,-2.8928,-2.8462,-2.8043,-2.7653,-2.7266,-2.7339,-2.7463,-2.76,-2.7569,-2.7494,-2.7355,-2.7352,-2.7227,-2.6991,-2.6925,-2.6825,-2.6691,-2.6555,-2.6241,-2.576,-2.5157,-2.4847,-2.4829,-2.5017,-2.551,-2.6111,-2.624,-2.5923,-2.5241,-2.4403,-2.3897,-2.3543,-2.3228,-2.3108,-2.3108,-2.3108,-2.3108,-2.2975,-2.2322,-2.1543,-2.0861,-2.0421,-2.0484,-2.0645,-2.0445,-2.0487,-2.0605,-2.0605,-2.0605,-2.0605,-2.0605,-2.0605,-2.0605,-2.0605,-2.0605,-2.0605,-2.0605,-2.0605,-2.0605,-2.0605,-2.0605,-2.0683,-2.0869,-2.0271,-1.9895,-2.0227,-1.9479,-1.877,-1.8263,-1.8145,-1.7626,-1.656,-1.6502,-1.6365,-1.606,-1.5944,-1.5762,-1.5605,-1.6223,-1.6298,-1.5784,-1.5784,-1.5784,-1.5784,-1.5784,-1.5784,-3.0038,-2.9223,-2.8775,-2.8907,-2.9416,-3.0012,0.0,0.0,0.0,-3.2586,-3.2072,-3.1533,-3.1533,-3.0603,-2.9972,-3.0351,-2.9969,-2.9811,-3.0299,-3.0261,-3.0131,-3.0016,-2.9802,-2.9586,-2.9334,-2.927,-2.916,-2.8937,-2.8741,-2.8466,-2.8118,-2.7892,-2.7754,-2.7701,-2.785,-2.781,-2.7539,-2.7698,-2.755,-2.704,-2.7103,-2.6972,-2.6691,-2.6555,-2.6277,-2.5886,-2.5195,-2.4719,-2.4431,-2.4542,-2.4844,-2.529,-2.5995,-2.567,-2.472,-2.4393,-2.3855,-2.3275,-2.3125,-2.3108,-2.3108,-2.3108,-2.3108,-2.2891,-2.1704,-2.0972,-2.057,-2.0623,-2.0781,-2.0896,-2.0654,-2.0605,-2.0605,-2.0605,-2.0605,-2.0605,-2.0605,-2.0605,-2.0605,-2.0605,-2.0605,-2.0605,-2.0605,-2.0605,-2.0605,-2.0605,-2.0635,-2.0654,-2.0654,-2.0458,-2.0379,-2.0416,-2.0003,-1.9421,-1.8664,-1.8472,-1.7953,-1.7025,-1.6935,-1.7014,-1.7149,-1.684,-1.6583,-1.6372,-1.6998,-1.6904,-1.6109,-1.5872,-1.5784,-1.5784,-1.5784,-1.5784,-3.2234,-3.0907,-2.9732,-3.046,-3.0517,-3.0422,-3.0526,0.0,-3.1133,-3.057,0.0,-3.089,-3.089,0.0,0.0,-2.9162,-2.882,-2.8511,-2.8127,-2.8409,-2.916,-3.0519,-2.9793,-2.9421,-3.003,-2.9861,-2.9594,-2.9336,-2.9632,-2.9297,-2.8169,-2.8346,-2.8235,-2.7719,-2.773,-2.7716,-2.7672,-2.7539,-2.7355,-2.7165,-2.6956,-2.6791,-2.6691,-2.6555,-2.6468,-2.6364,-2.5329,-2.4863,-2.4826,-2.4659,-2.4291,-2.3992,-2.5599,-2.6158,-2.5996,-2.5176,-2.4509,-2.3897,-2.3305,-2.3108,-2.3108,-2.3108,-2.3108,-2.2997,-2.25,-2.2287,-2.2086,-2.1326,-2.1126,-2.1089,-2.0683,-2.0605,-2.0605,-2.0605,-2.0605,-2.0605,-2.0605,-2.0605,-2.0605,-2.0605,-2.0605,-2.0605,-2.0605,-2.0605,-2.0605,-2.0605,-2.075,-2.0882,-2.0853,-2.0702,-2.0642,-2.0804,-2.0391,-2.0014,-1.9729,-1.9689,-1.916,-1.7942,-1.7836,-1.7671,-1.7275,-1.7807,-1.821,-1.8457,-1.7692,-1.7232,-1.7138,-1.6251,-1.5784,-1.5784,-1.5784,-1.5784,-3.1558,-3.0335,-2.9428,-3.0231,-3.0353,-3.0384,-3.0808,-3.1417,-3.1809,-3.151,0.0,0.0,0.0,0.0,0.0,0.0,-2.808,-2.7967,-2.7721,-2.7998,-2.8615,-2.9676,-2.9388,-2.9225,-2.9532,-2.9698,-2.9751,-2.9634,-2.9872,-2.979,-2.9292,-2.885,-2.8518,-2.8345,-2.7917,-2.7701,-2.7701,-2.7733,-2.7615,-2.7371,-2.718,-2.6971,-2.6758,-2.6487,-2.6382,-2.6329,-2.5329,-2.4902,-2.4839,-2.4262,-2.4268,-2.47,-2.5372,-2.5411,-2.514,-2.5025,-2.4624,-2.4015,-2.3335,-2.3108,-2.3108,-2.3108,-2.2841,-2.2504,-2.2506,-2.2138,-2.1664,-2.1285,-2.1138,-2.0974,-2.0683,-2.0605,-2.0605,-2.0605,-2.0605,-2.0605,-2.0605,-2.0605,-2.0605,-2.0605,-2.0605,-2.0605,-2.0605,-2.0605,-2.0605,-2.0605,-2.0654,-2.0731,-2.0722,-2.0405,-2.0233,-2.0332,-1.9941,-1.9638,-1.9567,-1.9567,-1.9325,-1.8785,-1.895,-1.8979,-1.8714,-1.9477,-1.9552,-1.8826,-1.838,-1.7878,-1.7279,-1.6298,-1.5784,-1.5784,-1.5784,-1.5784,-3.0746,-2.972,-2.9141,-3.0159,-3.0264,-3.0299,-3.1019,-3.1651,-3.2072,-3.2072,-3.1324,0.0,0.0,0.0,-2.8678,-2.8012,0.0,-2.7555,-2.7688,-2.7641,-2.7987,-2.8972,-2.9272,-2.9373,-2.9298,-2.9611,-2.9837,-2.9989,-3.0182,-3.0264,-3.0175,-2.9385,-2.8885,-2.8821,-2.8092,-2.7701,-2.7701,-2.785,-2.778,-2.7496,-2.7338,-2.71,-2.6791,-2.6453,-2.6295,-2.626,-2.5408,-2.5001,-2.4843,-2.4105,-2.4327,-2.5135,-2.5186,-2.5034,-2.4769,-2.4956,-2.4624,-2.4015,-2.3335,-2.3108,-2.3108,-2.3108,-2.2781,-2.2399,-2.2473,-2.2012,-2.1428,-2.1247,-2.1061,-2.0867,-2.0644,-2.0605,-2.0605,-2.0605,-2.0605,-2.0605,-2.0605,-2.0605,-2.0605,-2.0605,-2.0605,-2.0605,-2.0605,-2.0605,-2.0605,-2.0605,-2.0635,-2.0625,-2.0547,-2.0282,-2.0035,-1.9843,-1.9548,-1.9341,-1.9301,-1.9301,-1.9347,-1.9467,-1.982,-2.0057,-2.007,-2.0816,-2.074,-1.9613,-1.9063,-1.8427,-1.7692,-1.6433,-1.5784,-1.5784,-1.5784,-1.5784,-3.0578,-2.9718,-2.9263,-3.0791,-3.0633,-3.0299,-3.1019,-3.1212,-3.123,-3.123,-3.075,-3.0542,-3.1316,-3.0306,-2.9152,-2.8495,-2.7624,0.0,0.0,-2.6932,-2.7057,-2.8884,-2.9738,-3.0052,-2.9808,-2.9793,-2.9989,-3.0456,-3.0831,-3.0845,-3.032,-2.9955,-2.9493,-2.8914,-2.8122,-2.7701,-2.7701,-2.7716,-2.7644,-2.7496,-2.723,-2.7005,-2.6791,-2.6453,-2.6295,-2.6278,-2.5723,-2.5256,-2.4863,-2.4451,-2.4334,-2.4474,-2.5,-2.5512,-2.5861,-2.5232,-2.4624,-2.4015,-2.3335,-2.3108,-2.3108,-2.3108,-2.3078,-2.2991,-2.2606,-2.2332,-2.2027,-2.1388,-2.1061,-2.0867,-2.0644,-2.0605,-2.0605,-2.0605,-2.0605,-2.0605,-2.0605,-2.0605,-2.0605,-2.0605,-2.0605,-2.0605,-2.0605,-2.0605,-2.0605,-2.0605,-2.0779,-2.0745,-2.0361,-2.0461,-2.0316,-1.9683,-1.9606,-1.9518,-1.9301,-1.9301,-1.9476,-1.9847,-2.0241,-2.0634,-2.1046,-2.1458,-2.1678,-2.1597,-1.9758,-1.8788,-1.8742,-1.6756,-1.5784,-1.5784,-1.5784,-1.5784,-3.0302,-2.9585,-2.9158,-3.0211,-2.9878,-2.9509,-3.0299,-3.0326,-3.0349,-3.0837,-3.0466,-3.0125,-3.0398,-3.0262,-2.9764,-2.8591,-2.8382,-2.8069,0.0,-2.63,-2.6166,-2.7257,-2.8227,-2.8953,-2.9296,-2.9611,-2.9744,-2.9589,-3.0288,-3.0583,-3.0251,-3.0172,-2.9868,-2.9313,-2.8771,-2.8245,-2.7701,-2.7701,-2.7672,-2.7627,-2.7402,-2.7166,-2.6907,-2.664,-2.6416,-2.6205,-2.5705,-2.5275,-2.4863,-2.4354,-2.4217,-2.433,-2.4851,-2.5414,-2.5814,-2.5204,-2.4879,-2.4538,-2.3471,-2.3108,-2.3108,-2.3108,-2.3047,-2.2837,-2.2068,-2.1891,-2.1811,-2.0812,-2.0697,-2.0867,-2.0644,-2.0605,-2.0605,-2.0605,-2.0605,-2.0605,-2.0605,-2.0605,-2.0605,-2.0605,-2.0605,-2.0605,-2.0605,-2.0605,-2.0605,-2.0605,-2.0654,-2.0664,-2.0508,-2.0301,-2.0063,-1.9803,-1.9548,-1.939,-1.9301,-1.9301,-1.9595,-2.0232,-2.0397,-2.0824,-2.1449,-2.1623,-2.1419,-2.0808,-1.9476,-1.8473,-1.7785,-1.648,-1.5784,-1.5784,-1.5784,-1.5784,-2.9321,-2.8877,-2.8667,-2.9474,-2.9281,-2.9123,-2.993,-2.986,-2.9798,-3.0318,-3.0114,-2.9765,-2.9458,-2.9992,-3.0005,-2.8527,-2.8693,-2.8359,0.0,-2.6036,-2.593,-2.6116,-2.7208,-2.8095,-2.8512,-2.9153,-2.9425,-2.9121,-2.9815,-3.0267,-3.0342,-3.0044,-2.9796,-2.9643,-2.8877,-2.821,-2.7701,-2.7701,-2.7701,-2.7701,-2.7494,-2.7263,-2.6989,-2.6725,-2.645,-2.6168,-2.5883,-2.5406,-2.4788,-2.4461,-2.4267,-2.4214,-2.478,-2.5325,-2.5723,-2.5204,-2.4696,-2.4221,-2.3382,-2.3108,-2.3108,-2.3108,-2.3017,-2.2782,-2.2098,-2.1834,-2.1638,-2.0839,-2.0691,-2.078,-2.0644,-2.0605,-2.0605,-2.0605,-2.0605,-2.0605,-2.0605,-2.0605,-2.0605,-2.0605,-2.0605,-2.0605,-2.0605,-2.0605,-2.0605,-2.0605,-2.0605,-2.0566,-2.0489,-2.0216,-1.999,-1.9833,-1.9548,-1.9381,-1.9301,-1.9439,-1.9806,-2.0475,-2.0649,-2.0991,-2.1668,-2.1696,-2.1275,-2.0294,-1.9293,-1.8288,-1.7279,-1.6298,-1.5784,-1.5784,-1.5784,-1.5784]},{"header":{"parameterUnit":"m.s-1","parameterCategory":1,"la1":30.6,"la2":29.2853,"lo1":-89.7004,"lo2":-87.6739,"dy":0.0162,"dx":0.0183,"nx":112,"ny":82,"refTime":"2024-05-24T06:00:00:Z","depth":0,"parameterNumber":3,"parameterNumberName":"V-component_of_WINDS"},"data":[0.0,0.0,0.0,0.0,0.0,0.0,0.0,0.0,0.0,0.0,0.0,0.0,0.0,0.0,0.0,0.0,0.0,0.0,0.0,0.0,0.0,0.0,0.0,0.0,0.0,0.0,0.0,0.0,0.0,0.0,0.0,0.0,0.0,0.0,0.0,0.0,0.0,0.0,0.0,0.0,0.0,0.0,0.0,0.0,0.0,0.0,0.0,0.0,0.0,0.0,0.0,0.0,0.0,0.0,0.0,0.0,0.0,0.0,0.0,0.0,0.0,0.0,0.0,0.0,0.0,0.0,0.0,0.0,0.0,0.0,0.0,0.0,0.0,0.0,0.0,0.0,0.0,0.0,0.0,0.0,0.0,0.0,0.0,0.0,0.0,0.0,0.0,0.0,0.0,0.0,-2.5136,-2.6373,-2.6499,-2.6497,-2.6504,-2.6343,-2.6028,-2.5505,0.0,0.0,0.0,0.0,0.0,0.0,0.0,0.0,0.0,0.0,0.0,0.0,0.0,0.0,0.0,0.0,0.0,0.0,0.0,0.0,0.0,0.0,0.0,0.0,0.0,0.0,0.0,0.0,0.0,0.0,0.0,0.0,0.0,0.0,0.0,0.0,0.0,0.0,0.0,0.0,0.0,0.0,0.0,0.0,0.0,0.0,0.0,0.0,0.0,0.0,0.0,0.0,0.0,0.0,0.0,0.0,0.0,0.0,0.0,0.0,0.0,0.0,0.0,0.0,0.0,0.0,0.0,0.0,0.0,0.0,0.0,0.0,0.0,0.0,0.0,0.0,0.0,0.0,0.0,0.0,0.0,0.0,0.0,0.0,0.0,0.0,0.0,0.0,0.0,0.0,0.0,0.0,0.0,0.0,0.0,0.0,0.0,0.0,0.0,0.0,0.0,0.0,0.0,0.0,-2.4615,-2.6305,-2.6499,-2.6497,-2.6504,-2.5614,-2.5425,-2.6251,0.0,0.0,0.0,0.0,0.0,0.0,0.0,0.0,0.0,0.0,0.0,0.0,0.0,0.0,0.0,0.0,0.0,0.0,0.0,0.0,0.0,0.0,0.0,0.0,0.0,0.0,0.0,0.0,0.0,0.0,0.0,0.0,0.0,0.0,0.0,0.0,0.0,0.0,0.0,0.0,0.0,0.0,0.0,0.0,0.0,0.0,0.0,0.0,0.0,0.0,0.0,0.0,0.0,0.0,0.0,0.0,0.0,0.0,0.0,0.0,0.0,0.0,0.0,0.0,0.0,0.0,0.0,0.0,0.0,0.0,0.0,0.0,0.0,0.0,0.0,0.0,0.0,0.0,0.0,0.0,0.0,0.0,0.0,0.0,0.0,0.0,0.0,0.0,0.0,0.0,0.0,0.0,0.0,0.0,0.0,0.0,0.0,0.0,0.0,0.0,0.0,0.0,0.0,-2.2995,-2.4536,-2.6305,-2.6506,-2.6501,-2.6491,-2.603,-2.6112,-2.7038,-2.5741,0.0,0.0,0.0,0.0,0.0,0.0,0.0,0.0,0.0,0.0,0.0,0.0,0.0,0.0,0.0,0.0,0.0,0.0,0.0,0.0,0.0,0.0,0.0,0.0,0.0,0.0,0.0,0.0,0.0,0.0,0.0,0.0,0.0,0.0,0.0,0.0,0.0,0.0,0.0,0.0,0.0,0.0,0.0,0.0,0.0,0.0,0.0,0.0,0.0,0.0,0.0,0.0,0.0,0.0,0.0,0.0,0.0,0.0,0.0,0.0,0.0,0.0,0.0,0.0,0.0,0.0,0.0,0.0,0.0,0.0,0.0,0.0,0.0,0.0,0.0,0.0,0.0,0.0,0.0,0.0,0.0,0.0,0.0,0.0,0.0,0.0,0.0,0.0,0.0,0.0,0.0,0.0,0.0,0.0,0.0,0.0,0.0,0.0,0.0,0.0,0.0,0.0,-2.3668,-2.4559,-2.6093,-2.6411,-2.6498,-2.6497,-2.6001,-2.6245,-2.7525,-2.5072,0.0,0.0,0.0,0.0,0.0,0.0,0.0,0.0,0.0,0.0,0.0,0.0,0.0,0.0,0.0,0.0,0.0,0.0,0.0,0.0,0.0,0.0,0.0,0.0,0.0,0.0,0.0,0.0,0.0,0.0,0.0,0.0,0.0,0.0,0.0,0.0,0.0,0.0,0.0,0.0,0.0,0.0,0.0,0.0,0.0,0.0,0.0,0.0,0.0,0.0,0.0,0.0,0.0,0.0,0.0,0.0,0.0,0.0,0.0,0.0,0.0,0.0,0.0,0.0,0.0,0.0,0.0,0.0,0.0,0.0,0.0,0.0,0.0,0.0,0.0,0.0,0.0,0.0,0.0,0.0,0.0,0.0,0.0,0.0,0.0,0.0,0.0,0.0,0.0,0.0,0.0,0.0,0.0,0.0,0.0,0.0,0.0,0.0,0.0,0.0,0.0,0.0,-2.3067,-2.452,-2.5389,-2.6097,-2.6484,-2.6498,-2.4562,-2.4559,-2.7428,-2.5073,0.0,0.0,0.0,0.0,0.0,0.0,0.0,0.0,0.0,0.0,0.0,0.0,0.0,0.0,0.0,0.0,0.0,0.0,0.0,0.0,0.0,0.0,0.0,0.0,0.0,0.0,0.0,0.0,0.0,0.0,0.0,0.0,0.0,0.0,0.0,0.0,0.0,0.0,0.0,0.0,0.0,0.0,0.0,0.0,0.0,0.0,0.0,0.0,0.0,0.0,0.0,0.0,0.0,0.0,0.0,0.0,0.0,0.0,0.0,0.0,0.0,0.0,0.0,0.0,0.0,0.0,0.0,0.0,0.0,0.0,0.0,0.0,0.0,0.0,0.0,0.0,0.0,0.0,0.0,0.0,0.0,0.0,0.0,0.0,0.0,0.0,0.0,0.0,0.0,0.0,0.0,0.0,0.0,0.0,0.0,0.0,0.0,0.0,0.0,0.0,0.0,0.0,-2.232,-2.3673,-2.5839,-2.6313,-2.5905,-2.4511,-2.3984,-2.4108,-2.5049,0.0,0.0,0.0,0.0,0.0,0.0,0.0,0.0,0.0,0.0,0.0,0.0,0.0,0.0,0.0,0.0,0.0,0.0,0.0,0.0,0.0,0.0,0.0,0.0,0.0,0.0,0.0,0.0,0.0,0.0,0.0,0.0,0.0,0.0,0.0,0.0,0.0,0.0,0.0,0.0,0.0,0.0,0.0,0.0,0.0,0.0,0.0,0.0,0.0,0.0,0.0,0.0,0.0,0.0,0.0,0.0,0.0,0.0,0.0,0.0,0.0,0.0,0.0,0.0,0.0,0.0,0.0,0.0,0.0,0.0,0.0,0.0,0.0,0.0,0.0,0.0,0.0,0.0,0.0,0.0,0.0,0.0,0.0,0.0,0.0,0.0,0.0,0.0,0.0,0.0,0.0,0.0,0.0,0.0,0.0,0.0,0.0,0.0,0.0,0.0,0.0,0.0,-2.0979,-2.188,-2.3133,-2.5222,-2.5437,-2.4874,-2.3539,-2.453,-2.5119,-2.4881,0.0,0.0,0.0,0.0,0.0,0.0,0.0,0.0,0.0,0.0,0.0,0.0,0.0,0.0,0.0,0.0,0.0,0.0,0.0,0.0,0.0,0.0,0.0,0.0,0.0,0.0,0.0,0.0,0.0,0.0,0.0,0.0,0.0,0.0,0.0,0.0,0.0,0.0,0.0,0.0,0.0,0.0,0.0,0.0,0.0,0.0,0.0,0.0,0.0,0.0,0.0,0.0,0.0,0.0,0.0,0.0,0.0,0.0,0.0,0.0,0.0,0.0,0.0,0.0,0.0,0.0,0.0,0.0,0.0,0.0,0.0,0.0,0.0,0.0,0.0,0.0,0.0,0.0,0.0,0.0,0.0,0.0,0.0,0.0,0.0,0.0,0.0,0.0,0.0,0.0,0.0,0.0,0.0,0.0,0.0,0.0,0.0,0.0,0.0,0.0,0.0,0.0,-1.9868,-2.1739,-2.3097,-2.3097,-2.3105,-2.3381,-2.4074,-2.626,-2.7588,0.0,0.0,0.0,0.0,0.0,0.0,0.0,0.0,0.0,0.0,0.0,0.0,0.0,0.0,0.0,0.0,0.0,0.0,0.0,0.0,0.0,0.0,0.0,0.0,0.0,0.0,0.0,0.0,0.0,0.0,0.0,0.0,0.0,0.0,0.0,0.0,0.0,0.0,0.0,0.0,0.0,0.0,0.0,0.0,0.0,0.0,0.0,0.0,0.0,0.0,0.0,0.0,0.0,0.0,0.0,0.0,0.0,0.0,0.0,0.0,0.0,0.0,0.0,0.0,0.0,0.0,0.0,0.0,0.0,0.0,0.0,0.0,0.0,0.0,0.0,0.0,0.0,0.0,0.0,0.0,0.0,0.0,0.0,0.0,0.0,0.0,0.0,0.0,0.0,0.0,0.0,0.0,0.0,0.0,0.0,0.0,0.0,0.0,0.0,0.0,0.0,0.0,0.0,-2.0822,-2.2226,-2.3276,-2.3748,-2.3803,-2.4547,-2.6413,-2.7202,-2.6788,-2.489,0.0,0.0,0.0,0.0,0.0,0.0,0.0,0.0,0.0,0.0,0.0,0.0,0.0,0.0,0.0,0.0,0.0,0.0,0.0,0.0,0.0,0.0,0.0,0.0,0.0,0.0,0.0,0.0,0.0,0.0,0.0,0.0,0.0,0.0,0.0,0.0,0.0,0.0,0.0,0.0,0.0,0.0,0.0,0.0,0.0,0.0,0.0,0.0,0.0,0.0,0.0,0.0,0.0,0.0,0.0,0.0,0.0,0.0,0.0,0.0,0.0,0.0,0.0,0.0,0.0,0.0,0.0,0.0,0.0,0.0,0.0,0.0,0.0,0.0,0.0,0.0,0.0,0.0,0.0,0.0,0.0,0.0,0.0,0.0,0.0,0.0,0.0,0.0,0.0,0.0,0.0,0.0,0.0,0.0,0.0,0.0,0.0,0.0,0.0,0.0,0.0,0.0,-2.0724,-2.2176,-2.3363,-2.4024,-2.4096,-2.5066,-2.739,-2.7605,-2.6443,-2.3762,0.0,0.0,0.0,0.0,0.0,0.0,0.0,0.0,0.0,0.0,0.0,0.0,0.0,0.0,0.0,0.0,0.0,0.0,0.0,0.0,0.0,0.0,0.0,0.0,0.0,0.0,0.0,0.0,0.0,0.0,0.0,0.0,0.0,0.0,0.0,0.0,0.0,0.0,0.0,0.0,0.0,0.0,0.0,0.0,0.0,0.0,0.0,0.0,0.0,0.0,0.0,0.0,0.0,0.0,0.0,0.0,0.0,0.0,0.0,0.0,0.0,0.0,0.0,0.0,0.0,0.0,0.0,0.0,0.0,0.0,0.0,0.0,0.0,0.0,0.0,0.0,0.0,0.0,0.0,0.0,0.0,0.0,0.0,0.0,0.0,0.0,0.0,0.0,0.0,0.0,0.0,0.0,0.0,0.0,0.0,0.0,0.0,0.0,0.0,0.0,0.0,0.0,-1.9885,-2.18,-2.3438,-2.4041,-2.4084,-2.5038,-2.7384,-2.7605,-2.6447,-2.3771,0.0,0.0,0.0,0.0,0.0,0.0,0.0,0.0,0.0,0.0,0.0,0.0,0.0,0.0,0.0,0.0,0.0,0.0,0.0,0.0,0.0,0.0,0.0,0.0,0.0,0.0,0.0,0.0,0.0,0.0,0.0,0.0,0.0,0.0,0.0,0.0,0.0,0.0,0.0,0.0,0.0,0.0,0.0,0.0,0.0,0.0,0.0,0.0,0.0,0.0,0.0,0.0,0.0,0.0,0.0,0.0,0.0,0.0,0.0,0.0,-1.3047,-1.3532,0.0,0.0,0.0,0.0,0.0,0.0,0.0,0.0,0.0,0.0,0.0,0.0,0.0,0.0,0.0,0.0,0.0,0.0,0.0,0.0,0.0,0.0,0.0,0.0,0.0,0.0,0.0,0.0,0.0,0.0,0.0,0.0,0.0,0.0,0.0,0.0,0.0,0.0,0.0,0.0,-1.9603,-2.218,-2.3957,-2.4087,-2.4105,-2.5037,-2.7389,-2.76,-2.6453,-2.3762,-2.3585,0.0,0.0,0.0,0.0,0.0,0.0,0.0,0.0,0.0,0.0,0.0,0.0,0.0,0.0,0.0,0.0,0.0,0.0,0.0,0.0,0.0,0.0,0.0,0.0,0.0,0.0,0.0,0.0,0.0,0.0,0.0,0.0,0.0,0.0,0.0,0.0,0.0,0.0,0.0,0.0,0.0,0.0,0.0,0.0,0.0,0.0,0.0,0.0,0.0,0.0,0.0,0.0,0.0,0.0,0.0,0.0,0.0,0.0,0.0,-1.3136,-1.3726,0.0,0.0,0.0,0.0,0.0,0.0,0.0,0.0,0.0,0.0,0.0,0.0,0.0,0.0,0.0,0.0,0.0,0.0,0.0,0.0,0.0,0.0,0.0,0.0,0.0,0.0,0.0,0.0,0.0,0.0,0.0,0.0,0.0,0.0,0.0,0.0,0.0,0.0,0.0,0.0,-2.0069,-2.2514,-2.4091,-2.411,-2.5094,-2.6277,-2.7492,-2.759,-2.7013,-2.5606,-2.4317,0.0,0.0,0.0,0.0,0.0,0.0,0.0,0.0,0.0,0.0,0.0,0.0,0.0,0.0,0.0,0.0,0.0,0.0,0.0,0.0,0.0,0.0,0.0,0.0,0.0,0.0,0.0,0.0,0.0,0.0,0.0,0.0,0.0,0.0,0.0,0.0,0.0,0.0,0.0,0.0,0.0,0.0,0.0,0.0,0.0,0.0,0.0,0.0,0.0,0.0,0.0,0.0,0.0,-1.1823,-1.1816,-1.1599,-1.1831,-1.2077,-1.2336,-1.3406,-1.4038,-1.4472,-1.5723,0.0,0.0,0.0,0.0,0.0,0.0,0.0,0.0,0.0,0.0,0.0,0.0,0.0,0.0,0.0,0.0,0.0,0.0,0.0,0.0,0.0,0.0,-1.8919,-1.9011,-1.9378,-1.9488,-1.867,0.0,0.0,0.0,0.0,0.0,0.0,0.0,0.0,0.0,0.0,0.0,-2.0695,-2.2683,-2.4096,-2.4104,-2.6186,-2.7596,-2.7594,-2.7605,-2.7616,-2.7596,-2.5068,-2.36,0.0,0.0,0.0,0.0,0.0,0.0,0.0,0.0,0.0,0.0,0.0,0.0,0.0,0.0,0.0,0.0,0.0,0.0,0.0,0.0,0.0,0.0,0.0,0.0,0.0,0.0,0.0,0.0,0.0,0.0,0.0,0.0,-0.7396,-0.7106,0.0,0.0,0.0,0.0,0.0,0.0,0.0,0.0,0.0,0.0,0.0,0.0,0.0,-1.1591,-1.1591,-1.1591,-1.1591,-1.1591,-1.1635,-1.1635,-1.1591,-1.1635,-1.2313,-1.3493,-1.4175,0.0,-1.5078,-1.6366,0.0,0.0,0.0,0.0,0.0,0.0,0.0,0.0,0.0,0.0,0.0,0.0,0.0,0.0,0.0,0.0,0.0,0.0,0.0,0.0,0.0,0.0,-1.9011,-1.947,-1.9643,-1.976,-2.0045,-1.982,-1.9679,-2.0022,-1.961,-1.9349,0.0,0.0,0.0,0.0,0.0,0.0,-2.0693,-2.2696,-2.41,-2.4116,-2.6201,-2.7602,-2.7614,-2.7585,-2.7603,-2.7596,-2.5084,-2.3595,-2.3586,-2.3601,0.0,0.0,0.0,0.0,0.0,0.0,0.0,0.0,0.0,0.0,0.0,0.0,0.0,0.0,0.0,0.0,0.0,0.0,0.0,0.0,0.0,0.0,0.0,0.0,0.0,0.0,0.0,0.0,0.0,-0.6722,-0.6811,-0.6651,-0.6909,-0.7297,0.0,0.0,0.0,0.0,0.0,0.0,0.0,0.0,0.0,-1.1591,-1.1591,-1.1591,-1.1591,-1.1736,-1.1736,-1.1599,-1.1926,-1.1943,-1.163,-1.2146,-1.2862,-1.3763,-1.502,-1.5864,-1.6433,-1.7108,-1.7399,-1.7389,0.0,0.0,0.0,0.0,-1.6974,-1.6758,-1.7046,-1.714,-1.7189,-1.7453,0.0,0.0,0.0,0.0,0.0,0.0,0.0,-1.8662,-1.9206,-1.9551,-1.9803,-2.0044,-2.0521,-2.0981,-2.1181,-2.1302,-2.1212,-2.0855,-2.0962,-2.1013,-2.0707,-2.0052,0.0,0.0,0.0,-2.0701,-2.0696,-2.1586,-2.2181,-2.2181,-2.5455,-2.761,-2.759,-2.76,-2.7599,-2.7596,-2.5067,-2.3608,-2.3603,-2.3595,-2.3595,0.0,0.0,0.0,0.0,0.0,0.0,0.0,0.0,0.0,0.0,0.0,0.0,0.0,0.0,0.0,0.0,0.0,0.0,0.0,0.0,0.0,0.0,0.0,0.0,0.0,0.0,0.0,0.0,-0.6383,-0.635,-0.6387,-0.6581,-0.6905,0.0,0.0,0.0,0.0,0.0,0.0,-1.0307,-1.0699,-1.1115,-1.1591,-1.1591,-1.1635,-1.1716,-1.1886,-1.1923,-1.1848,-1.2292,-1.2369,-1.2166,-1.2843,-1.3615,-1.4444,-1.5859,-1.6904,-1.7677,-1.7814,-1.7874,-1.7854,-1.775,-1.7492,-1.7234,-1.7575,-1.7482,-1.7234,-1.7585,-1.776,-1.7842,-1.7945,-1.8337,-1.8774,-1.8816,0.0,0.0,0.0,0.0,-1.9436,-2.0088,-2.0515,-2.0801,-2.0918,-2.1542,-2.2125,-2.2261,-2.2463,-2.2388,-2.1745,-2.2146,-2.2435,-2.1942,-2.1222,0.0,-2.1483,-2.1571,-2.1578,-2.1577,-2.2083,-2.2458,-2.2485,-2.5559,-2.7613,-2.759,-2.76,-2.7599,-2.7596,-2.5067,-2.3591,-2.3599,-2.3606,-2.3606,-2.3606,0.0,0.0,0.0,0.0,0.0,0.0,0.0,0.0,0.0,0.0,0.0,0.0,0.0,0.0,0.0,0.0,0.0,0.0,0.0,0.0,0.0,0.0,0.0,0.0,0.0,0.0,0.0,0.0,0.0,-0.6383,-0.7003,0.0,0.0,0.0,0.0,-0.8705,-0.9416,-0.9958,-1.0275,-1.0919,-1.1373,-1.1591,-1.1591,-1.1706,-1.1974,-1.1996,-1.2149,-1.2475,-1.2504,-1.2874,-1.3619,-1.3627,-1.4582,-1.6192,-1.6678,-1.7435,-1.8338,-1.8361,-1.835,-1.8309,-1.7864,-1.7688,-1.7668,-1.7699,-1.7688,-1.7668,-1.7699,-1.7904,-1.8285,-1.9075,-1.9736,-2.0224,-1.9774,-1.9654,0.0,0.0,-2.032,-2.0555,-2.1528,-2.1817,-2.1952,-2.2384,-2.2518,-2.2695,-2.3198,-2.2932,-2.267,-2.2945,-2.2767,-2.2892,-2.3793,0.0,-2.1415,-2.3608,-2.392,-2.392,-2.392,-2.5875,-2.7257,-2.7246,-2.745,-2.759,-2.76,-2.76,-2.7599,-2.7596,-2.5067,-2.3601,-2.3598,-2.3606,-2.3606,-2.3606,-2.3606,0.0,0.0,0.0,0.0,0.0,0.0,0.0,0.0,0.0,0.0,0.0,0.0,0.0,0.0,0.0,0.0,0.0,0.0,0.0,0.0,0.0,0.0,0.0,0.0,0.0,0.0,0.0,0.0,-0.6387,-0.7036,0.0,-0.7489,-0.8613,-0.9384,-0.9538,-1.0313,-1.0939,-1.1357,-1.1636,-1.1891,-1.2175,-1.2175,-1.2233,-1.2317,-1.2521,-1.2614,-1.2492,-1.2731,-1.3135,-1.3733,-1.4238,-1.5245,-1.659,-1.7406,-1.8092,-1.8662,-1.8794,-1.8859,-1.8839,-1.8683,-1.8413,-1.8185,-1.8485,-1.8402,-1.8217,-1.8753,-1.8847,-1.8901,-1.963,-2.0091,-2.0377,-2.0205,-2.0347,-2.0647,-2.0801,-2.1109,-2.1523,-2.2186,-2.2351,-2.24,-2.2555,-2.2859,-2.3168,-2.3373,-2.3509,-2.3603,-2.3721,-2.3141,-2.2917,-2.3913,-2.3441,-2.315,-2.3966,-2.4104,-2.4092,-2.4109,-2.4824,-2.5925,-2.7446,-2.7609,-2.76,-2.76,-2.7585,-2.7613,-2.7596,-2.5082,-2.359,-2.3599,-2.5245,-2.6165,-2.6165,-2.4467,-2.3591,0.0,0.0,0.0,0.0,0.0,0.0,0.0,0.0,0.0,0.0,0.0,0.0,0.0,0.0,0.0,0.0,0.0,0.0,0.0,0.0,0.0,0.0,0.0,0.0,0.0,-0.6317,-0.635,-0.6387,-0.726,-0.7847,-0.7847,-0.9224,-1.0186,-1.0376,-1.1048,-1.1617,-1.1989,-1.2105,-1.2266,-1.2477,-1.2485,-1.2543,-1.2687,-1.2899,-1.2958,-1.2848,-1.3299,-1.3878,-1.4512,-1.5293,-1.6278,-1.7459,-1.8107,-1.8609,-1.8908,-1.9042,-1.9108,-1.9108,-1.9108,-1.8911,-1.8683,-1.8994,-1.8911,-1.8726,-1.9367,-1.9539,-1.9551,-2.0291,-2.0717,-2.0931,-2.1103,-2.1366,-2.1626,-2.1831,-2.213,-2.2513,-2.2982,-2.31,-2.31,-2.31,-2.3378,-2.3641,-2.3641,-2.3878,-2.4083,-2.4083,-2.3542,-2.3326,-2.4,-2.4084,-2.4095,-2.408,-2.411,-2.4375,-2.519,-2.5277,-2.5888,-2.7435,-2.7609,-2.76,-2.76,-2.7608,-2.7213,-2.6311,-2.4574,-2.3595,-2.3606,-2.5325,-2.6247,-2.6247,-2.4505,-2.3592,-2.3592,0.0,0.0,0.0,0.0,0.0,0.0,0.0,0.0,0.0,0.0,0.0,0.0,0.0,0.0,0.0,0.0,0.0,0.0,0.0,0.0,0.0,0.0,0.0,-0.6387,-0.628,-0.6247,-0.6383,-0.7614,-0.849,-0.849,-0.9869,-1.087,-1.1104,-1.1546,-1.1887,-1.2032,-1.2332,-1.2507,-1.2514,-1.2514,-1.2701,-1.3023,-1.3023,-1.3184,-1.3528,-1.4258,-1.5092,-1.607,-1.6784,-1.7731,-1.8808,-1.8808,-1.8908,-1.9108,-1.9108,-1.9108,-1.9108,-1.9108,-1.9108,-1.9108,-1.9108,-1.9108,-1.9164,-1.9473,-1.9857,-2.0291,-2.1135,-2.1639,-2.2002,-2.2451,-2.2592,-2.2725,-2.3258,-2.3403,-2.3522,-2.3966,-2.4083,-2.4083,-2.4083,-2.4083,-2.4083,-2.4083,-2.4083,-2.4083,-2.4083,-2.4083,-2.4083,-2.4083,-2.4083,-2.4108,-2.4091,-2.4178,0.0,-2.7317,-2.7618,-2.7612,-2.7612,-2.7616,-2.76,-2.76,-2.7608,-2.6464,-2.3767,-2.3684,-2.3717,-2.3711,-2.3722,-2.3681,-2.3614,-2.3674,-2.3712,-2.3719,0.0,0.0,0.0,0.0,0.0,0.0,0.0,0.0,0.0,0.0,0.0,0.0,0.0,0.0,0.0,0.0,0.0,0.0,0.0,0.0,0.0,-0.5885,-0.6086,-0.6247,-0.6317,-0.635,-0.6387,-0.7228,-0.7972,-0.8458,-0.9544,-1.0564,-1.1342,-1.1725,-1.2174,-1.2716,-1.2826,-1.2987,-1.3221,-1.3228,-1.3272,-1.336,-1.336,-1.3678,-1.4294,-1.4494,-1.5376,-1.6819,-1.7164,-1.7867,-1.8808,-1.8942,-1.9031,-1.9108,-1.9108,-1.9108,-1.9108,-1.9108,-1.9108,-1.9108,-1.9108,-1.9241,-1.9473,-1.9572,-2.0248,-2.1071,-2.1325,-2.1877,-2.2439,-2.2561,-2.2859,-2.3198,-2.3373,-2.3641,-2.3936,-2.4054,-2.4083,-2.4083,-2.4083,-2.4083,-2.4083,-2.4083,-2.4083,-2.4083,-2.4083,-2.4083,-2.4083,-2.4083,-2.4083,-2.4108,-2.4091,-2.5536,-2.6854,-2.7506,-2.7595,-2.7607,-2.7607,-2.7594,-2.76,-2.76,-2.7608,-2.6464,-2.3767,-2.5423,-2.65,-2.6505,-2.6492,-2.5576,-2.3629,-2.5518,-2.6488,0.0,0.0,0.0,0.0,0.0,0.0,0.0,0.0,0.0,0.0,0.0,0.0,0.0,0.0,0.0,0.0,0.0,0.0,0.0,0.0,0.0,0.0,-0.5752,-0.5954,-0.6181,-0.628,-0.635,-0.6387,-0.7036,-0.7816,-0.8592,-0.9512,-1.0542,-1.1616,-1.2064,-1.2504,-1.2987,-1.314,-1.3301,-1.3492,-1.3492,-1.3492,-1.3492,-1.3492,-1.3876,-1.4601,-1.4985,-1.5904,-1.7242,-1.7755,-1.8317,-1.8942,-1.9031,-1.9108,-1.9108,-1.9108,-1.9108,-1.9108,0.0,0.0,0.0,0.0,-1.9308,-1.9638,-1.9824,-2.0549,-2.1451,-2.1865,-2.2433,-2.2962,-2.3173,-2.3467,-2.37,-2.37,-2.3878,-2.4083,-2.4083,-2.4083,-2.4083,-2.4083,-2.4083,-2.4083,-2.4083,-2.4083,-2.4083,-2.4083,-2.4083,0.0,-2.41,-2.4103,-2.4101,-2.4094,-2.6085,-2.7615,-2.7595,-2.7593,-2.76,-2.76,-2.76,-2.76,-2.76,-2.7608,0.0,0.0,0.0,-2.7592,-2.7592,-2.7592,0.0,0.0,0.0,0.0,0.0,0.0,0.0,0.0,-2.529,-2.5271,0.0,0.0,0.0,0.0,0.0,0.0,0.0,0.0,0.0,0.0,0.0,0.0,0.0,0.0,0.0,0.0,-0.5752,-0.5921,-0.6148,-0.6181,-0.6214,-0.6383,-0.697,-0.7767,-0.8813,-0.9604,-1.0635,-1.197,-1.2458,-1.2805,-1.3025,-1.3338,0.0,0.0,0.0,-1.3492,-1.3492,-1.3492,-1.3912,-1.4744,-1.5587,-1.6532,-1.755,-1.8428,-1.8908,-1.9108,-1.9108,-1.9108,-1.9108,-1.9108,-1.9108,-1.9108,-1.9108,-1.9108,-1.9108,-1.9108,-1.9308,-1.9671,-2.0182,0.0,0.0,-2.2561,-2.3143,-2.3552,-2.3966,-2.4083,-2.4083,-2.4083,-2.4083,-2.4083,-2.4083,-2.4083,-2.4083,-2.4083,-2.4083,-2.4083,-2.4083,-2.4083,-2.4112,-2.4102,-2.4102,-2.4113,-2.4111,-2.4331,-2.4502,-2.4496,-2.6254,-2.7613,-2.7594,-2.76,-2.76,-2.76,-2.76,0.0,-2.76,-2.7599,-2.7593,-2.761,-2.7599,-2.7601,-2.7601,-2.7601,-2.7601,-2.7601,-2.7601,-2.7608,-2.76,-2.7604,-2.7601,-2.7594,-2.76,-2.7765,0.0,0.0,0.0,0.0,0.0,0.0,0.0,0.0,0.0,0.0,0.0,0.0,0.0,0.0,0.0,-0.5458,-0.5554,-0.5719,-0.5921,-0.5954,-0.6053,-0.6354,-0.6515,-0.7211,-0.8746,-0.9203,-1.0245,-1.2242,-1.2586,-1.2906,-1.3389,-1.3462,-1.3492,-1.3492,-1.3492,-1.3492,-1.3492,-1.3492,-1.4165,-1.549,-1.5834,0.0,-1.8303,-1.864,-1.8908,-1.9108,-1.9108,-1.9108,-1.9108,-1.9108,-1.9108,-1.9108,-1.9108,-1.9108,-1.9108,-1.9108,-1.9308,-1.9704,-2.0505,-2.129,-2.2113,-2.3005,-2.3599,-2.3966,-2.4083,-2.4083,0.0,-2.4083,-2.4083,-2.4083,-2.4083,-2.4083,-2.4083,-2.4083,-2.4083,-2.4083,-2.4083,-2.4083,-2.4105,-2.4099,-2.4103,-2.4099,-2.4108,-2.5661,-2.6918,-2.6912,-2.7308,-2.7613,-2.7594,-2.76,-2.76,-2.76,-2.76,-2.76,-2.76,-2.759,-2.759,-2.7585,-2.759,-2.76,-2.76,-2.76,-2.76,-2.76,-2.76,-2.759,-2.76,-2.7609,-2.7602,-2.7594,-2.7595,-2.873,0.0,0.0,0.0,0.0,0.0,0.0,0.0,0.0,0.0,0.0,0.0,-0.5491,-0.5425,0.0,-0.5491,-0.5425,-0.5458,-0.5591,-0.5855,-0.5888,-0.6024,-0.6354,-0.6387,-0.7118,-0.898,-0.9252,-1.0257,-1.2512,-1.2777,-1.2992,-1.3484,-1.3492,-1.3492,-1.3492,-1.3492,-1.3492,-1.3492,-1.3492,-1.4302,-1.5842,-1.6053,-1.7026,-1.865,-1.8875,-1.8998,-1.9108,-1.9108,-1.9108,-1.9108,-1.9108,-1.9108,-1.9108,-1.9108,-1.9108,-1.9108,-1.9274,-1.9715,-2.0355,-2.1195,-2.2051,-2.2854,-2.3539,-2.3907,-2.4083,-2.4083,-2.4083,-2.4083,-2.4083,-2.4083,-2.4083,-2.4083,-2.4083,-2.4083,-2.4083,-2.4083,-2.4083,-2.4083,-2.4111,-2.411,-2.4106,-2.505,-2.584,-2.5847,-2.6827,-2.76,-2.7606,-2.7583,-2.7601,-2.759,-2.76,-2.76,-2.76,-2.76,-2.76,-2.76,-2.76,-2.76,-2.76,-2.76,-2.76,-2.76,-2.76,-2.76,-2.76,-2.76,-2.7585,-2.7593,-2.7605,-2.8267,-2.9538,-2.9549,-3.0259,0.0,0.0,0.0,0.0,0.0,0.0,0.0,-0.5859,-0.5826,-0.5491,-0.5488,-0.5521,-0.5428,-0.5395,-0.5395,-0.5395,-0.5395,-0.5528,-0.5859,-0.5888,-0.6024,-0.6354,-0.6448,-0.7227,-0.9222,-0.9443,-1.0438,-1.2741,-1.2936,-1.3119,-1.3499,-1.3492,-1.3492,-1.3492,-1.3492,-1.3492,-1.3492,-1.3492,-1.4338,-1.5939,-1.6193,-1.7173,-1.8741,-1.9008,-1.9108,-1.9108,-1.9108,-1.9108,-1.9108,-1.9108,-1.9108,-1.9108,-1.9108,-1.9164,-1.933,-1.9627,-2.0226,-2.1037,-2.1916,-2.275,-2.3492,-2.3936,-2.4083,-2.4083,-2.4083,-2.4083,-2.4083,-2.4083,-2.4083,-2.4083,-2.4083,-2.4083,-2.4083,-2.4083,-2.4102,-2.4092,-2.4092,-2.4114,-2.4224,-2.4693,-2.6299,-2.7598,-2.7609,-2.7617,-2.7591,-2.7604,-2.76,-2.76,-2.76,-2.76,-2.76,-2.76,-2.76,-2.76,-2.76,-2.76,-2.76,-2.76,-2.76,-2.7595,-2.761,-2.7605,-2.7615,-2.7604,-2.759,-2.7593,-2.7599,-2.7986,-2.9316,-3.1508,-3.1505,-3.1493,-0.5216,-0.4855,-0.4888,-0.5014,-0.5348,-0.5617,0.0,-0.569,-0.5855,-0.5617,-0.5488,-0.5428,-0.5395,-0.5395,-0.5395,-0.5395,-0.5395,-0.5528,-0.5859,-0.5888,-0.6024,-0.6354,-0.6554,-0.7374,-0.9238,-0.9669,-1.0671,-1.2762,-1.3083,-1.3273,-1.3492,-1.3492,-1.3492,-1.3492,-1.3492,-1.3492,-1.3492,-1.3492,-1.423,-1.5745,-1.6132,-1.7079,-1.8549,-1.8942,-1.9108,-1.9108,-1.9108,-1.9108,-1.9108,-1.9108,-1.9108,-1.9108,-1.9108,-1.9462,-1.9998,-2.015,-2.0494,-2.1069,-2.2304,-2.3022,-2.3492,-2.3936,-2.4083,-2.4083,-2.4083,-2.4083,-2.4083,-2.4083,-2.4083,-2.4083,-2.4083,-2.4083,-2.4083,-2.4083,-2.4089,-2.4091,-2.4091,-2.4117,-2.4723,-2.6806,-2.7413,-2.7594,-2.7603,-2.7594,-2.7594,-2.76,-2.76,-2.76,-2.76,-2.76,-2.76,-2.76,-2.76,-2.76,-2.76,-2.76,-2.76,-2.76,-2.76,-2.759,-2.7598,-2.7585,-2.7588,-2.7597,-2.7599,-2.7607,-2.7589,-2.9333,-3.0633,-3.1494,-3.1502,-3.15,-0.477,-0.4525,-0.4486,-0.4749,-0.4981,-0.5084,-0.4957,-0.5355,-0.562,-0.5223,-0.5425,-0.5656,-0.5545,-0.5453,-0.5289,-0.4931,-0.5182,-0.5359,-0.5286,-0.562,-0.6058,-0.652,-0.6759,-0.7526,-0.9254,-0.9589,-1.0597,-1.2725,-1.2973,-1.3156,-1.3499,-1.3492,-1.3492,-1.3492,-1.3492,-1.3492,-1.3492,-1.3492,-1.3822,-1.4428,-1.533,-1.6858,-1.8841,-1.9008,-1.9108,-1.9108,-1.9108,-1.9108,-1.9108,-1.9108,-1.9108,-1.9142,-1.9395,-1.9802,-2.0247,-2.0526,-2.1195,-2.2009,-2.2859,-2.3437,-2.3848,-2.4024,-2.4083,-2.4083,-2.4083,-2.4083,-2.4083,-2.4083,-2.4083,-2.4083,-2.4083,-2.4083,-2.4102,-2.4105,-2.4103,-2.4482,-2.5841,-2.6127,-2.6445,-2.7407,-2.7595,-2.7612,-2.759,-2.76,-2.76,-2.76,-2.76,-2.76,-2.76,-2.76,-2.76,-2.76,-2.76,-2.76,-2.76,-2.76,-2.76,-2.76,-2.7595,-2.7601,-2.7609,-2.8682,-2.8763,-2.7627,-2.8709,-2.9279,-2.9293,-3.0117,-3.167,-3.3875,-3.3601,-3.2951,-0.4099,-0.4092,-0.4123,-0.432,-0.4486,-0.4553,-0.4425,-0.4855,-0.5186,-0.4628,-0.4957,-0.5256,-0.4987,-0.4858,-0.4733,-0.4519,-0.4879,-0.5173,-0.5172,-0.5651,-0.6202,-0.663,-0.6922,-0.7596,-0.9009,-0.958,-1.0705,-1.2732,-1.301,-1.3193,-1.3499,-1.3492,-1.3492,-1.3492,-1.3492,-1.3492,-1.3492,-1.3491,-1.3481,-1.3529,-1.496,-1.6784,-1.8942,-1.9031,-1.9108,-1.9108,-1.9108,-1.9108,-1.9108,-1.9108,-1.9108,-1.9142,-1.9614,-2.0118,-2.0655,-2.1069,-2.1854,-2.2756,-2.3378,-2.3819,-2.4083,-2.4083,-2.4083,-2.4083,-2.4083,-2.4083,-2.4083,-2.4083,-2.4083,-2.4083,-2.4083,-2.4089,-2.4116,-2.4091,-2.4596,-2.555,-2.7227,-2.7595,-2.7598,-2.7598,-2.7612,-2.76,-2.76,-2.76,-2.76,-2.76,-2.76,-2.76,-2.76,-2.76,-2.76,-2.76,-2.76,-2.76,-2.76,-2.76,-2.7605,-2.759,-2.761,-2.7839,-2.8373,-2.9743,-2.9831,-2.8424,-2.9794,-3.05,-3.0499,-3.1452,-3.317,-3.5592,-3.5243,-3.4453,-0.282,-0.3123,-0.3496,-0.3293,-0.3627,-0.3992,-0.3859,-0.4259,-0.4492,-0.3925,-0.3859,-0.3756,-0.3355,-0.3284,-0.3549,-0.4381,-0.4574,-0.4974,-0.5937,-0.6234,-0.6474,-0.6658,-0.7005,-0.7504,-0.8336,-0.9665,-1.1156,-1.2783,-1.3273,-1.3492,-1.3492,-1.3492,-1.3492,-1.3492,-1.3492,-1.3492,-1.3492,-1.3504,-1.3513,-1.3535,-1.5377,-1.7048,-1.8516,-1.8908,-1.9108,-1.9108,-1.9108,-1.9108,-1.9108,-1.9108,-1.9108,-1.9142,-1.9614,-2.0443,-2.142,-2.1896,-2.2366,-2.2925,-2.3793,-2.4083,-2.4083,-2.4083,-2.4083,-2.4083,-2.4083,-2.4083,-2.4083,-2.4083,-2.4083,-2.4083,-2.4083,-2.4105,-2.4108,-2.4095,-2.5838,-2.7518,-2.7574,-2.7583,-2.7615,-2.7615,-2.76,-2.76,-2.76,-2.76,-2.76,-2.76,-2.76,-2.76,-2.76,-2.76,-2.76,-2.76,-2.76,-2.76,-2.76,-2.76,-2.7615,-2.7616,-2.7609,-2.8436,-3.0325,-3.048,-3.0464,-3.041,-3.0484,-3.0484,-3.0514,-3.3823,-3.5511,-3.5605,-3.5586,-3.5549,-0.2592,-0.2981,-0.3295,-0.3226,-0.3326,-0.346,-0.3426,-0.3825,-0.4061,-0.3527,-0.3689,-0.3806,-0.34,-0.3307,-0.3234,-0.3107,-0.3699,-0.429,-0.472,-0.5477,-0.6264,-0.6961,-0.7118,-0.7563,-0.8506,-0.9622,-1.0795,-1.2003,-1.2863,-1.3346,-1.3492,-1.3492,-1.3492,-1.3492,-1.3492,-1.3492,-1.3492,-1.3504,-1.4498,-1.6482,-1.7614,-1.8425,-1.8908,-1.9042,-1.9108,-1.9108,-1.9108,-1.9108,-1.9098,-1.9117,-1.9098,-1.911,-1.9287,-2.0176,-2.15,-2.2421,-2.3143,-2.3691,-2.3995,-2.4083,-2.4083,-2.4083,-2.4083,-2.4083,-2.4083,-2.4083,-2.4083,-2.4083,-2.4083,-2.4083,-2.4083,-2.4092,-2.4482,-2.6064,-2.7012,-2.7594,-2.7605,-2.7599,-2.76,-2.76,-2.76,-2.76,-2.76,-2.76,-2.7584,-2.7613,-2.7593,-2.76,-2.76,-2.76,-2.76,-2.76,-2.76,-2.761,-2.7606,-2.7591,-2.7601,-2.7612,-2.8807,-2.9814,-3.0462,-3.0505,-3.0516,-3.0489,-3.0497,-3.0513,-3.0509,-3.3926,-3.5594,-3.5605,-3.5605,-3.5603,-0.181,-0.238,-0.2845,-0.2845,-0.3035,-0.3192,-0.3192,-0.346,-0.356,-0.2958,-0.2954,-0.2872,-0.2364,-0.2236,-0.2192,-0.209,-0.2815,-0.3679,-0.4442,-0.5255,-0.6138,-0.7101,-0.7281,-0.7547,-0.8194,-0.9276,-1.0392,-1.1422,-1.2629,-1.3346,-1.3492,-1.3492,-1.3492,-1.3492,-1.3492,-1.3492,-1.3492,-1.3509,-1.5145,-1.839,-1.8876,-1.9096,-1.9108,-1.9108,-1.9108,-1.9108,-1.9108,-1.9108,-1.9088,-1.9111,-1.9673,-2.0519,-2.0531,-2.0858,-2.1427,-2.251,-2.3416,-2.4083,-2.4083,-2.4083,-2.4083,-2.4083,-2.4083,-2.4083,-2.4083,-2.4083,-2.4099,-2.4097,-2.41,-2.4103,-2.4112,-2.4086,-2.4682,-2.7043,-2.7592,-2.7598,-2.7594,-2.76,-2.76,-2.76,-2.76,-2.76,-2.76,-2.7614,-2.7594,-2.7605,-2.8397,-2.8643,-2.7717,-2.7605,-2.7597,-2.7597,-2.7609,-2.759,-2.7601,-2.8233,-2.863,-2.8632,-2.9812,-3.0495,-3.0489,-3.0501,-3.0588,-3.0745,-3.0766,-3.0759,-3.0754,-3.4006,-3.5601,-3.56,-3.56,-3.56,-0.061,-0.1347,-0.2152,-0.2184,-0.2663,-0.3159,-0.3192,-0.3192,-0.2991,-0.2288,-0.1715,-0.1051,-0.0314,-0.0245,-0.0571,-0.1311,-0.2039,-0.3163,-0.5035,-0.5504,-0.6034,-0.7013,-0.7345,-0.7484,-0.7484,-0.8642,-0.9814,-1.0853,-1.2528,-1.3492,-1.3492,-1.3492,-1.3492,-1.3492,-1.3492,-1.3492,-1.3492,-1.3684,-1.5558,-1.9091,-1.9091,-1.9093,-1.9108,-1.9108,-1.9108,-1.9108,-1.9108,-1.9108,-1.911,-1.9101,-2.0702,-2.314,-2.3157,-2.2372,-2.1362,-2.232,-2.3272,-2.4083,-2.4083,-2.4083,-2.4083,-2.4083,-2.4083,-2.4083,-2.4083,-2.4112,-2.4092,-2.4089,-2.4191,-2.4292,-2.4286,-2.4284,-2.4843,-2.7071,-2.7609,-2.76,-2.76,-2.76,-2.76,-2.76,-2.76,-2.76,-2.76,-2.7654,-2.7735,-2.7779,-2.992,-3.0603,-2.8113,-2.7783,-2.775,-2.7594,-2.7586,-2.76,-2.7594,-2.9397,-3.0495,-3.0495,-3.0506,-3.0489,-3.0506,-3.051,-3.0712,-3.1202,-3.12,-3.1278,-3.1421,-3.4228,-3.5593,-3.56,-3.56,-3.56,-0.0641,-0.1059,-0.1641,-0.2089,-0.2333,-0.2584,-0.3092,-0.3192,-0.2891,-0.1748,-0.1412,-0.095,0.0174,-0.0036,-0.0437,-0.0565,-0.1681,-0.2815,-0.3758,-0.4642,-0.5487,-0.6339,-0.7069,-0.7484,-0.7484,-0.7795,-0.8112,-0.8379,-1.1568,-1.3492,-1.3492,-1.3492,-1.3492,-1.3492,-1.3492,-1.3492,-1.3492,-1.628,-1.8144,-1.9091,-1.9116,-1.9085,-1.9108,-1.9108,-1.9108,-1.9108,-1.9108,-1.9108,-1.91,-1.9115,-2.0953,-2.3846,-2.3867,-2.3637,-2.3365,-2.3619,-2.3865,-2.4083,-2.4083,-2.4083,-2.4083,-2.4083,-2.4083,-2.4083,-2.4083,-2.4113,-2.4087,-2.4093,-2.5355,-2.6717,-2.6728,-2.6714,-2.6875,-2.7474,-2.7609,-2.76,-2.76,-2.76,-2.76,-2.76,-2.76,-2.76,-2.76,-2.8437,-2.9411,-3.0369,-3.1065,-3.125,-3.0603,-3.0494,-2.9754,-2.7817,-2.7588,-2.7612,-2.7605,-2.9373,-3.0499,-3.0491,-3.0513,-3.0493,-3.051,-3.0499,-3.073,-3.1178,-3.1202,-3.2286,-3.4481,-3.5222,-3.5591,-3.56,-3.56,-3.56,-0.0182,-0.0462,-0.0946,-0.1608,-0.1986,-0.2315,-0.2686,-0.2686,-0.2283,-0.1109,-0.0605,-0.0102,0.0802,0.0394,-0.0073,-0.0188,-0.1351,-0.2586,-0.3599,-0.4256,-0.5184,-0.6588,-0.7211,-0.7484,-0.7484,-0.7487,-0.7497,-0.7493,-1.1236,-1.3492,-1.3492,-1.3492,-1.3492,-1.3492,-1.3492,-1.3498,-1.3502,-1.7208,-1.9089,-1.9083,-1.9085,-1.9108,-1.9108,-1.9108,-1.9108,-1.9108,-1.9108,-1.9108,-1.91,-1.9105,-2.0908,-2.3685,-2.4004,-2.4096,-2.4119,-2.4119,-2.4093,-2.4083,-2.4083,-2.4083,-2.4083,-2.4083,-2.4083,-2.4086,-2.4113,-2.4099,-2.4317,-2.5356,-2.6572,-2.7608,-2.7595,-2.7617,-2.7587,-2.7587,-2.7607,-2.76,-2.76,-2.76,-2.76,-2.76,-2.76,-2.78,-2.8383,-2.9087,-3.0023,-3.1314,-3.15,-3.1682,-3.2194,-3.2249,-3.1727,-3.0396,-3.0682,-3.0401,-2.8987,-2.9873,-3.0495,-3.0497,-3.0493,-3.058,-3.0791,-3.2047,-3.2865,-3.3128,-3.3132,-3.3948,-3.5603,-3.5601,-3.5593,-3.56,-3.56,-3.56,0.0399,0.0184,-0.0215,-0.1016,-0.1641,-0.208,-0.2181,-0.2045,-0.1576,-0.0437,0.0336,0.095,0.1436,0.0969,0.0404,0.0038,-0.1005,-0.2271,-0.3707,-0.4055,-0.4872,-0.6773,-0.7284,-0.7484,-0.7484,-0.7491,-0.758,-0.7805,-1.136,-1.3506,-1.3499,-1.3492,-1.3492,-1.3506,-1.3499,-1.3611,-1.3801,-1.7329,-1.9111,-1.9108,-1.9108,-1.9108,-1.9108,-1.9108,-1.9108,-1.9108,-1.9108,-1.9108,-1.91,-1.9105,-2.074,-2.3282,-2.3871,-2.4096,-2.4083,-2.4083,-2.4083,-2.4083,-2.4083,-2.4083,-2.4083,-2.4083,-2.4083,-2.4089,-2.4103,-2.4316,-2.4996,-2.7016,-2.7597,-2.7598,-2.7599,-2.76,-2.76,-2.76,-2.76,-2.76,-2.76,-2.76,-2.76,-2.76,-2.76,-2.8006,-2.9251,-2.961,-3.0111,-3.1313,-3.1556,-3.2016,-3.306,-3.3197,-3.336,-3.3741,-3.4716,-3.4218,-3.1401,-3.1002,-3.0877,-3.087,-3.107,-3.1357,-3.1779,-3.4249,-3.5596,-3.5608,-3.5591,-3.5598,-3.5594,-3.5604,-3.56,-3.56,-3.56,-3.56,0.0329,0.0393,0.0154,-0.0923,-0.1256,-0.1444,-0.2047,-0.2045,-0.1476,0.0034,0.0605,0.1059,0.1974,0.1636,0.1074,0.0542,-0.0352,-0.1331,-0.2306,-0.3272,-0.4003,-0.4383,-0.6259,-0.7484,-0.7484,-0.7516,-0.8052,-0.9398,-1.1987,-1.3483,-1.3499,-1.3492,-1.3513,-1.3503,-1.3481,-1.4124,-1.5403,-1.7861,-1.9097,-1.9108,-1.9108,-1.9108,-1.9108,-1.9108,-1.9108,-1.9108,-1.9108,-1.9108,-1.91,-1.9094,-2.1014,-2.3923,-2.4043,-2.4106,-2.4083,-2.4083,-2.4083,-2.4083,-2.4083,-2.4083,-2.4083,-2.4083,-2.4083,-2.4089,-2.4103,-2.5439,-2.7064,-2.7486,-2.7617,-2.7599,-2.7615,-2.76,-2.76,-2.76,-2.76,-2.76,-2.76,-2.76,-2.76,-2.76,-2.76,-2.7865,-2.8629,-2.9594,-3.0519,-3.1286,-3.1903,-3.248,-3.3134,-3.3208,-3.357,-3.4561,-3.521,-3.5338,-3.4751,-3.36,-3.2909,-3.2885,-3.4037,-3.4755,-3.484,-3.5339,-3.5583,-3.5608,-3.5603,-3.5601,-3.5594,-3.5605,-3.56,-3.56,-3.56,-3.56,0.0404,0.0563,0.0379,-0.0851,-0.114,-0.121,-0.1545,0.0,0.0,0.0773,0.1327,0.1663,0.217,0.168,0.1311,0.1458,0.0039,-0.1493,-0.2815,-0.3452,-0.4295,-0.5571,-0.6782,-0.7484,-0.7484,-0.7486,-0.8179,-0.9766,-1.2125,-1.3491,-1.3499,-1.3492,-1.3499,-1.3505,-1.5007,-1.636,-1.7496,-1.8556,-1.9093,-1.9108,-1.9108,-1.9108,-1.9108,-1.9108,-1.9108,-1.9108,-1.9108,-1.9102,-1.9098,-1.9094,-2.1078,-2.4088,-2.4111,-2.4093,-2.4083,-2.4083,-2.4083,-2.4083,-2.4083,-2.4095,-2.4092,-2.4092,-2.4092,-2.4083,-2.4102,-2.5741,-2.7588,-2.7595,-2.7593,-2.76,-2.76,-2.76,-2.76,-2.76,-2.76,-2.76,-2.76,-2.76,-2.76,-2.76,-2.7884,-2.8323,-2.8996,-3.0118,-3.1147,-3.184,-3.2439,-3.3055,-3.3624,-3.3722,-3.3963,-3.4578,-3.5188,-3.5551,-3.5604,-3.496,-3.4549,-3.4549,-3.5219,-3.5586,-3.5601,-3.5589,-3.5584,-3.5603,-3.5603,-3.5587,-3.56,-3.56,-3.56,-3.56,-3.56,-3.56,0.0452,0.0614,0.0452,-0.0805,-0.1086,-0.1109,-0.1109,-0.0805,-0.0168,0.1311,0.1857,0.2143,0.2191,0.1763,0.1591,0.2246,0.0738,-0.1149,-0.3012,-0.4165,-0.5496,-0.7291,-0.7512,-0.7484,-0.7484,-0.7486,-0.8179,-0.9766,-1.2136,-1.3498,-1.3499,-1.3492,-1.3521,-1.3484,-1.5793,-1.7696,-1.9098,-1.909,-1.9088,-1.9108,-1.9108,-1.9108,-1.9108,-1.9108,-1.9108,-1.9098,-1.909,-1.9107,-1.9124,-1.9717,-2.1609,-2.4093,-2.4109,-2.4083,-2.4083,-2.4083,-2.4083,-2.4083,-2.4083,-2.4089,-2.4191,-2.4687,-2.4496,-2.4184,-2.4709,-2.6144,-2.7605,-2.7588,-2.76,-2.76,-2.76,-2.76,-2.76,-2.76,-2.76,-2.76,-2.76,-2.7705,-2.7764,-2.763,-2.8274,-2.8992,-2.9544,-3.0723,-3.1865,-3.2532,-3.3119,-3.3675,-3.4333,-3.4358,-3.4382,-3.4617,-3.5142,-3.5515,-3.5557,-3.5584,-3.5606,-3.5606,-3.5606,-3.5586,-3.5583,-3.56,-3.56,-3.56,-3.56,-3.56,-3.56,-3.56,-3.56,-3.56,-3.56,-3.56,0.042,0.0517,0.0258,-0.0837,-0.1086,-0.1109,-0.1109,0.0,-0.0336,0.1277,0.172,0.1943,0.2244,0.2229,0.2247,0.2454,0.2313,0.1292,-0.1166,-0.5365,-0.7997,-0.7553,-0.7512,-0.7484,-0.7484,-0.7486,-0.8179,-0.9766,-1.2131,-1.3506,-1.3492,-1.3492,-1.3506,-1.3488,-1.3764,-1.5575,-1.9089,-1.9096,-1.9085,-1.9108,-1.9108,-1.9108,-1.9108,-1.9108,-1.9108,-1.9098,-1.9098,-1.9101,-1.9286,-2.1744,-2.3285,-2.4093,-2.4109,-2.4083,-2.4083,-2.4083,-2.4083,-2.4083,-2.4083,-2.4089,-2.4466,-2.6595,-2.5855,-2.4491,-2.6638,-2.7422,-2.7605,-2.7588,-2.76,-2.76,-2.76,-2.76,-2.76,-2.76,-2.76,-2.76,-2.76,-2.8094,-2.8323,-2.772,-2.8633,-2.9559,-2.9765,-3.1177,-3.2596,-3.3383,-3.3953,-3.4521,-3.5135,-3.4833,-3.4793,-3.5337,-3.5469,-3.5514,-3.5503,-3.556,-3.5588,-3.5588,-3.5588,-3.5605,-3.56,-3.56,-3.56,-3.56,-3.56,-3.56,-3.56,-3.56,-3.56,-3.56,-3.56,-3.56,0.0398,0.0497,0.0232,-0.0827,-0.0766,-0.0538,-0.1008,-0.0605,0.0169,0.1271,0.1692,0.1955,0.2189,0.2357,0.2444,0.251,0.2493,0.1603,-0.0984,-0.5525,-0.8335,-0.7589,-0.7489,-0.7501,-0.7496,-0.7499,-0.8764,-1.1824,-1.2943,-1.3492,-1.3492,-1.3492,-1.3506,-1.3491,-1.3509,-1.5306,-1.9072,-1.9093,-1.9108,-1.9108,-1.9108,-1.9108,-1.9098,-1.9105,-1.9108,-1.9098,-1.9115,-2.0034,-2.1596,-2.2647,-2.349,-2.4107,-2.4103,-2.4083,-2.4083,-2.4083,-2.4083,-2.4083,-2.4083,-2.4099,-2.4489,-2.6846,-2.6984,-2.6367,-2.7319,-2.7598,-2.7612,-2.7604,-2.76,-2.76,-2.76,-2.76,-2.76,-2.76,-2.76,-2.7705,-2.8124,-2.8412,-2.8637,-2.8783,-2.9547,-3.0203,-3.0368,-3.1835,-3.315,-3.355,-3.4358,-3.5048,-3.5377,-3.5274,-3.5258,-3.5526,-3.5549,-3.5549,-3.5549,-3.5577,-3.56,-3.56,-3.56,-3.56,-3.56,-3.56,-3.56,-3.56,-3.56,-3.56,-3.56,-3.56,-3.56,-3.56,-3.56,-3.56,0.0472,0.0506,0.0303,-0.0572,-0.037,-0.0134,-0.0672,-0.0338,0.0342,0.1221,0.1549,0.178,0.2148,0.2353,0.2237,0.1492,0.1389,0.0727,-0.1124,-0.4792,-0.7154,-0.6614,-0.7129,-0.7501,-0.7504,-0.8589,-1.0441,-1.3293,-1.3499,-1.3492,-1.3492,-1.3491,-1.3506,-1.3506,-1.3507,-1.5307,-1.9068,-1.9103,-1.9108,-1.9108,-1.9108,-1.9108,-1.9098,-1.911,-1.9533,-2.027,-2.0271,-2.1339,-2.3102,-2.3326,-2.368,-2.4099,-2.4109,-2.4083,-2.4083,-2.4083,-2.4083,-2.4099,-2.4108,-2.411,-2.4491,-2.6834,-2.7594,-2.7594,-2.7587,-2.7601,-2.76,-2.76,-2.76,-2.76,-2.76,-2.76,-2.76,-2.76,-2.76,-2.7735,-2.8188,-2.8457,-2.8682,-2.9004,-2.9901,-3.0586,-3.0625,-3.2248,-3.3556,-3.37,-3.4666,-3.5412,-3.552,-3.552,-3.5543,-3.56,-3.56,-3.56,-3.56,-3.56,-3.56,-3.56,-3.56,-3.56,-3.56,-3.56,-3.56,-3.56,-3.56,-3.56,-3.56,-3.56,-3.56,-3.56,-3.56,-3.5718,0.0606,0.0506,0.0404,0.0067,0.0,0.0,0.0,-0.0206,-0.0035,0.1156,0.1242,0.1324,0.2079,0.2353,0.1685,-0.0862,-0.1263,-0.1258,-0.1296,-0.3071,-0.4325,-0.4338,-0.6215,-0.7505,-0.7485,-1.1089,-1.345,-1.3498,-1.3499,-1.3492,-1.3492,-1.3504,-1.3509,-1.3509,-1.3503,-1.5317,-1.9059,-1.9109,-1.9108,-1.9108,-1.9108,-1.9108,-1.9098,-1.911,-2.0532,-2.3074,-2.3069,-2.3071,-2.3163,-2.3816,-2.4105,-2.4099,-2.4109,-2.4083,-2.4083,-2.4083,-2.4083,-2.4102,-2.4101,-2.4104,-2.4477,-2.683,-2.7613,-2.76,-2.76,-2.76,-2.76,-2.76,-2.76,-2.76,-2.76,-2.76,-2.76,-2.76,-2.76,-2.76,-2.76,-2.8113,-2.8464,-2.7916,-2.9429,-3.0685,-3.0258,-3.2205,-3.3853,-3.3986,-3.4904,-3.56,-3.56,-3.56,-3.56,-3.56,-3.56,-3.56,-3.56,-3.56,-3.56,-3.56,-3.56,-3.56,-3.56,-3.56,-3.56,-3.56,-3.56,-3.56,-3.56,-3.56,-3.56,-3.56,-3.56,-3.6028,0.0606,0.0506,0.0404,0.0067,0.037,0.0608,0.0103,0.0313,0.0743,0.1174,0.1161,0.1369,0.2243,0.2458,0.1655,-0.0881,-0.1301,-0.1784,-0.3162,-0.3882,-0.4299,-0.4305,-0.6646,-0.8043,-0.7532,-1.1139,-1.3489,-1.3506,-1.3506,-1.3492,-1.3492,-1.3507,-1.4439,-1.6518,-1.6594,-1.7404,-1.9093,-1.9109,-1.9108,-1.9108,-1.9108,-1.9108,-1.9088,-1.9093,-2.0566,-2.3083,-2.3096,-2.3085,-2.3148,-2.3816,-2.4109,-2.4093,-2.4096,-2.4083,-2.4086,-2.4092,-2.4099,-2.4087,-2.4091,-2.5161,-2.6623,-2.7366,-2.7613,-2.76,-2.76,-2.76,-2.76,-2.76,-2.76,-2.76,-2.76,-2.76,-2.76,-2.76,-2.76,-2.772,-2.8173,-2.8442,-2.8693,-2.8985,-3.0274,-3.1332,-3.1285,-3.2999,-3.4382,-3.4529,-3.5155,-3.56,-3.56,-3.56,-3.56,-3.56,-3.56,-3.56,-3.56,-3.56,-3.56,-3.56,-3.56,-3.56,-3.56,-3.56,-3.56,-3.56,-3.56,-3.56,-3.56,-3.56,-3.56,-3.5616,-3.6163,-3.6823,0.0,0.0506,0.0472,0.0437,0.0745,0.0995,0.0523,0.0783,0.113,0.1166,0.1411,0.1812,0.2387,0.1724,0.0354,-0.1879,-0.2359,-0.3074,-0.4832,-0.5086,-0.5216,-0.5473,-0.7089,-0.8223,-0.84,-1.149,-1.3512,-1.3506,-1.3492,-1.3484,-1.3489,-1.3515,-1.4584,-1.6959,-1.7639,-1.8344,-1.9079,-1.9095,-1.9108,-1.9086,-1.9112,-1.9108,-1.9088,-1.9094,-2.0561,-2.3101,-2.3107,-2.3092,0.0,-2.3807,-2.4096,-2.4083,-2.4083,-2.4083,-2.4115,-2.4101,-2.4673,-2.5437,-2.5437,-2.639,-2.7612,-2.761,-2.7612,-2.76,-2.76,-2.76,-2.76,-2.76,-2.76,-2.76,-2.76,-2.76,-2.76,-2.76,-2.76,-2.7705,-2.8113,-2.8408,-2.8693,-2.9179,-3.0541,-3.1675,-3.1826,-3.3429,-3.4704,-3.4793,-3.5247,-3.56,-3.56,-3.56,-3.56,-3.56,-3.56,-3.56,-3.56,-3.56,-3.56,-3.56,-3.56,-3.56,-3.56,-3.56,-3.56,-3.56,-3.56,-3.56,-3.56,-3.56,-3.56,-3.5616,-3.6705,-3.7449,0.0,0.0506,0.0608,0.1012,0.11,0.1087,0.1092,0.117,0.0,0.1138,0.1622,0.2038,0.2038,0.0117,-0.1999,-0.3544,-0.4044,-0.4743,-0.6181,-0.6439,-0.6762,-0.7428,-0.7562,-0.8269,-0.9981,-1.2167,-1.3491,-1.3499,-1.3492,-1.3512,-1.3505,-1.3412,-1.4004,-1.5367,-1.6965,-1.8166,-1.8899,-1.8913,-1.8966,-1.9094,-1.9086,-1.91,-1.91,-1.9115,-2.0549,-2.3108,-2.3095,-2.3092,-2.3141,-2.3807,-2.4096,-2.4083,-2.4086,-2.4086,-2.4105,-2.4091,-2.559,-2.7582,-2.7603,-2.7597,-2.7591,-2.7588,-2.76,-2.76,-2.76,-2.76,-2.76,-2.76,-2.76,-2.76,-2.76,-2.76,-2.76,-2.7625,-2.7625,-2.7625,-2.7675,-2.8146,-2.8636,-2.8811,-3.0458,-3.1869,-3.1987,-3.3592,-3.4857,-3.4857,-3.527,-3.56,-3.56,-3.56,-3.56,-3.56,-3.56,-3.56,-3.56,-3.56,-3.56,-3.56,-3.56,-3.56,-3.56,-3.56,-3.56,-3.56,-3.56,-3.56,-3.56,-3.56,-3.56,-3.5633,-3.7195,-3.7905,0.0472,0.0,0.0659,0.1006,0.1116,0.1097,0.0,0.1183,0.1227,0.1234,0.0,-0.2314,-0.2314,-0.2823,-0.3351,-0.3736,-0.3863,-0.4408,-0.5826,-0.6936,-0.7591,-0.7521,-0.8055,-0.9545,-1.239,-1.3175,-1.3483,-1.3506,-1.3492,-1.3518,-1.3488,-1.2598,-1.3096,-1.5317,-1.5788,-1.6347,-1.7025,-1.7046,-1.7747,-1.9094,-1.9115,-1.9102,-1.9111,-1.9105,-2.0554,-2.309,-2.3112,-2.3092,-2.3141,-2.3807,-2.4096,-2.4086,-2.4094,-2.4087,-2.4106,-2.411,-2.5607,-2.7603,-2.7598,-2.7593,-2.7603,-2.759,-2.76,-2.76,-2.76,-2.76,-2.76,-2.76,-2.76,-2.76,-2.76,-2.76,-2.7625,-2.774,-2.7765,-2.7875,-2.8343,-2.8986,-2.9626,-3.0005,-3.1751,-3.3165,-3.3188,-3.4428,-3.5424,-3.5424,-3.5515,-3.56,-3.56,-3.56,-3.56,-3.56,-3.56,-3.56,-3.56,-3.56,-3.56,-3.56,-3.56,-3.56,-3.56,-3.56,-3.56,-3.56,-3.56,-3.56,-3.56,-3.56,-3.56,-3.5633,-3.7195,-3.7905,0.0342,0.0485,0.0665,0.1016,0.1106,0.1134,0.1166,0.0,0.0,0.0,0.0,0.0,-0.3812,-0.424,-0.445,-0.3907,-0.4473,-0.5314,-0.6268,-0.7278,-0.7896,-0.7907,-0.8263,-0.9442,-1.1808,-1.2929,-1.3498,-1.3499,-1.3483,-1.3487,-1.3491,-1.341,-1.3992,-1.5355,-1.5713,-1.6017,-1.6407,-1.6416,-1.6888,-1.7862,-1.8712,-1.9094,-1.9156,-2.0355,-2.1729,-2.3096,-2.3117,-2.3092,-2.3141,-2.3807,-2.4096,-2.4099,-2.4116,-2.475,-2.5729,-2.5698,-2.6513,-2.7609,-2.7603,-2.76,-2.76,-2.76,-2.76,-2.76,-2.76,-2.76,-2.76,-2.76,-2.76,-2.76,-2.76,-2.76,-2.7625,-2.7675,-2.7765,-2.7949,-2.8487,-2.9446,-3.0345,-3.082,-3.2584,-3.4019,-3.4019,-3.4594,-3.5216,-3.5549,-3.5295,-3.5211,-3.5549,-3.56,-3.56,-3.56,-3.56,-3.56,-3.56,-3.56,-3.56,-3.56,-3.56,-3.56,-3.56,-3.56,-3.56,-3.56,-3.56,-3.56,-3.56,-3.56,-3.56,-3.5633,-3.7195,-3.7905,0.0243,0.0422,0.0635,0.0956,0.1137,0.1175,0.1141,0.0,0.0,0.0,0.0,0.0,0.0,-0.4633,-0.4982,-0.396,-0.5255,-0.6532,-0.6974,-0.7564,-0.8067,-0.8418,-0.853,-0.9075,-1.0301,-1.2131,-1.3258,-1.3382,-1.3552,-1.3599,-1.3505,-1.4714,-1.5408,-1.5399,-1.6005,-1.6362,-1.6397,-1.6411,-1.6387,-1.6412,-1.8227,-1.9314,-1.978,-2.2071,-2.3096,-2.3108,-2.3092,-2.311,-2.3141,-2.3824,-2.4116,-2.4105,-2.4105,-2.5331,-2.7115,-2.7458,-2.7606,-2.7587,-2.7588,-2.76,-2.76,-2.76,-2.76,-2.76,-2.76,-2.76,-2.76,-2.76,-2.76,-2.76,-2.76,-2.76,-2.7625,-2.7625,-2.774,-2.7949,-2.8455,-2.9807,-3.1037,-3.1506,-3.3265,-3.4675,-3.4675,-3.4675,-3.4878,-3.5498,-3.5081,-3.4895,-3.5515,-3.56,-3.56,-3.56,-3.56,-3.56,-3.56,-3.56,-3.56,-3.56,-3.56,-3.56,-3.56,-3.56,-3.56,-3.56,-3.56,-3.56,-3.56,-3.56,-3.56,-3.5633,-3.7077,-3.7787,0.0243,0.0356,0.051,0.0782,0.1016,0.1218,0.1244,0.0,0.0,0.0,0.0,0.0,0.0,-0.396,-0.3999,-0.3841,-0.5176,-0.644,-0.7083,-0.7957,-0.8598,-0.8636,-0.9397,-1.0196,-1.0913,-1.158,-1.2231,-1.2848,-1.3805,-1.409,-1.3539,-1.4711,-1.5402,-1.5391,-1.5769,-1.6117,-1.6397,-1.6389,-1.6384,-1.6431,-1.8227,-2.0296,-2.2487,-2.2917,-2.3102,-2.3097,-2.3088,-2.3102,-2.3158,-2.3815,-2.4092,-2.4118,-2.4118,-2.4325,-2.4865,-2.6883,-2.7598,-2.7584,-2.759,-2.76,-2.76,-2.76,-2.76,-2.76,-2.76,-2.76,-2.76,-2.76,-2.76,-2.76,-2.76,-2.76,-2.7625,-2.774,-2.788,-2.8137,-2.8693,-3.04,-3.1938,-3.2398,-3.4097,-3.543,-3.543,-3.543,-3.5464,-3.5583,-3.5498,-3.5464,-3.5583,-3.56,-3.56,-3.56,-3.56,-3.56,-3.56,-3.56,-3.56,-3.56,-3.56,-3.56,-3.56,-3.56,-3.56,-3.56,-3.56,-3.56,-3.56,-3.56,-3.56,-3.5616,-3.6535,-3.7297,0.0106,0.0253,0.0368,0.0383,0.0116,-0.0155,-0.0118,-0.1439,0.0,0.0,0.0,0.0,0.0,-0.4345,-0.5082,-0.5973,-0.6472,-0.7046,-0.7893,-0.8394,-0.8894,-0.9458,-0.9916,-1.0573,-1.1569,-1.1817,-1.2129,-1.2608,-1.3012,-1.3526,-1.4159,-1.5149,-1.568,-1.5682,-1.5816,-1.6066,-1.6397,-1.6999,-1.7309,-1.7326,-1.9404,-2.1337,-2.3106,-2.311,-2.3117,-2.3108,-2.31,-2.3292,-2.3654,-2.3964,-2.4096,-2.4244,-2.5516,-2.5592,-2.5223,-2.6971,-2.7593,-2.76,-2.76,-2.76,-2.76,-2.76,-2.76,-2.76,-2.76,-2.76,-2.76,-2.76,-2.76,-2.76,-2.76,-2.76,-2.7625,-2.7675,-2.784,-2.8137,-2.8693,-3.0153,-3.1675,-3.2541,-3.3951,-3.5131,-3.5532,-3.5261,-3.5148,-3.5532,-3.5267,-3.5165,-3.5549,-3.56,-3.56,-3.56,-3.56,-3.56,-3.56,-3.56,-3.56,-3.56,-3.56,-3.56,-3.56,-3.56,-3.56,-3.56,-3.56,-3.5644,-3.5706,-3.5706,-3.5954,-3.6429,-3.72,-3.7965,0.0,0.0108,0.0183,0.0038,0.0,-0.0936,-0.1138,-0.2386,0.0,0.0,0.0,0.0,-0.3802,-0.4732,-0.6009,-0.7403,-0.7553,-0.7812,-0.8703,-0.9041,-0.9437,-1.0135,-1.0553,-1.1089,-1.1896,-1.2109,-1.2297,-1.2591,-1.254,-1.3171,-1.4653,-1.5387,-1.5802,-1.5838,-1.5884,-1.6056,-1.6319,-1.7376,-1.784,-1.773,-2.028,-2.2072,-2.3111,-2.311,-2.3108,-2.3108,-2.3095,-2.3428,-2.4003,-2.4075,-2.409,-2.4305,-2.6299,-2.6595,-2.6079,-2.7188,-2.76,-2.76,-2.76,-2.76,-2.76,-2.76,-2.76,-2.76,-2.76,-2.76,-2.76,-2.76,-2.76,-2.76,-2.76,-2.7625,-2.7675,-2.7785,-2.8024,-2.8341,-2.8803,-3.0057,-3.1346,-3.226,-3.3565,-3.4675,-3.525,-3.503,-3.4962,-3.5515,-3.5131,-3.4962,-3.5515,-3.56,-3.56,-3.56,-3.56,-3.56,-3.56,-3.56,-3.56,-3.56,-3.56,-3.56,-3.56,-3.56,-3.56,-3.56,-3.56,-3.5644,-3.5751,-3.5751,-3.6208,-3.7047,-3.7632,-3.8423,0.0,0.0,0.0035,0.0,0.0149,0.0,-0.0664,-0.1736,0.0,-0.2577,0.0,-0.3802,-0.3802,-0.4652,-0.5538,-0.624,-0.7464,-0.8537,-0.917,-1.0067,-1.0576,-1.0333,-1.1547,-1.2222,-1.1675,-1.214,-1.261,-1.2947,-1.3234,-1.3735,-1.4494,-1.5098,-1.5537,-1.5711,-1.5827,-1.5961,-1.6114,-1.6888,-1.7019,-1.6567,-1.9894,-2.2074,-2.3119,-2.3086,-2.3108,-2.3095,-2.3105,-2.3297,-2.3641,-2.3955,-2.4108,-2.4203,-2.5101,-2.5812,-2.646,-2.7287,-2.76,-2.76,-2.76,-2.76,-2.76,-2.76,-2.76,-2.76,-2.76,-2.76,-2.76,-2.76,-2.76,-2.76,-2.76,-2.7675,-2.7915,-2.8334,-2.8646,-2.8958,-2.9429,-3.0609,-3.1581,-3.1674,-3.3213,-3.4506,-3.4556,-3.5115,-3.5532,-3.5583,-3.5549,-3.5532,-3.5583,-3.56,-3.56,-3.56,-3.56,-3.56,-3.56,-3.56,-3.56,-3.56,-3.56,-3.56,-3.56,-3.56,-3.56,-3.56,-3.56,-3.56,-3.5622,-3.5622,-3.6028,-3.6835,-3.7001,-3.7846,0.0,0.0,0.0,0.0,0.0073,0.0,0.0,-0.2208,-0.2703,-0.32,-0.3567,-0.4034,-0.4771,-0.5774,-0.6773,-0.7621,-0.8432,-0.9077,-0.9437,-1.0064,-1.0514,-1.0649,-1.1438,-1.1937,-1.1857,-1.2053,-1.2333,-1.2672,-1.2807,-1.3342,-1.444,-1.4795,-1.5186,-1.5672,-1.5827,-1.5961,-1.6114,-1.6747,-1.7013,-1.6931,-1.9663,-2.1531,-2.2604,-2.2959,-2.3108,-2.3108,-2.3113,-2.3292,-2.3628,-2.4128,-2.4467,-2.4771,-2.5783,-2.6578,-2.717,-2.7494,-2.76,-2.76,-2.76,-2.76,-2.76,-2.76,-2.76,-2.76,-2.76,-2.76,-2.76,-2.76,-2.76,-2.76,-2.76,-2.765,-2.781,-2.8383,-2.863,-2.8919,-2.9473,-3.0277,-3.1177,-3.211,-3.3108,-3.4117,-3.503,-3.5414,-3.56,-3.56,-3.56,-3.56,-3.56,-3.56,-3.56,-3.56,-3.56,-3.56,-3.56,-3.56,-3.56,-3.56,-3.56,-3.56,-3.56,-3.56,-3.56,-3.56,-3.56,-3.5689,-3.5844,-3.6321,-3.7001,-3.7934,-3.874,-3.9653,0.0,0.0,0.0,0.0,0.0,0.0,-0.2014,-0.2362,-0.2677,-0.3621,-0.393,-0.4385,-0.5422,-0.6588,-0.7647,-0.8345,-0.8985,-0.9474,-0.9713,-1.017,-1.063,-1.0949,-1.1533,-1.1875,-1.1861,-1.1945,-1.2242,-1.2758,-1.2818,-1.3394,-1.4706,-1.4922,-1.5254,-1.574,-1.5856,-1.5961,-1.6114,-1.6701,-1.7244,-1.7712,-1.9505,-2.0848,-2.1799,-2.268,-2.3108,-2.3108,-2.3108,-2.3288,-2.3628,-2.4044,-2.4637,-2.5342,-2.6324,-2.7074,-2.76,-2.76,-2.76,-2.76,-2.76,-2.76,-2.76,-2.76,-2.76,-2.76,-2.76,-2.76,-2.76,-2.76,-2.771,-2.782,-2.782,-2.7735,-2.7835,-2.8543,-2.8873,-2.918,-2.9892,-3.0579,-3.1375,-3.2376,-3.3215,-3.4066,-3.5076,-3.5447,-3.56,-3.56,-3.56,-3.56,-3.56,-3.56,-3.56,-3.56,-3.56,-3.56,-3.56,-3.56,-3.56,-3.56,-3.56,-3.5622,-3.5667,-3.5667,-3.5689,-3.5734,-3.5734,-3.5871,-3.6195,-3.6794,-3.7636,-3.8688,-3.9809,-4.0714,0.0,0.0,0.0,0.0,0.0,0.0,-0.1852,-0.1993,-0.236,-0.3545,-0.423,-0.4825,-0.5479,-0.6811,-0.7867,-0.7968,-0.8905,-0.9708,-0.9945,-1.0534,-1.0976,-1.118,-1.1947,-1.2262,-1.165,-1.1845,-1.2401,-1.3415,-1.3511,-1.4043,-1.5323,-1.5575,-1.5769,-1.5885,-1.5885,-1.5961,-1.6114,-1.6701,-1.7566,-1.8703,-1.9452,-2.0073,-2.0677,-2.2345,-2.3095,-2.3108,-2.3108,-2.3288,-2.3628,-2.3628,-2.4481,-2.5864,-2.6484,-2.706,-2.76,-2.76,-2.76,-2.76,-2.76,-2.76,-2.76,-2.76,-2.76,-2.76,-2.76,-2.76,-2.76,-2.76,-2.7944,-2.8288,-2.8288,-2.8067,-2.8057,-2.8988,-2.9397,-2.9848,-3.0797,-3.1685,-3.2293,-3.231,-3.3512,-3.4489,-3.4506,-3.5131,-3.56,-3.56,-3.56,-3.56,-3.56,-3.56,-3.56,-3.56,-3.56,-3.56,-3.56,-3.56,-3.56,-3.56,-3.56,-3.5667,-3.5795,-3.5795,-3.5861,-3.5997,-3.5997,-3.6216,-3.66,-3.6969,-3.7725,-3.8834,-3.9792,-4.0609,0.0,0.0,0.0,0.0,0.0,0.0,0.0,-0.2413,0.0,0.0,-0.482,-0.5653,-0.5842,-0.724,-0.8389,-0.8434,-0.9098,-0.9647,-0.969,-1.0331,-1.0797,-1.0902,-1.1468,-1.1804,-1.1613,-1.1679,-1.2219,-1.342,-1.3511,-1.4043,-1.5323,-1.5449,-1.5507,-1.5536,-1.5701,-1.5827,-1.5961,-1.6228,-1.7008,-1.8295,-1.9314,-2.0483,-2.1799,-2.231,-2.2732,-2.3108,-2.3108,-2.3543,-2.4321,-2.5342,-2.6295,-2.7086,-2.7255,-2.7433,-2.76,-2.76,-2.76,-2.76,-2.76,-2.76,-2.76,-2.76,-2.76,-2.76,-2.76,-2.76,-2.76,-2.76,-2.7944,-2.8288,-2.8288,-2.8551,-2.8957,-2.9657,-2.9892,-3.0166,-3.0975,-3.1745,-3.2462,-3.2966,-3.3846,-3.4658,-3.5177,-3.5447,-3.56,-3.56,-3.56,-3.56,-3.56,-3.56,-3.56,-3.56,-3.56,-3.56,-3.56,-3.56,-3.56,-3.56,-3.5915,-3.5958,-3.5667,-3.5667,-3.5711,-3.5861,-3.6135,-3.671,-3.7598,-3.8477,-3.9435,-4.0438,-4.1564,-4.2225,-0.0743,-0.0631,0.0,-0.0487,-0.1,-0.1843,-0.2829,-0.3224,-0.3534,-0.4072,-0.5139,-0.6036,-0.6315,-0.7575,-0.8624,-0.8706,-0.9225,-0.9633,-0.9748,-1.0329,-1.0837,-1.1101,-1.1404,-1.1716,-1.205,-1.2073,-1.262,-1.3974,-1.4064,-1.4519,-1.5546,-1.5652,-1.5671,-1.5671,-1.5749,-1.5856,-1.599,-1.5951,-1.6503,-1.76,-1.8572,-1.9821,-2.126,-2.2189,-2.2794,-2.3108,-2.3228,-2.375,-2.4595,-2.5837,-2.6695,-2.728,-2.7524,-2.76,-2.76,-2.76,-2.76,-2.76,-2.76,-2.76,-2.76,-2.76,-2.76,-2.76,-2.76,-2.76,-2.76,-2.76,-2.8076,-2.8614,-2.8614,-2.9187,-2.9848,-3.0016,-3.0123,-3.0417,-3.1365,-3.2185,-3.2949,-3.3694,-3.4438,-3.5081,-3.5515,-3.56,-3.56,-3.56,-3.56,-3.56,-3.56,-3.56,-3.56,-3.56,-3.56,-3.56,-3.56,-3.5644,-3.5756,-3.5898,-3.6224,-3.6371,-3.6249,-3.6249,-3.6312,-3.6474,-3.6704,-3.7386,-3.853,-3.937,-4.031,-4.1311,-4.2408,-4.2901,-0.187,-0.1663,-0.163,-0.1234,-0.1743,-0.275,-0.4176,-0.4235,-0.4123,-0.4433,-0.5274,-0.6138,-0.6745,-0.7803,-0.8662,-0.8833,-0.9243,-0.9655,-0.9958,-1.0434,-1.0992,-1.1567,-1.1654,-1.1957,-1.2712,-1.2834,-1.3394,-1.4737,-1.4875,-1.5187,-1.5856,-1.6009,-1.6056,-1.6056,-1.5933,-1.5933,-1.6056,-1.5904,-1.6142,-1.6821,-1.7661,-1.8607,-1.9765,-2.1964,-2.3007,-2.3138,-2.3497,-2.3985,-2.4567,-2.5481,-2.6203,-2.6747,-2.7357,-2.76,-2.76,-2.76,-2.76,-2.76,-2.76,-2.76,-2.76,-2.76,-2.76,-2.76,-2.76,-2.7625,-2.766,-2.766,-2.8391,-2.9166,-2.9166,-2.9941,-3.0609,-3.0177,-3.0225,-3.0696,-3.1862,-3.2782,-3.3626,-3.4353,-3.5115,-3.56,-3.56,-3.56,-3.56,-3.56,-3.56,-3.56,-3.56,-3.56,-3.56,-3.56,-3.5644,-3.5667,-3.5672,-3.589,-3.6174,-3.6561,-3.6798,-3.7093,-3.7461,-3.7299,-3.7284,-3.7469,-3.7523,-3.8115,-3.9313,-3.9787,-4.0578,-4.1669,-4.2558,-4.2957,-0.2013,-0.2228,0.0,-0.1554,-0.2177,-0.3246,-0.4131,-0.4283,-0.4239,-0.433,-0.5396,-0.6332,-0.6472,-0.7622,-0.8547,-0.8565,-0.8843,-0.9269,-0.99,-1.0283,-1.0873,-1.187,-1.1996,-1.2151,-1.2544,-1.2964,-1.3502,-1.4293,-1.4708,-1.5187,-1.5856,-1.5817,-1.5788,-1.5788,-1.5759,-1.5759,-1.5788,-1.6296,-1.6627,-1.6832,-1.8455,-1.9574,-2.0268,-2.1358,-2.2309,-2.3125,-2.3826,-2.4292,-2.4595,-2.5837,-2.6484,-2.6747,-2.7357,-2.76,-2.76,-2.76,-2.76,-2.76,-2.76,-2.76,-2.76,-2.76,-2.76,-2.76,-2.76,-2.787,-2.8134,-2.8134,-2.8857,-2.9639,-2.9639,-3.0177,-3.0692,-3.0712,-3.0777,-3.11,-3.2043,-3.2844,-3.3626,-3.4353,-3.5115,-3.56,-3.56,-3.56,-3.56,-3.56,-3.56,-3.56,-3.56,-3.56,-3.56,-3.56,-3.5937,-3.6156,-3.6224,-3.7123,-3.7777,-3.7974,-3.8891,-3.9495,-3.9625,-3.8074,-3.7248,-3.7342,-3.7649,-3.8308,-3.9313,-4.0337,-4.1277,-4.2167,-4.2991,-4.3375,-0.3338,0.0,0.0,-0.2622,0.0,-0.3956,-0.4231,-0.43,-0.43,-0.43,-0.5415,-0.64,-0.64,-0.7554,-0.8517,-0.8517,-0.9033,-0.9545,-0.9945,-1.07,-1.1425,-1.2018,-1.2212,-1.2605,-1.339,-1.3713,-1.4252,-1.5167,-1.5497,-1.5739,-1.598,-1.5923,-1.5875,-1.5798,-1.573,-1.573,-1.5798,-1.6009,-1.6304,-1.6729,-1.7969,-1.9336,-2.086,-2.1832,-2.2556,-2.3138,-2.3645,-2.4102,-2.4567,-2.5315,-2.6068,-2.6736,-2.7049,-2.7357,-2.76,-2.76,-2.76,-2.76,-2.76,-2.76,-2.76,-2.76,-2.76,-2.76,-2.76,-2.7785,-2.8002,-2.8231,-2.8873,-2.9528,-2.9728,-3.0241,-3.0733,-3.0871,-3.1224,-3.1759,-3.2641,-3.3406,-3.415,-3.4878,-3.5329,-3.56,-3.56,-3.56,-3.56,-3.56,-3.56,-3.56,-3.56,-3.56,-3.56,-3.56,-3.637,-3.6882,-3.6974,-3.8128,-3.9006,-3.9276,-3.9949,-4.0438,-4.0667,-3.9641,-3.8903,-3.8541,-3.8746,-3.9281,-4.0169,-4.1177,-4.2084,-4.2873,-4.3313,-4.3515,-0.4771,0.0,-0.4372,-0.3895,-0.4203,-0.4561,-0.4331,-0.43,-0.43,-0.43,-0.5415,-0.64,-0.64,-0.7554,-0.8517,-0.8517,-0.9236,-0.9881,-1.0149,-1.1167,-1.2011,-1.2329,-1.2491,-1.3025,-1.4201,-1.4469,-1.501,-1.6048,-1.6288,-1.6345,-1.6153,-1.6095,-1.6009,-1.5885,-1.574,-1.5701,-1.5827,-1.5652,-1.5902,-1.657,-1.7444,-1.9086,-2.1347,-2.2547,-2.3108,-2.3108,-2.3271,-2.3704,-2.435,-2.4681,-2.5481,-2.6537,-2.6747,-2.7152,-2.76,-2.76,-2.76,-2.76,-2.76,-2.76,-2.76,-2.76,-2.76,-2.76,-2.76,-2.766,-2.782,-2.8304,-2.8826,-2.9325,-2.9793,-3.0284,-3.0745,-3.1022,-3.1691,-3.2483,-3.325,-3.3981,-3.4726,-3.5447,-3.56,-3.56,-3.56,-3.56,-3.56,-3.56,-3.56,-3.565,-3.5785,-3.5825,-3.5853,-3.5971,-3.7004,-3.7698,-3.7775,-3.9059,-4.0039,-4.0455,-4.0782,-4.1139,-4.1484,-4.1354,-4.0985,-4.0322,-4.0175,-4.0432,-4.1095,-4.1919,-4.2635,-4.3313,-4.3441,-4.3515,-0.5126,0.0,-0.4434,0.0,-0.4741,-0.4561,-0.4331,-0.43,-0.43,-0.43,-0.5415,-0.64,-0.64,-0.7554,-0.8517,-0.8517,-0.877,-0.9415,-1.0784,-1.0976,-1.157,-1.321,-1.3108,-1.3125,-1.3601,-1.438,-1.4922,-1.5098,-1.5904,-1.6374,-1.6374,-1.6087,-1.5914,-1.5885,-1.5604,-1.5449,-1.5478,-1.595,-1.6226,-1.6379,-1.8702,-2.0344,-2.1347,-2.2547,-2.3108,-2.3108,-2.3138,-2.3288,-2.3658,-2.4823,-2.5481,-2.5864,-2.7034,-2.7524,-2.76,-2.76,-2.76,-2.76,-2.76,-2.76,-2.76,-2.76,-2.76,-2.76,-2.76,-2.7879,-2.8328,-2.8826,-2.9348,-2.9815,-3.0279,-3.0485,-3.0755,-3.1633,-3.242,-3.3055,-3.3347,-3.3981,-3.4726,-3.5447,-3.56,-3.56,-3.56,-3.56,-3.56,-3.56,-3.56,-3.5836,-3.6535,-3.6643,-3.6874,-3.7533,-3.8054,-3.8392,-3.8451,-4.0017,-4.1054,-4.1171,-4.2213,-4.2904,-4.3082,-4.2424,-4.2037,-4.1992,-4.1295,-4.0985,-4.1095,-4.1919,-4.2359,-4.2488,-4.3167,-4.3515,-0.5554,-0.5313,-0.5137,0.0,-0.5001,-0.4824,-0.4631,-0.4564,-0.4564,-0.4564,-0.5716,-0.6629,-0.6429,-0.7652,-0.8673,-0.8673,-0.906,-0.9739,-1.0766,-1.1241,-1.2001,-1.3434,-1.3411,-1.3621,-1.4496,-1.4532,-1.4809,-1.5573,-1.586,-1.6077,-1.621,-1.6029,-1.5856,-1.5798,-1.5546,-1.541,-1.541,-1.5661,-1.614,-1.681,-1.8384,-1.9857,-2.1221,-2.1836,-2.2472,-2.3108,-2.3108,-2.3198,-2.348,-2.4481,-2.5175,-2.5701,-2.6707,-2.7306,-2.76,-2.76,-2.76,-2.76,-2.76,-2.76,-2.76,-2.76,-2.76,-2.76,-2.76,-2.7745,-2.8076,-2.8889,-2.9234,-2.9572,-3.0321,-3.0803,-3.1264,-3.1867,-3.2885,-3.3772,-3.3972,-3.4607,-3.5216,-3.5532,-3.56,-3.56,-3.56,-3.56,-3.56,-3.56,-3.5994,-3.64,-3.6761,-3.7144,-3.7533,-3.7872,-3.8676,-3.9186,-3.9269,-4.0619,-4.1517,-4.1584,-4.2419,-4.2957,-4.3013,-4.2957,-4.2949,-4.2965,-4.2176,-4.1772,-4.1772,-4.258,-4.2965,-4.2983,-4.3332,-4.3515,0.0,0.0,-0.576,-0.5295,-0.5196,-0.5166,-0.4965,-0.4931,-0.4953,-0.5087,-0.6107,-0.6915,-0.683,-0.7939,-0.8861,-0.8861,-0.944,-1.0219,-1.1074,-1.1833,-1.2712,-1.3857,-1.3876,-1.419,-1.5136,-1.4684,-1.4784,-1.5773,-1.5753,-1.5788,-1.5999,-1.5961,-1.5904,-1.5817,-1.5594,-1.5478,-1.5478,-1.5584,-1.6083,-1.6978,-1.7999,-1.9329,-2.0897,-2.1304,-2.2089,-2.3108,-2.3108,-2.3198,-2.339,-2.4292,-2.5007,-2.5646,-2.6537,-2.7178,-2.76,-2.76,-2.76,-2.76,-2.76,-2.76,-2.76,-2.76,-2.76,-2.76,-2.76,-2.76,-2.7785,-2.8654,-2.9005,-2.928,-3.0113,-3.0971,-3.1755,-3.2168,-3.3292,-3.4353,-3.4699,-3.5216,-3.56,-3.56,-3.56,-3.56,-3.56,-3.56,-3.56,-3.56,-3.6282,-3.688,-3.7066,-3.7719,-3.8261,-3.8447,-3.9361,-4.0003,-4.006,-4.1165,-4.1906,-4.1955,-4.25,-4.2845,-4.2882,-4.3268,-4.348,-4.3515,-4.291,-4.2598,-4.2598,-4.3221,-4.3515,-4.3515,-4.3515,-4.3515,0.0,-0.5908,0.0,-0.5571,-0.5464,-0.5428,-0.5317,-0.5278,-0.5419,-0.5935,-0.6587,-0.7245,-0.7807,-0.849,-0.8985,-0.8985,-0.9709,-1.0747,-1.2136,-1.2731,-1.3575,-1.4959,-1.4838,-1.4674,-1.4741,-1.4744,-1.4808,-1.4857,-1.5407,-1.5711,-1.573,-1.5951,-1.6085,-1.6085,-1.5807,-1.5672,-1.5672,-1.6065,-1.6273,-1.6368,-1.8188,-1.9479,-2.0297,-2.1513,-2.2451,-2.3108,-2.3108,-2.3108,-2.3215,-2.4582,-2.5259,-2.5536,-2.6841,-2.7463,-2.76,-2.76,-2.76,-2.76,-2.76,-2.76,-2.76,-2.76,-2.76,-2.76,-2.76,-2.76,-2.771,-2.8207,-2.8709,-2.9212,-2.9705,-3.0821,-3.1995,-3.2847,-3.3727,-3.4594,-3.5374,-3.5566,-3.56,-3.56,-3.56,-3.56,-3.56,-3.56,-3.56,-3.56,-3.6282,-3.7066,-3.7753,-3.8481,-3.9191,-3.991,-4.0422,-4.0733,-4.075,-4.1743,-4.2376,-4.2358,-4.2882,-4.3233,-4.3376,-4.3394,-4.3429,-4.3515,-4.346,-4.3441,-4.3441,-4.3478,-4.3515,-4.3515,-4.3515,-4.3515,-0.5818,0.0,0.0,-0.5736,-0.6015,-0.6297,-0.5767,-0.5623,-0.5759,-0.6295,-0.6975,-0.7659,-0.8203,-0.8786,-0.9177,-0.9177,-1.0116,-1.1142,-1.208,-1.2929,-1.3949,-1.5231,-1.5287,-1.5531,-1.6361,-1.6224,-1.6196,-1.6455,-1.6146,-1.5999,-1.6126,-1.5836,-1.5797,-1.6085,-1.5846,-1.5643,-1.5507,-1.5642,-1.5921,-1.6312,-1.697,-1.7932,-1.9149,-2.0338,-2.1274,-2.2053,-2.2795,-2.3108,-2.3198,-2.4192,-2.4922,-2.5481,-2.6457,-2.7126,-2.76,-2.76,-2.76,-2.76,-2.76,-2.76,-2.76,-2.76,-2.76,-2.76,-2.76,-2.7795,-2.8174,-2.8662,-2.9166,-2.9796,-3.0833,-3.179,-3.2872,-3.4309,-3.4914,-3.5234,-3.5549,-3.56,-3.56,-3.56,-3.56,-3.56,-3.56,-3.56,-3.56,-3.56,-3.6282,-3.7083,-3.7821,-3.8531,-3.9406,-4.0422,-4.0683,-4.0966,-4.1338,-4.1735,-4.1969,-4.1997,-4.2559,-4.2901,-4.2939,-4.3268,-4.348,-4.3515,-4.3515,-4.3515,-4.3515,-4.3515,-4.3515,-4.3515,-4.3515,-4.3515,-0.6436,-0.6802,-0.7168,-0.6624,-0.6975,-0.7326,-0.6883,-0.6789,-0.6921,-0.7447,-0.791,-0.8341,-0.8887,-0.9203,-0.9406,-0.9489,-1.0588,-1.1661,-1.234,-1.3516,-1.4647,-1.5575,-1.573,-1.6093,-1.6954,-1.6887,-1.6836,-1.6941,-1.6586,-1.6277,-1.6068,-1.5865,-1.5836,-1.6038,-1.5846,-1.5643,-1.541,-1.541,-1.5613,-1.5997,-1.6187,-1.6942,-1.8165,-1.9177,-2.0158,-2.1109,-2.2112,-2.274,-2.3168,-2.3914,-2.4681,-2.5398,-2.6149,-2.6878,-2.7524,-2.7575,-2.76,-2.76,-2.76,-2.76,-2.76,-2.76,-2.76,-2.76,-2.76,-2.7929,-2.836,-2.8732,-2.9485,-3.039,-3.1319,-3.2463,-3.3773,-3.5194,-3.5571,-3.56,-3.56,-3.56,-3.56,-3.56,-3.56,-3.56,-3.56,-3.56,-3.56,-3.56,-3.6401,-3.7178,-3.7665,-3.8749,-3.9731,-4.0539,-4.1068,-4.1494,-4.1885,-4.2136,-4.23,-4.2324,-4.2733,-4.2976,-4.2976,-4.3303,-4.3515,-4.3515,-4.3515,-4.3515,-4.3515,-4.3515,-4.3515,-4.3515,-4.3515,-4.3515,0.0,0.0,0.0,-0.8234,-0.8285,-0.8388,-0.8642,-0.8689,-0.8854,-0.9374,-0.9296,-0.928,-0.986,-0.9741,-0.9657,-0.995,-1.1193,-1.2354,-1.3003,-1.4496,-1.5652,-1.6088,-1.6272,-1.6377,-1.6412,-1.6726,-1.6693,-1.6224,-1.6667,-1.6505,-1.5498,-1.6019,-1.623,-1.5885,-1.5885,-1.573,-1.541,-1.541,-1.541,-1.541,-1.5997,-1.6655,-1.7376,-1.8125,-1.9172,-2.0406,-2.1084,-2.2028,-2.3143,-2.3796,-2.4509,-2.5259,-2.5987,-2.6736,-2.7386,-2.7549,-2.76,-2.76,-2.76,-2.76,-2.76,-2.76,-2.76,-2.76,-2.76,-2.7944,-2.8312,-2.8312,-2.9556,-3.093,-3.1098,-3.2796,-3.4627,-3.5408,-3.56,-3.56,-3.56,-3.56,-3.56,-3.56,-3.56,-3.56,-3.56,-3.56,-3.56,-3.56,-3.6595,-3.7366,-3.7383,-3.9055,-4.0241,-4.0258,-4.1535,-4.2362,-4.24,-4.3013,-4.3394,-4.3412,-4.3463,-4.3515,-4.3515,-4.3515,-4.3515,-4.3515,-4.3515,-4.3515,-4.3515,-4.3515,-4.3515,-4.3515,-4.3515,-4.3515,-0.7674,0.0,0.0,0.0,0.0,0.0,-0.8489,-0.8425,-0.8628,-0.9337,-0.9455,-0.9729,-1.0866,-1.0987,-1.1235,-1.2088,-1.239,-1.2654,-1.304,-1.4743,-1.6218,-1.6957,-1.7423,-1.8037,-1.8957,-1.9347,-1.9201,-1.8396,-1.8173,-1.7438,-1.5972,-1.5904,-1.573,-1.5391,-1.573,-1.573,-1.541,-1.541,-1.541,-1.541,-1.5584,-1.5818,-1.622,-1.7347,-1.8336,-1.924,-2.033,-2.1464,-2.2573,-2.3141,-2.3826,-2.4624,-2.537,-2.6095,-2.6814,-2.7382,-2.76,-2.76,-2.76,-2.76,-2.76,-2.76,-2.76,-2.76,-2.76,-2.8198,-2.8889,-2.8889,-2.9701,-3.0907,-3.2204,-3.3918,-3.5324,-3.5549,-3.56,-3.56,-3.56,-3.56,-3.56,-3.56,-3.56,-3.56,-3.56,-3.56,-3.56,-3.56,-3.5881,-3.6315,-3.6877,-3.7696,-3.8538,-3.9421,-4.0717,-4.1692,-4.2087,-4.2904,-4.3411,-4.3463,-4.3497,-4.3515,-4.3515,-4.3515,-4.3515,-4.3515,-4.3515,-4.3515,-4.3515,-4.3515,-4.3515,-4.3515,-4.3515,-4.3515,-0.8462,-0.8804,-0.9248,-0.8755,0.0,0.0,-0.9325,-0.9291,-0.9463,-1.0042,-1.0344,-1.073,-1.1525,-1.184,-1.2231,-1.2971,-1.3317,-1.3542,-1.3812,-1.5205,-1.6508,-1.7413,-1.7867,-1.8509,-1.954,-2.0107,-2.0056,-1.9293,-1.8967,-1.8003,-1.6194,-1.5449,-1.5049,-1.5001,-1.5128,-1.5216,-1.5225,-1.5089,-1.5147,-1.541,-1.541,-1.5449,-1.5614,-1.6496,-1.737,-1.8317,-1.9427,-2.0552,-2.1681,-2.2443,-2.3326,-2.4292,-2.5091,-2.581,-2.651,-2.7306,-2.76,-2.76,-2.76,-2.76,-2.76,-2.76,-2.76,-2.765,-2.782,-2.8463,-2.9206,-2.9715,-3.0908,-3.2362,-3.3728,-3.4846,-3.56,-3.56,-3.56,-3.56,-3.56,-3.56,-3.56,-3.56,-3.56,-3.56,-3.56,-3.56,-3.56,-3.56,-3.5778,-3.6063,-3.6524,-3.7254,-3.7965,-3.8673,-3.982,-4.0733,-4.1216,-4.1831,-4.2282,-4.2489,-4.2506,-4.2653,-4.2983,-4.3002,-4.3149,-4.3496,-4.3515,-4.3515,-4.3515,-4.3515,-4.3515,-4.3515,-4.3515,-4.3515,-0.963,-0.9558,-0.9606,-0.9811,-0.995,0.0,-1.0632,-1.0796,-1.0953,-1.1193,-1.1663,-1.2041,-1.2119,-1.2547,-1.3009,-1.3361,-1.4202,-1.4825,-1.4898,-1.5798,-1.6786,-1.7706,-1.807,-1.8499,-1.9177,-1.9835,-1.9996,-1.945,-1.9119,-1.8089,-1.6183,-1.4883,-1.4369,-1.4627,-1.4371,-1.4469,-1.4941,-1.4686,-1.4854,-1.5352,-1.541,-1.541,-1.541,-1.5759,-1.6485,-1.7545,-1.8424,-1.9503,-2.0686,-2.1766,-2.2885,-2.3997,-2.4924,-2.5618,-2.6203,-2.7137,-2.7484,-2.7524,-2.7575,-2.76,-2.76,-2.76,-2.76,-2.7685,-2.81,-2.87,-2.9482,-3.0759,-3.2601,-3.4382,-3.5166,-3.5498,-3.56,-3.56,-3.56,-3.56,-3.56,-3.56,-3.56,-3.56,-3.56,-3.56,-3.56,-3.56,-3.56,-3.56,-3.5958,-3.6251,-3.6337,-3.7259,-3.7965,-3.8161,-3.902,-3.9726,-4.0108,-4.0402,-4.0689,-4.1011,-4.1027,-4.1374,-4.2139,-4.2249,-4.2635,-4.3349,-4.346,-4.3515,-4.3515,-4.3515,-4.3515,-4.3515,-4.3515,-4.3515,-0.9901,-0.9829,-0.9793,-0.963,-1.023,0.0,-1.0855,-1.1526,-1.2121,-1.2081,-1.2396,-1.2889,-1.3553,-1.3987,-1.4471,-1.5223,-1.6056,-1.6183,-1.5065,-1.6341,-1.774,-1.8499,-1.9233,-1.9966,-2.07,-2.0892,-2.0751,-2.0231,-1.8356,-1.6862,-1.5912,-1.4962,-1.4359,-1.413,-1.4449,-1.4588,-1.4597,-1.4913,-1.5069,-1.5088,-1.5469,-1.5546,-1.541,-1.5759,-1.6296,-1.6989,-1.7894,-1.8924,-2.0049,-2.12,-2.2056,-2.2801,-2.4152,-2.4766,-2.5007,-2.639,-2.6893,-2.6945,-2.7433,-2.76,-2.76,-2.76,-2.76,-2.7625,-2.771,-2.8777,-3.0353,-3.2027,-3.3328,-3.4248,-3.4549,-3.5093,-3.56,-3.56,-3.56,-3.56,-3.56,-3.56,-3.56,-3.56,-3.56,-3.56,-3.56,-3.56,-3.56,-3.56,-3.5689,-3.5977,-3.6627,-3.6668,-3.7143,-3.8443,-3.9135,-3.9589,-3.9783,-4.0527,-4.0884,-4.0634,-4.0616,-4.0828,-4.1315,-4.1974,-4.2378,-4.2525,-4.3167,-4.3515,-4.3515,-4.3515,-4.3515,-4.3515,-4.3515,-4.3515,-1.0299,-1.0438,-1.0683,-1.0536,-1.1044,0.0,0.0,-1.2267,-1.2816,-1.2873,-1.3232,-1.3623,-1.4039,-1.4591,-1.5197,-1.5849,-1.6743,-1.7152,-1.6618,-1.7541,-1.8533,-1.9365,-1.9835,-2.0399,-2.1126,-2.119,-2.0825,-1.9929,-1.8211,-1.6739,-1.5703,-1.469,-1.4031,-1.3761,-1.3821,-1.3971,-1.424,-1.4163,-1.4401,-1.5,-1.5079,-1.5216,-1.541,-1.5759,-1.6239,-1.6849,-1.7738,-1.8596,-1.9486,-2.0623,-2.1405,-2.2056,-2.3835,-2.4493,-2.4696,-2.6169,-2.6893,-2.7203,-2.7499,-2.76,-2.76,-2.76,-2.76,-2.7685,-2.8189,-2.9856,-3.1818,-3.3162,-3.4175,-3.4875,-3.497,-3.5307,-3.56,-3.56,-3.56,-3.56,-3.56,-3.56,-3.56,-3.56,-3.56,-3.56,-3.56,-3.56,-3.56,-3.56,-3.56,-3.5735,-3.6146,-3.6105,-3.6358,-3.7156,-3.7619,-3.7956,-3.8181,-3.8691,-3.9016,-3.9013,-3.8996,-3.9265,-3.9875,-4.0867,-4.1878,-4.2873,-4.3103,-4.3304,-4.3515,-4.3515,-4.3515,-4.3515,-4.3515,-4.3515,-1.0896,-1.1181,-1.1626,-1.1716,-1.2072,-1.247,0.0,0.0,0.0,-1.3706,-1.4112,-1.4453,-1.4453,-1.5133,-1.5769,-1.6138,-1.6956,-1.7735,-1.825,-1.8726,-1.9334,-2.0151,-2.0292,-2.0572,-2.1264,-2.112,-2.0465,-1.9198,-1.8135,-1.6978,-1.5586,-1.452,-1.38,-1.3511,-1.3246,-1.3376,-1.3881,-1.3472,-1.3773,-1.4911,-1.4715,-1.4913,-1.541,-1.5759,-1.6181,-1.6691,-1.7683,-1.8375,-1.8917,-2.0186,-2.0893,-2.1363,-2.3406,-2.4306,-2.4666,-2.6044,-2.6904,-2.7433,-2.756,-2.76,-2.76,-2.76,-2.76,-2.7831,-2.9132,-3.0946,-3.2839,-3.4069,-3.493,-3.5475,-3.5594,-3.56,-3.56,-3.56,-3.56,-3.56,-3.56,-3.56,-3.56,-3.56,-3.56,-3.56,-3.56,-3.56,-3.56,-3.56,-3.574,-3.5864,-3.5864,-3.5977,-3.6111,-3.627,-3.6366,-3.6525,-3.683,-3.6948,-3.7117,-3.7358,-3.7377,-3.777,-3.863,-3.9913,-4.1434,-4.3213,-4.3013,-4.305,-4.3375,-4.3462,-4.3515,-4.3515,-4.3515,-4.3515,-1.1772,-1.1864,-1.2126,-1.2461,-1.3032,-1.3545,-1.3551,0.0,-1.4892,-1.4622,0.0,-1.5781,-1.5781,0.0,0.0,-1.6794,-1.7146,-1.7729,-1.8617,-1.9388,-2.0088,-2.0731,-2.0958,-2.1277,-2.1768,-2.086,-1.9727,-1.851,-1.7805,-1.6872,-1.5574,-1.4874,-1.4193,-1.3519,-1.345,-1.348,-1.3571,-1.3881,-1.424,-1.4558,-1.4942,-1.5235,-1.541,-1.5759,-1.5943,-1.6077,-1.749,-1.8147,-1.8329,-2.0013,-2.0427,-2.0176,-2.2204,-2.3605,-2.4615,-2.5563,-2.6283,-2.6893,-2.7408,-2.76,-2.76,-2.76,-2.76,-2.8022,-3.0268,-3.1173,-3.1911,-3.4462,-3.5247,-3.536,-3.5554,-3.56,-3.56,-3.56,-3.56,-3.56,-3.56,-3.56,-3.56,-3.56,-3.56,-3.56,-3.56,-3.56,-3.56,-3.56,-3.6305,-3.6814,-3.6763,-3.6871,-3.724,-3.802,-3.7556,-3.7249,-3.74,-3.7422,-3.7301,-3.6992,-3.6978,-3.7468,-3.8574,-4.0112,-4.1386,-4.2322,-4.2711,-4.292,-4.2957,-4.3322,-4.3515,-4.3515,-4.3515,-4.3515,-1.2871,-1.3111,-1.3373,-1.3777,-1.4073,-1.433,-1.453,-1.5069,-1.5514,-1.5369,0.0,0.0,0.0,0.0,0.0,0.0,-1.7461,-1.8292,-1.8698,-1.9605,-2.0458,-2.1021,-2.1156,-2.1282,-2.1456,-2.065,-1.9879,-1.9383,-1.8127,-1.7113,-1.6447,-1.5259,-1.4413,-1.4017,-1.3692,-1.3511,-1.3511,-1.3489,-1.3731,-1.421,-1.449,-1.4835,-1.5294,-1.5797,-1.6009,-1.6095,-1.749,-1.8093,-1.8213,-1.9603,-2.0454,-2.1002,-2.1959,-2.283,-2.3701,-2.5245,-2.6176,-2.6788,-2.7382,-2.76,-2.76,-2.76,-2.777,-2.8419,-3.0555,-3.147,-3.227,-3.4649,-3.5354,-3.5429,-3.5554,-3.56,-3.56,-3.56,-3.56,-3.56,-3.56,-3.56,-3.56,-3.56,-3.56,-3.56,-3.56,-3.56,-3.56,-3.56,-3.5955,-3.6181,-3.6164,-3.6343,-3.6595,-3.6965,-3.6822,-3.6741,-3.6801,-3.6801,-3.673,-3.6571,-3.6991,-3.7962,-3.9567,-4.0046,-4.0877,-4.216,-4.2398,-4.2634,-4.2901,-4.3304,-4.3515,-4.3515,-4.3515,-4.3515,-1.3488,-1.3859,-1.4213,-1.4709,-1.4761,-1.4778,-1.5129,-1.5437,-1.5643,-1.5643,-1.5961,0.0,0.0,0.0,-1.7232,-1.6748,0.0,-1.8455,-1.8676,-1.94,-2.0194,-2.1098,-2.1316,-2.1243,-2.0946,-2.0399,-2.0031,-1.9802,-1.8405,-1.7385,-1.7029,-1.5583,-1.4638,-1.4331,-1.3778,-1.3511,-1.3511,-1.3246,-1.3437,-1.401,-1.4231,-1.4638,-1.5235,-1.5816,-1.6114,-1.6171,-1.7341,-1.7957,-1.8174,-1.9174,-2.0323,-2.1515,-2.1845,-2.2343,-2.3097,-2.5066,-2.6176,-2.6788,-2.7382,-2.76,-2.76,-2.76,-2.782,-2.8477,-3.0579,-3.1582,-3.245,-3.4672,-3.54,-3.5514,-3.5577,-3.56,-3.56,-3.56,-3.56,-3.56,-3.56,-3.56,-3.56,-3.56,-3.56,-3.56,-3.56,-3.56,-3.56,-3.56,-3.5831,-3.5904,-3.5678,-3.6031,-3.6237,-3.6075,-3.6191,-3.628,-3.6301,-3.6301,-3.6387,-3.6611,-3.7374,-3.8529,-4.0145,-4.0094,-4.0595,-4.1821,-4.2074,-4.2378,-4.2711,-4.3232,-4.3515,-4.3515,-4.3515,-4.3515,-1.3335,-1.3818,-1.4273,-1.5018,-1.4941,-1.4778,-1.5129,-1.5223,-1.5232,-1.5232,-1.6093,-1.6973,-1.7269,-1.7896,-1.8216,-1.7719,-1.7599,0.0,0.0,-1.864,-1.9211,-2.0986,-2.1606,-2.1436,-2.0248,-2.0096,-1.9802,-1.9077,-1.8388,-1.7629,-1.685,-1.576,-1.4866,-1.4142,-1.3716,-1.3511,-1.3511,-1.348,-1.367,-1.401,-1.4478,-1.4854,-1.5235,-1.5816,-1.6114,-1.6142,-1.6905,-1.7562,-1.8147,-1.8762,-1.9793,-2.0996,-2.1732,-2.2422,-2.3234,-2.5122,-2.6176,-2.6788,-2.7382,-2.76,-2.76,-2.76,-2.7625,-2.8077,-3.0481,-3.1308,-3.1975,-3.4562,-3.54,-3.5514,-3.5577,-3.56,-3.56,-3.56,-3.56,-3.56,-3.56,-3.56,-3.56,-3.56,-3.56,-3.56,-3.56,-3.56,-3.56,-3.56,-3.6356,-3.6667,-3.5897,-3.6536,-3.684,-3.6251,-3.6204,-3.6229,-3.6301,-3.6301,-3.6628,-3.7426,-3.8168,-3.891,-3.9687,-4.0463,-4.0877,-4.0942,-4.1774,-4.2198,-4.2218,-4.3087,-4.3515,-4.3515,-4.3515,-4.3515,-1.409,-1.4191,-1.4221,-1.4735,-1.4572,-1.4393,-1.4778,-1.512,-1.5422,-1.567,-1.6585,-1.7393,-1.7506,-1.8273,-1.8599,-1.7823,-1.8081,-1.8315,0.0,-1.8759,-1.9539,-2.0493,-2.0792,-2.0891,-2.0848,-2.0399,-2.0204,-2.0431,-1.9342,-1.8649,-1.8629,-1.7114,-1.5923,-1.5259,-1.4345,-1.3776,-1.3511,-1.3511,-1.3571,-1.3662,-1.4151,-1.4597,-1.503,-1.5575,-1.599,-1.6335,-1.6933,-1.7534,-1.8147,-1.8857,-1.9874,-2.1103,-2.1842,-2.2533,-2.3345,-2.5149,-2.5933,-2.6256,-2.724,-2.76,-2.76,-2.76,-2.765,-2.8076,-3.0029,-3.1047,-3.1958,-3.4045,-3.5048,-3.5514,-3.5577,-3.56,-3.56,-3.56,-3.56,-3.56,-3.56,-3.56,-3.56,-3.56,-3.56,-3.56,-3.56,-3.56,-3.56,-3.56,-3.5864,-3.5972,-3.5701,-3.6065,-3.6288,-3.6096,-3.6191,-3.6276,-3.6301,-3.6301,-3.6853,-3.8151,-3.8461,-3.9163,-4.0446,-4.0774,-4.1035,-4.1283,-4.1885,-4.2358,-4.2673,-4.3214,-4.3515,-4.3515,-4.3515,-4.3515,-1.4064,-1.4084,-1.3982,-1.4375,-1.4281,-1.4204,-1.4598,-1.5092,-1.5512,-1.574,-1.6778,-1.7621,-1.7526,-1.8379,-1.884,-1.7999,-1.85,-1.8904,0.0,-1.9222,-1.9852,-1.9994,-2.0363,-2.0742,-2.1098,-2.0746,-2.07,-2.1158,-2.0063,-1.9375,-1.933,-1.7609,-1.6262,-1.5513,-1.4437,-1.3759,-1.3511,-1.3511,-1.3511,-1.3511,-1.3971,-1.4458,-1.4922,-1.5469,-1.5972,-1.6431,-1.6768,-1.7379,-1.8217,-1.8685,-1.9783,-2.1236,-2.1923,-2.2604,-2.3416,-2.5149,-2.6081,-2.6549,-2.7316,-2.76,-2.76,-2.76,-2.7675,-2.8071,-2.9593,-3.0823,-3.2004,-3.3593,-3.4779,-3.5543,-3.5577,-3.56,-3.56,-3.56,-3.56,-3.56,-3.56,-3.56,-3.56,-3.56,-3.56,-3.56,-3.56,-3.56,-3.56,-3.56,-3.56,-3.5622,-3.5667,-3.5822,-3.5971,-3.6058,-3.6191,-3.6259,-3.6301,-3.6559,-3.7249,-3.8508,-3.8836,-3.9583,-4.086,-4.0912,-4.1088,-4.1494,-4.1969,-4.2438,-4.2901,-4.3304,-4.3515,-4.3515,-4.3515,-4.3515]}]]